[[{"header":{"parameterUnit":"m.s-1","parameterCategory":1,"la1":30.6,"la2":29.2853,"lo1":-89.7004,"lo2":-87.6739,"dy":0.0162,"dx":0.0183,"nx":112,"ny":82,"refTime":"2023-09-11T06:00:00:Z","depth":0,"parameterNumber":2,"parameterNumberName":"U-component_of_WINDS"},"data":[0.0,0.0,0.0,0.0,0.0,0.0,0.0,0.0,0.0,0.0,0.0,0.0,0.0,0.0,0.0,0.0,0.0,0.0,0.0,0.0,0.0,0.0,0.0,0.0,0.0,0.0,0.0,0.0,0.0,0.0,0.0,0.0,0.0,0.0,0.0,0.0,0.0,0.0,0.0,0.0,0.0,0.0,0.0,0.0,0.0,0.0,0.0,0.0,0.0,0.0,0.0,0.0,0.0,0.0,0.0,0.0,0.0,0.0,0.0,0.0,0.0,0.0,0.0,0.0,0.0,0.0,0.0,0.0,0.0,0.0,0.0,0.0,0.0,0.0,0.0,0.0,0.0,0.0,0.0,0.0,0.0,0.0,0.0,0.0,0.0,0.0,0.0,0.0,0.0,0.0,1.644,1.5479,1.5556,1.6634,1.8894,1.8595,1.8748,1.9845,0.0,0.0,0.0,0.0,0.0,0.0,0.0,0.0,0.0,0.0,0.0,0.0,0.0,0.0,0.0,0.0,0.0,0.0,0.0,0.0,0.0,0.0,0.0,0.0,0.0,0.0,0.0,0.0,0.0,0.0,0.0,0.0,0.0,0.0,0.0,0.0,0.0,0.0,0.0,0.0,0.0,0.0,0.0,0.0,0.0,0.0,0.0,0.0,0.0,0.0,0.0,0.0,0.0,0.0,0.0,0.0,0.0,0.0,0.0,0.0,0.0,0.0,0.0,0.0,0.0,0.0,0.0,0.0,0.0,0.0,0.0,0.0,0.0,0.0,0.0,0.0,0.0,0.0,0.0,0.0,0.0,0.0,0.0,0.0,0.0,0.0,0.0,0.0,0.0,0.0,0.0,0.0,0.0,0.0,0.0,0.0,0.0,0.0,0.0,0.0,0.0,0.0,0.0,0.0,1.594,1.9732,1.9355,1.9369,2.0716,2.0874,2.0657,2.0019,0.0,0.0,0.0,0.0,0.0,0.0,0.0,0.0,0.0,0.0,0.0,0.0,0.0,0.0,0.0,0.0,0.0,0.0,0.0,0.0,0.0,0.0,0.0,0.0,0.0,0.0,0.0,0.0,0.0,0.0,0.0,0.0,0.0,0.0,0.0,0.0,0.0,0.0,0.0,0.0,0.0,0.0,0.0,0.0,0.0,0.0,0.0,0.0,0.0,0.0,0.0,0.0,0.0,0.0,0.0,0.0,0.0,0.0,0.0,0.0,0.0,0.0,0.0,0.0,0.0,0.0,0.0,0.0,0.0,0.0,0.0,0.0,0.0,0.0,0.0,0.0,0.0,0.0,0.0,0.0,0.0,0.0,0.0,0.0,0.0,0.0,0.0,0.0,0.0,0.0,0.0,0.0,0.0,0.0,0.0,0.0,0.0,0.0,0.0,0.0,0.0,0.0,0.0,0.1921,0.3775,0.7365,0.6706,0.7078,0.9755,1.2334,1.4376,1.5742,1.7601,0.0,0.0,0.0,0.0,0.0,0.0,0.0,0.0,0.0,0.0,0.0,0.0,0.0,0.0,0.0,0.0,0.0,0.0,0.0,0.0,0.0,0.0,0.0,0.0,0.0,0.0,0.0,0.0,0.0,0.0,0.0,0.0,0.0,0.0,0.0,0.0,0.0,0.0,0.0,0.0,0.0,0.0,0.0,0.0,0.0,0.0,0.0,0.0,0.0,0.0,0.0,0.0,0.0,0.0,0.0,0.0,0.0,0.0,0.0,0.0,0.0,0.0,0.0,0.0,0.0,0.0,0.0,0.0,0.0,0.0,0.0,0.0,0.0,0.0,0.0,0.0,0.0,0.0,0.0,0.0,0.0,0.0,0.0,0.0,0.0,0.0,0.0,0.0,0.0,0.0,0.0,0.0,0.0,0.0,0.0,0.0,0.0,0.0,0.0,0.0,0.0,0.0,-0.7757,-0.8073,-0.4138,-0.4398,-0.3595,-0.047,0.3889,0.7814,1.0916,1.5099,0.0,0.0,0.0,0.0,0.0,0.0,0.0,0.0,0.0,0.0,0.0,0.0,0.0,0.0,0.0,0.0,0.0,0.0,0.0,0.0,0.0,0.0,0.0,0.0,0.0,0.0,0.0,0.0,0.0,0.0,0.0,0.0,0.0,0.0,0.0,0.0,0.0,0.0,0.0,0.0,0.0,0.0,0.0,0.0,0.0,0.0,0.0,0.0,0.0,0.0,0.0,0.0,0.0,0.0,0.0,0.0,0.0,0.0,0.0,0.0,0.0,0.0,0.0,0.0,0.0,0.0,0.0,0.0,0.0,0.0,0.0,0.0,0.0,0.0,0.0,0.0,0.0,0.0,0.0,0.0,0.0,0.0,0.0,0.0,0.0,0.0,0.0,0.0,0.0,0.0,0.0,0.0,0.0,0.0,0.0,0.0,0.0,0.0,0.0,0.0,0.0,0.0,-1.3197,-1.2895,-0.4914,-0.3587,-0.3007,-0.2348,0.1607,0.5064,0.7501,1.1253,0.0,0.0,0.0,0.0,0.0,0.0,0.0,0.0,0.0,0.0,0.0,0.0,0.0,0.0,0.0,0.0,0.0,0.0,0.0,0.0,0.0,0.0,0.0,0.0,0.0,0.0,0.0,0.0,0.0,0.0,0.0,0.0,0.0,0.0,0.0,0.0,0.0,0.0,0.0,0.0,0.0,0.0,0.0,0.0,0.0,0.0,0.0,0.0,0.0,0.0,0.0,0.0,0.0,0.0,0.0,0.0,0.0,0.0,0.0,0.0,0.0,0.0,0.0,0.0,0.0,0.0,0.0,0.0,0.0,0.0,0.0,0.0,0.0,0.0,0.0,0.0,0.0,0.0,0.0,0.0,0.0,0.0,0.0,0.0,0.0,0.0,0.0,0.0,0.0,0.0,0.0,0.0,0.0,0.0,0.0,0.0,0.0,0.0,0.0,0.0,0.0,0.0,-2.4227,-2.4593,-2.1182,-2.0306,-1.8873,-1.6241,-1.0036,-0.3911,0.1721,0.0,0.0,0.0,0.0,0.0,0.0,0.0,0.0,0.0,0.0,0.0,0.0,0.0,0.0,0.0,0.0,0.0,0.0,0.0,0.0,0.0,0.0,0.0,0.0,0.0,0.0,0.0,0.0,0.0,0.0,0.0,0.0,0.0,0.0,0.0,0.0,0.0,0.0,0.0,0.0,0.0,0.0,0.0,0.0,0.0,0.0,0.0,0.0,0.0,0.0,0.0,0.0,0.0,0.0,0.0,0.0,0.0,0.0,0.0,0.0,0.0,0.0,0.0,0.0,0.0,0.0,0.0,0.0,0.0,0.0,0.0,0.0,0.0,0.0,0.0,0.0,0.0,0.0,0.0,0.0,0.0,0.0,0.0,0.0,0.0,0.0,0.0,0.0,0.0,0.0,0.0,0.0,0.0,0.0,0.0,0.0,0.0,0.0,0.0,0.0,0.0,0.0,-2.9588,-3.1139,-3.1877,-3.1533,-3.0938,-2.9231,-2.5908,-1.8624,-1.1099,-0.3727,0.0,0.0,0.0,0.0,0.0,0.0,0.0,0.0,0.0,0.0,0.0,0.0,0.0,0.0,0.0,0.0,0.0,0.0,0.0,0.0,0.0,0.0,0.0,0.0,0.0,0.0,0.0,0.0,0.0,0.0,0.0,0.0,0.0,0.0,0.0,0.0,0.0,0.0,0.0,0.0,0.0,0.0,0.0,0.0,0.0,0.0,0.0,0.0,0.0,0.0,0.0,0.0,0.0,0.0,0.0,0.0,0.0,0.0,0.0,0.0,0.0,0.0,0.0,0.0,0.0,0.0,0.0,0.0,0.0,0.0,0.0,0.0,0.0,0.0,0.0,0.0,0.0,0.0,0.0,0.0,0.0,0.0,0.0,0.0,0.0,0.0,0.0,0.0,0.0,0.0,0.0,0.0,0.0,0.0,0.0,0.0,0.0,0.0,0.0,0.0,0.0,0.0,-3.0991,-3.2419,-3.2995,-3.283,-3.2014,-3.0768,-2.891,-2.224,-1.5261,0.0,0.0,0.0,0.0,0.0,0.0,0.0,0.0,0.0,0.0,0.0,0.0,0.0,0.0,0.0,0.0,0.0,0.0,0.0,0.0,0.0,0.0,0.0,0.0,0.0,0.0,0.0,0.0,0.0,0.0,0.0,0.0,0.0,0.0,0.0,0.0,0.0,0.0,0.0,0.0,0.0,0.0,0.0,0.0,0.0,0.0,0.0,0.0,0.0,0.0,0.0,0.0,0.0,0.0,0.0,0.0,0.0,0.0,0.0,0.0,0.0,0.0,0.0,0.0,0.0,0.0,0.0,0.0,0.0,0.0,0.0,0.0,0.0,0.0,0.0,0.0,0.0,0.0,0.0,0.0,0.0,0.0,0.0,0.0,0.0,0.0,0.0,0.0,0.0,0.0,0.0,0.0,0.0,0.0,0.0,0.0,0.0,0.0,0.0,0.0,0.0,0.0,0.0,-2.8577,-3.0757,-3.1976,-3.2414,-3.1938,-3.1205,-3.0054,-2.4465,-1.8116,-1.1184,0.0,0.0,0.0,0.0,0.0,0.0,0.0,0.0,0.0,0.0,0.0,0.0,0.0,0.0,0.0,0.0,0.0,0.0,0.0,0.0,0.0,0.0,0.0,0.0,0.0,0.0,0.0,0.0,0.0,0.0,0.0,0.0,0.0,0.0,0.0,0.0,0.0,0.0,0.0,0.0,0.0,0.0,0.0,0.0,0.0,0.0,0.0,0.0,0.0,0.0,0.0,0.0,0.0,0.0,0.0,0.0,0.0,0.0,0.0,0.0,0.0,0.0,0.0,0.0,0.0,0.0,0.0,0.0,0.0,0.0,0.0,0.0,0.0,0.0,0.0,0.0,0.0,0.0,0.0,0.0,0.0,0.0,0.0,0.0,0.0,0.0,0.0,0.0,0.0,0.0,0.0,0.0,0.0,0.0,0.0,0.0,0.0,0.0,0.0,0.0,0.0,0.0,-2.4624,-2.7862,-3.0325,-3.2051,-3.2015,-3.1487,-3.0705,-2.6156,-2.058,-1.4013,0.0,0.0,0.0,0.0,0.0,0.0,0.0,0.0,0.0,0.0,0.0,0.0,0.0,0.0,0.0,0.0,0.0,0.0,0.0,0.0,0.0,0.0,0.0,0.0,0.0,0.0,0.0,0.0,0.0,0.0,0.0,0.0,0.0,0.0,0.0,0.0,0.0,0.0,0.0,0.0,0.0,0.0,0.0,0.0,0.0,0.0,0.0,0.0,0.0,0.0,0.0,0.0,0.0,0.0,0.0,0.0,0.0,0.0,0.0,0.0,0.0,0.0,0.0,0.0,0.0,0.0,0.0,0.0,0.0,0.0,0.0,0.0,0.0,0.0,0.0,0.0,0.0,0.0,0.0,0.0,0.0,0.0,0.0,0.0,0.0,0.0,0.0,0.0,0.0,0.0,0.0,0.0,0.0,0.0,0.0,0.0,0.0,0.0,0.0,0.0,0.0,0.0,-1.9411,-2.392,-2.7905,-3.1175,-3.1758,-3.1649,-3.0949,-2.7336,-2.265,-1.6834,0.0,0.0,0.0,0.0,0.0,0.0,0.0,0.0,0.0,0.0,0.0,0.0,0.0,0.0,0.0,0.0,0.0,0.0,0.0,0.0,0.0,0.0,0.0,0.0,0.0,0.0,0.0,0.0,0.0,0.0,0.0,0.0,0.0,0.0,0.0,0.0,0.0,0.0,0.0,0.0,0.0,0.0,0.0,0.0,0.0,0.0,0.0,0.0,0.0,0.0,0.0,0.0,0.0,0.0,0.0,0.0,0.0,0.0,0.0,0.0,1.5101,1.4568,0.0,0.0,0.0,0.0,0.0,0.0,0.0,0.0,0.0,0.0,0.0,0.0,0.0,0.0,0.0,0.0,0.0,0.0,0.0,0.0,0.0,0.0,0.0,0.0,0.0,0.0,0.0,0.0,0.0,0.0,0.0,0.0,0.0,0.0,0.0,0.0,0.0,0.0,0.0,0.0,-1.3665,-1.9214,-2.3511,-2.6258,-2.9309,-3.1103,-3.0999,-2.7899,-2.4026,-1.9554,-1.4815,0.0,0.0,0.0,0.0,0.0,0.0,0.0,0.0,0.0,0.0,0.0,0.0,0.0,0.0,0.0,0.0,0.0,0.0,0.0,0.0,0.0,0.0,0.0,0.0,0.0,0.0,0.0,0.0,0.0,0.0,0.0,0.0,0.0,0.0,0.0,0.0,0.0,0.0,0.0,0.0,0.0,0.0,0.0,0.0,0.0,0.0,0.0,0.0,0.0,0.0,0.0,0.0,0.0,0.0,0.0,0.0,0.0,0.0,0.0,1.5699,1.5133,0.0,0.0,0.0,0.0,0.0,0.0,0.0,0.0,0.0,0.0,0.0,0.0,0.0,0.0,0.0,0.0,0.0,0.0,0.0,0.0,0.0,0.0,0.0,0.0,0.0,0.0,0.0,0.0,0.0,0.0,0.0,0.0,0.0,0.0,0.0,0.0,0.0,0.0,0.0,0.0,-0.64,-1.1227,-1.6511,-2.2707,-2.5118,-2.7399,-3.0173,-2.811,-2.491,-2.0859,-1.7216,0.0,0.0,0.0,0.0,0.0,0.0,0.0,0.0,0.0,0.0,0.0,0.0,0.0,0.0,0.0,0.0,0.0,0.0,0.0,0.0,0.0,0.0,0.0,0.0,0.0,0.0,0.0,0.0,0.0,0.0,0.0,0.0,0.0,0.0,0.0,0.0,0.0,0.0,0.0,0.0,0.0,0.0,0.0,0.0,0.0,0.0,0.0,0.0,0.0,0.0,0.0,0.0,0.0,1.8593,1.8745,1.8842,1.8311,1.8083,1.8081,1.6346,1.5824,1.6175,1.5539,0.0,0.0,0.0,0.0,0.0,0.0,0.0,0.0,0.0,0.0,0.0,0.0,0.0,0.0,0.0,0.0,0.0,0.0,0.0,0.0,0.0,0.0,-1.2141,-1.4165,-1.4409,-1.0499,0.299,0.0,0.0,0.0,0.0,0.0,0.0,0.0,0.0,0.0,0.0,0.0,0.0731,-0.2904,-0.8338,-1.6601,-1.9427,-2.2414,-2.6561,-2.6722,-2.4987,-2.1174,-1.8478,-1.5059,0.0,0.0,0.0,0.0,0.0,0.0,0.0,0.0,0.0,0.0,0.0,0.0,0.0,0.0,0.0,0.0,0.0,0.0,0.0,0.0,0.0,0.0,0.0,0.0,0.0,0.0,0.0,0.0,0.0,0.0,0.0,0.0,1.5317,1.5175,0.0,0.0,0.0,0.0,0.0,0.0,0.0,0.0,0.0,0.0,0.0,0.0,0.0,1.7427,1.7599,1.8018,1.8269,1.83,1.9155,1.9263,1.8724,1.9215,1.9227,1.8828,1.8166,0.0,1.7035,1.5731,0.0,0.0,0.0,0.0,0.0,0.0,0.0,0.0,0.0,0.0,0.0,0.0,0.0,0.0,0.0,0.0,0.0,0.0,0.0,0.0,0.0,0.0,-1.8967,-2.0795,-2.246,-2.1623,-1.4397,-0.5516,0.1676,0.3696,0.7867,1.0622,0.0,0.0,0.0,0.0,0.0,0.0,0.5421,0.2227,-0.0164,-0.1016,-1.1503,-1.7629,-1.562,-2.1164,-2.3463,-2.0355,-1.6839,-1.3599,-1.0611,-0.6309,0.0,0.0,0.0,0.0,0.0,0.0,0.0,0.0,0.0,0.0,0.0,0.0,0.0,0.0,0.0,0.0,0.0,0.0,0.0,0.0,0.0,0.0,0.0,0.0,0.0,0.0,0.0,0.0,0.0,1.7115,1.6978,1.6889,1.6744,1.6745,0.0,0.0,0.0,0.0,0.0,0.0,0.0,0.0,0.0,1.7979,1.8076,1.8327,1.8826,1.911,1.9377,1.9607,1.995,2.0033,1.9925,1.9736,1.9701,1.9709,1.9082,1.8562,1.8069,1.7031,1.6433,1.6187,0.0,0.0,0.0,0.0,1.9433,1.962,2.1101,2.1663,2.1823,2.2248,0.0,0.0,0.0,0.0,0.0,0.0,0.0,-1.1327,-1.6829,-2.3867,-3.0056,-3.2185,-3.2478,-3.1335,-2.7672,-2.0511,-1.1816,-0.178,0.296,0.5486,0.6015,0.6458,0.0,0.0,0.0,0.8555,0.8723,0.7903,0.6465,0.4424,-0.1698,-0.6336,-0.8104,-1.2775,-1.4903,-1.3217,-1.2329,-1.0722,-0.8025,-0.4755,-0.1808,0.0,0.0,0.0,0.0,0.0,0.0,0.0,0.0,0.0,0.0,0.0,0.0,0.0,0.0,0.0,0.0,0.0,0.0,0.0,0.0,0.0,0.0,0.0,0.0,0.0,0.0,0.0,0.0,1.7914,1.8379,1.8624,1.8313,1.8095,0.0,0.0,0.0,0.0,0.0,0.0,1.8135,1.8082,1.8373,1.9176,1.9206,1.9632,2.0482,2.0599,2.0756,2.0897,2.0758,2.0733,2.0795,2.0144,2.0099,2.0451,1.9646,1.9174,1.8967,1.8068,1.7294,1.6753,1.7559,1.7722,1.7754,1.9678,2.0652,2.1155,2.2261,2.3016,2.3469,2.3269,2.2766,2.2011,2.0895,0.0,0.0,0.0,0.0,-1.915,-2.4557,-3.1994,-3.8627,-4.0721,-3.9853,-3.8032,-3.6073,-3.1373,-2.3205,-0.8619,-0.3442,-0.076,0.1486,0.268,0.0,0.4776,0.6544,0.8417,1.0502,1.1949,1.2094,1.0148,0.7014,0.3647,0.0097,-0.4357,-0.6665,-0.5948,-0.6627,-0.6122,-0.4068,-0.1918,0.0508,0.3289,0.0,0.0,0.0,0.0,0.0,0.0,0.0,0.0,0.0,0.0,0.0,0.0,0.0,0.0,0.0,0.0,0.0,0.0,0.0,0.0,0.0,0.0,0.0,0.0,0.0,0.0,0.0,0.0,0.0,1.9974,1.9526,0.0,0.0,0.0,0.0,1.8161,1.8177,1.839,1.8913,1.8876,1.9431,2.0729,2.0871,2.136,2.235,2.244,2.217,2.1654,2.153,2.1116,2.0527,2.0481,2.0697,2.1007,1.996,1.9535,1.9553,1.8239,1.7376,1.6907,1.7153,1.7344,1.7737,1.968,2.0646,2.1151,2.2159,2.3764,2.5213,2.4335,2.2283,1.9611,1.6718,1.0166,0.0,0.0,-1.5713,-2.3558,-3.1426,-3.7098,-4.1151,-4.2541,-4.1876,-4.0232,-3.774,-3.4244,-2.9028,-2.0271,-1.3679,-0.8689,-0.5938,0.0,-0.0492,0.0288,0.3496,0.7003,1.0207,1.3234,1.6609,2.0484,1.3152,0.8766,1.0722,0.2991,-0.1723,-0.1187,-0.0,0.0808,0.1196,0.2708,0.4575,0.6698,0.8276,0.0,0.0,0.0,0.0,0.0,0.0,0.0,0.0,0.0,0.0,0.0,0.0,0.0,0.0,0.0,0.0,0.0,0.0,0.0,0.0,0.0,0.0,0.0,0.0,0.0,0.0,0.0,0.0,2.0552,2.0185,0.0,2.0101,1.9511,1.91,1.9108,1.895,1.9329,2.0309,2.0279,2.0667,2.1576,2.1706,2.2077,2.2739,2.2118,2.1898,2.2009,2.1242,2.0795,2.0695,2.0745,2.1007,2.1464,2.1134,2.0649,2.0108,1.9484,1.866,1.7742,1.7905,1.8382,1.916,2.0677,2.2113,2.3491,2.4676,2.5936,2.6876,2.5857,2.2848,1.8669,1.3539,0.6527,-0.1558,-1.0237,-1.753,-2.4366,-3.1043,-3.5816,-3.9353,-4.1003,-4.0422,-3.8696,-3.5714,-3.3066,-3.0178,-2.6365,-2.0947,-1.6208,-1.3717,-1.0561,-0.8174,-0.7288,-0.4823,-0.0563,0.6368,0.934,1.38,2.1642,1.8719,1.6573,1.7361,1.154,0.7851,0.7806,0.631,0.5722,0.6404,0.7242,0.8291,0.9515,1.0531,1.1806,0.0,0.0,0.0,0.0,0.0,0.0,0.0,0.0,0.0,0.0,0.0,0.0,0.0,0.0,0.0,0.0,0.0,0.0,0.0,0.0,0.0,0.0,0.0,0.0,0.0,1.9748,2.0473,2.0803,2.0855,2.0838,2.0822,2.0596,2.0415,2.0317,2.0208,2.0547,2.1473,2.1605,2.1926,2.2532,2.2701,2.3077,2.3708,2.3065,2.2769,2.2916,2.1821,2.1295,2.1226,2.1086,2.1277,2.1648,2.1562,2.108,2.0288,2.0007,1.9252,1.8277,1.8365,1.9004,2.0021,2.1292,2.3033,2.504,2.719,2.7826,2.7615,2.7078,2.3148,1.7473,1.1255,0.4166,-0.3315,-1.0784,-1.6938,-2.2402,-2.7723,-3.2318,-3.5969,-3.7479,-3.7544,-3.6236,-3.2517,-3.0315,-2.8773,-2.8058,-2.4849,-2.1722,-2.0125,-1.7154,-1.4852,-1.4407,-1.2146,-0.7268,0.1761,0.5215,1.0604,2.0459,2.1327,2.1116,2.0895,1.7915,1.576,1.5062,1.278,1.1507,1.1548,1.1788,1.2079,1.2451,1.2973,1.3756,1.4734,0.0,0.0,0.0,0.0,0.0,0.0,0.0,0.0,0.0,0.0,0.0,0.0,0.0,0.0,0.0,0.0,0.0,0.0,0.0,0.0,0.0,0.0,0.0,1.9184,2.0472,2.1267,2.0904,2.1597,2.1995,2.1779,2.2216,2.2306,2.1783,2.1926,2.2099,2.2339,2.2769,2.3188,2.3631,2.3847,2.4369,2.5278,2.5262,2.4948,2.4312,2.3431,2.2713,2.2127,2.1601,2.1467,2.1634,2.1222,2.0677,2.0057,1.9636,1.9042,1.8385,1.8413,1.9085,2.0192,2.1467,2.3295,2.5667,2.9425,2.925,2.7448,2.7924,2.3106,1.591,0.982,0.3142,-0.3603,-0.9461,-1.3786,-1.7546,-2.1625,-2.6565,-3.0799,-3.1763,-3.2961,-3.2645,-2.8121,-2.5881,-2.485,-2.5338,-2.4915,-2.4563,-2.4873,-2.2185,-2.0115,-2.0396,-1.767,0.0,-0.3169,0.1497,0.782,1.7818,2.0877,2.2006,2.154,2.1769,2.1367,2.0036,1.9238,1.8154,1.6594,1.6203,1.5894,1.5511,1.5494,1.5479,1.5414,0.0,0.0,0.0,0.0,0.0,0.0,0.0,0.0,0.0,0.0,0.0,0.0,0.0,0.0,0.0,0.0,0.0,0.0,0.0,0.0,0.0,2.0154,2.0766,2.0877,2.1273,2.1661,2.1973,2.2084,2.224,2.2529,2.2621,2.2701,2.2777,2.2404,2.2518,2.3342,2.3126,2.3396,2.4293,2.4516,2.483,2.5246,2.4842,2.4636,2.4603,2.3681,2.3264,2.3324,2.3194,2.3011,2.2789,2.2094,2.1201,2.0182,1.9191,1.8437,1.8005,1.8452,1.9536,2.102,2.2314,2.4946,2.8232,3.055,3.0141,2.8482,2.7708,2.2566,1.5799,1.098,0.5107,-0.0574,-0.4374,-0.7254,-0.9608,-1.1651,-1.3425,-1.5237,-1.7677,-1.83,-1.8106,-1.7196,-1.6598,-1.6402,-1.6824,-1.3596,-1.3944,-2.3785,-2.3008,-2.1076,-2.1175,-1.7314,-1.1364,-0.3053,0.2641,0.9679,1.9497,2.1577,2.2702,2.3772,2.3238,2.2985,2.3329,2.198,2.0796,1.9935,1.8264,1.6871,1.5815,1.5831,1.5873,0.0,0.0,0.0,0.0,0.0,0.0,0.0,0.0,0.0,0.0,0.0,0.0,0.0,0.0,0.0,0.0,0.0,0.0,0.0,0.0,0.0,0.0,2.0858,2.1633,2.2178,2.2181,2.2237,2.2588,2.276,2.2919,2.3079,2.3637,2.3912,2.3777,2.3586,2.373,2.4272,2.3887,2.4002,2.4775,2.4958,2.5114,2.5246,2.5088,2.5005,2.4989,2.4275,2.4058,2.4347,2.4149,2.3625,2.2878,2.3209,2.0735,1.6496,1.7243,1.6107,1.423,0.0,0.0,0.0,0.0,2.6629,2.9303,3.1286,3.0806,2.9071,2.7702,2.2879,1.6801,1.2629,0.8073,0.3891,0.166,0.0195,-0.0948,-0.1892,-0.2923,-0.4273,-0.6078,-0.7353,-0.8042,-0.7722,-0.7848,-0.8238,-0.8974,-0.6267,0.0,-1.3803,-1.4537,-1.4471,-1.5636,-1.3004,-0.8211,-0.0666,0.4292,1.0739,2.0183,2.2717,2.4213,2.5412,2.5216,0.0,0.0,0.0,2.3001,2.1429,1.9555,0.0,0.0,0.0,1.6953,1.6691,1.5877,0.0,0.0,1.507,1.5462,0.0,0.0,0.0,0.0,0.0,0.0,0.0,0.0,0.0,0.0,0.0,0.0,0.0,0.0,0.0,0.0,2.1512,2.2136,2.3052,2.3007,2.2875,2.2937,2.3464,2.3777,2.36,2.4863,2.5382,2.4681,2.5038,2.5243,2.506,2.4789,0.0,0.0,0.0,2.5246,2.5294,2.5696,2.5701,2.5249,2.4997,2.4952,2.5077,2.4757,2.3884,2.2674,2.3006,1.8384,1.0743,1.2818,1.1496,0.881,1.5254,1.9085,2.1435,2.5429,2.772,2.9138,3.1521,0.0,0.0,2.7751,2.3551,1.8484,1.4714,1.163,0.9312,0.8221,0.7941,0.7948,0.778,0.6401,0.49,0.4484,0.2286,0.056,0.1438,0.0996,0.0047,-0.1114,-0.0389,0.0661,0.142,-0.1139,-0.4029,-0.6159,-0.5451,-0.2463,0.3702,0.7248,1.2369,2.0639,2.4062,0.0,2.673,2.7406,2.7577,2.7088,2.6422,2.4771,2.1885,2.0488,1.9527,1.9115,1.8842,1.8283,1.75,1.6683,1.5515,1.4055,1.4693,1.5027,0.0,0.0,0.0,0.0,0.0,0.0,0.0,0.0,0.0,0.0,0.0,0.0,0.0,0.0,0.0,2.1839,2.2634,2.314,2.3206,2.3164,2.3277,2.3648,2.3551,2.3853,2.4746,2.4839,2.5,2.5357,2.5468,2.5447,2.5256,2.5028,2.4988,2.5107,2.5362,2.5416,2.5146,2.5717,2.5424,2.434,2.5013,0.0,2.5008,2.5113,2.5247,2.4893,1.5415,0.9825,0.6904,0.0568,0.0923,0.6266,1.4437,1.9116,2.1497,2.3676,2.5789,2.7911,3.0486,3.0203,2.8535,2.7337,2.414,2.0145,1.7163,1.5324,0.0,1.3925,1.4723,1.5883,1.6965,1.9155,2.0529,1.8232,1.7675,1.6805,1.3622,1.1581,1.0129,0.9436,1.161,1.3541,1.3546,0.6281,0.0843,0.2024,0.5702,0.8907,1.0413,1.5186,1.9758,2.3255,2.5062,2.6698,2.8362,2.8745,2.9168,2.9874,2.8006,2.5654,2.3025,2.2206,2.102,1.9281,1.9209,1.862,1.749,1.6577,1.5726,1.4971,1.5256,1.5392,0.0,0.0,0.0,0.0,0.0,0.0,0.0,0.0,0.0,0.0,0.0,1.9758,2.0548,0.0,2.1816,2.1839,2.2332,2.2562,2.2197,2.2119,2.2397,2.316,2.3397,2.3799,2.4563,2.4691,2.4968,2.5551,2.5554,2.5431,2.5242,2.4949,2.4894,2.5123,2.5394,2.5416,2.5201,2.5301,2.4891,2.4036,2.4095,2.4088,2.4072,2.4659,2.423,2.2661,1.484,0.7498,0.0544,-0.6058,-0.4095,0.364,0.985,1.4946,1.9059,2.1166,2.3323,2.5358,2.6388,2.6928,2.6909,2.5544,2.3717,2.1865,2.0652,1.9716,1.9393,2.0422,2.1688,2.3228,2.5073,2.7501,2.902,2.7197,2.6788,2.5912,2.2704,2.0234,1.8377,1.7469,1.7776,1.8609,1.9976,1.5671,1.251,1.3806,1.6232,1.8181,1.8963,2.1892,2.4495,2.6028,2.7277,2.8408,2.9467,2.9882,3.0113,3.0109,2.8312,2.6302,2.4212,2.336,2.2278,2.086,2.0661,1.985,1.8403,1.7167,1.5834,1.4522,1.5321,1.5787,0.0,0.0,0.0,0.0,0.0,0.0,0.0,1.8045,1.8729,1.951,2.0099,2.0753,2.1606,2.2093,2.2217,2.1842,2.1666,2.1444,2.1075,2.0761,2.0976,2.197,2.2875,2.3557,2.3901,2.4357,2.4778,2.5191,2.5233,2.5187,2.5076,2.4735,2.4704,2.5076,2.5278,2.5253,2.4955,2.4733,2.4188,2.3362,2.2845,2.2633,2.2754,2.3905,2.3067,2.0424,1.5595,0.6696,-0.4677,-0.8171,-0.5224,0.1788,0.537,1.0141,1.5372,1.7852,2.0124,2.189,2.1923,2.3124,2.4432,2.3085,2.2819,2.3018,2.3121,2.3401,2.4142,2.6142,2.7733,2.9378,3.1401,3.3044,3.3944,3.3149,3.2445,3.1426,2.937,2.7115,2.5052,2.3491,2.1745,2.1211,2.3466,2.365,2.3632,2.4179,2.4697,2.5351,2.6325,2.7133,2.7874,2.8476,2.9442,3.0075,3.02,3.071,3.0601,2.9643,2.8277,2.6833,2.5337,2.4241,2.3354,2.2703,2.2289,2.1206,1.9341,1.7968,1.6173,1.4106,1.5317,1.6004,1.9456,1.8838,1.8337,1.883,1.8411,1.824,0.0,2.0109,2.0503,2.1187,2.1442,2.177,2.2594,2.2228,2.199,2.2629,2.1425,2.0457,2.0714,1.9803,1.9412,2.0212,2.1722,2.2883,2.3367,2.3702,2.3885,2.3833,2.4405,2.4755,2.4645,2.4461,2.4446,2.467,2.5146,2.4844,2.3709,2.4127,2.3222,2.1092,2.1632,2.1671,2.1322,2.3323,2.3838,2.2653,1.2792,0.3599,-0.4389,-0.4278,-0.1985,0.1788,0.4924,0.7973,1.0916,1.3266,1.5429,1.7444,1.9543,2.0385,2.0545,2.0411,2.1435,2.2644,2.2128,2.4463,2.7605,2.9082,3.1129,3.3165,3.4158,3.5605,3.6713,3.6147,3.5546,3.4642,3.2974,3.1313,2.9421,2.6943,2.576,2.5146,2.5189,2.5917,2.6707,2.7303,2.8485,2.9187,2.8855,2.9829,3.0331,2.986,3.018,3.0481,3.0613,3.0912,3.0747,2.9913,2.8634,2.7382,2.6197,2.4949,2.409,2.3631,2.3369,2.1981,1.9475,1.8707,1.7195,1.5055,1.5561,1.5701,1.8742,1.8283,1.7918,1.7648,1.7405,1.7521,1.8598,1.8903,1.9444,2.1152,2.1534,2.1862,2.2776,2.2297,2.1743,2.1683,2.0841,1.9896,1.9018,1.8999,1.8699,1.7692,1.8262,1.9628,2.185,2.2109,2.237,2.2855,2.34,2.3814,2.3993,2.3945,2.3982,2.4116,2.3823,2.3506,2.32,2.2871,2.1873,2.0172,2.0302,1.9903,1.9211,2.1146,2.0681,1.7947,1.1647,0.6174,0.1601,0.0159,0.0795,0.2957,0.5653,0.8385,1.0959,1.2014,1.3438,1.4925,1.5349,1.6708,1.8165,1.7784,1.9495,2.2006,2.3629,2.5907,2.8582,3.1434,3.358,3.536,3.663,3.7816,3.8593,3.8168,3.8033,3.7532,3.5882,3.4584,3.2979,3.0356,2.8504,2.7469,2.78,2.7828,2.8584,3.0815,3.1069,3.1205,3.1807,3.2185,3.2139,3.1468,3.0859,3.0521,3.0587,3.1371,3.1497,3.0646,2.974,2.8698,2.7553,2.6166,2.5074,2.4458,2.3597,2.2247,2.0367,1.8597,1.6936,1.5398,1.5911,1.6062,1.7957,1.7806,1.765,1.6842,1.6843,1.7235,1.8038,1.8199,1.8717,2.0704,2.1236,2.1607,2.2426,2.2129,2.1562,2.0916,1.9013,1.7198,1.6061,1.5363,1.4497,1.3162,1.3969,1.5633,1.8284,1.943,2.0416,2.1281,2.1935,2.2451,2.2818,2.302,2.3128,2.3122,2.273,2.2443,2.2374,2.1909,2.1024,1.9684,1.9546,1.8909,1.7867,1.9619,1.9298,1.7256,1.5041,1.2804,1.0559,0.783,0.6897,0.726,0.815,0.9938,1.1992,1.206,1.2436,1.2883,1.2434,1.3801,1.5751,1.5542,1.7734,2.0865,2.3256,2.5721,2.838,3.1636,3.3952,3.5851,3.769,3.882,3.9473,3.9592,3.9636,3.927,3.7851,3.685,3.5489,3.303,3.1068,2.9923,3.0263,3.0015,3.0722,3.3461,3.3448,3.3471,3.4447,3.3978,3.3361,3.2936,3.1695,3.0989,3.1256,3.1997,3.2115,3.1288,3.0296,2.9199,2.8028,2.663,2.5464,2.4631,2.3617,2.2367,2.0889,1.885,1.7197,1.5947,1.6359,1.6607,1.7405,1.7617,1.7591,1.7116,1.7431,1.8125,1.903,1.9148,1.9334,2.0239,2.0739,2.1125,2.1478,2.1637,2.1494,2.0892,1.5321,1.1205,1.1519,0.7431,0.475,0.586,0.9046,1.1305,1.1776,1.5298,1.7923,1.8691,1.9883,2.0656,2.0895,2.156,2.1773,2.1391,2.2277,2.2149,2.0768,2.1541,2.1067,1.9443,1.9773,1.9227,1.7872,1.9462,2.1812,2.4589,2.4767,2.3942,2.2335,2.0139,1.8034,1.5853,1.3124,1.2521,1.3164,1.305,1.2158,1.0996,1.1848,1.232,1.2807,1.3825,1.6315,1.9029,1.9317,2.2925,2.725,2.8737,3.1383,3.4334,3.673,3.808,3.9141,4.0359,4.0121,3.9395,3.8635,3.7836,3.6654,3.4626,3.3751,3.3072,3.2259,3.274,3.3622,3.4709,3.5886,3.662,3.6532,3.4982,3.3946,3.4133,3.2776,3.2228,3.3149,3.2826,3.2297,3.1631,2.9862,2.8264,2.701,2.5852,2.4835,2.3963,2.3521,2.2415,2.0617,1.9882,1.8669,1.7051,1.6929,1.7293,1.7867,1.7441,1.6913,1.6328,1.5842,1.5706,1.6416,1.6972,1.7809,1.9285,1.9807,2.031,2.1387,2.1308,1.9109,1.3045,1.0332,0.6904,0.0813,0.0284,0.0378,-0.0,0.2258,0.4117,0.4545,0.9898,1.3799,1.4962,1.6083,1.6832,1.6999,1.8141,1.9006,1.9465,2.0078,2.0364,2.0298,2.0329,2.0004,1.9265,1.894,1.8776,1.8702,2.0496,2.2141,2.364,2.502,2.4754,2.3239,2.2128,2.0289,1.7953,1.6016,1.5368,1.5472,1.453,1.4354,1.434,1.3556,1.3621,1.42,1.4797,1.6077,1.7657,1.9142,2.1429,2.4009,2.6403,2.8769,3.1096,3.3329,3.5083,3.659,3.7808,3.8953,3.9345,3.7932,3.7881,3.7555,3.5728,3.4885,3.4569,3.4817,3.5037,3.5586,3.6728,3.6732,3.6625,3.6651,3.5092,3.409,3.4367,3.3457,3.2938,3.3215,3.3361,3.2929,3.1688,3.0973,2.9691,2.772,2.6543,2.4977,2.2948,2.2257,2.1178,1.9667,1.8907,1.8352,1.8031,1.8024,1.8181,1.7195,1.6546,1.5643,1.4835,1.4606,1.4726,1.535,1.5782,1.6536,1.8157,1.8801,1.9536,2.109,1.8472,1.4187,0.8535,0.313,-0.2131,-0.7349,-0.7307,-0.6527,-0.6124,-0.3839,-0.2023,-0.1358,0.3595,0.7585,0.9669,1.0275,1.1481,1.36,1.4589,1.5927,1.7781,1.8115,1.8655,1.9417,1.9655,1.9798,1.9929,1.8963,1.8818,1.9416,2.0961,2.18,2.2133,2.419,2.4252,2.2817,2.2285,2.1143,1.9542,1.7939,1.7501,1.7595,1.6184,1.6133,1.6564,1.5275,1.4999,1.5229,1.5494,1.5897,1.6421,1.7526,1.8885,2.0432,2.2431,2.449,2.6611,2.8838,3.0838,3.2653,3.41,3.601,3.7177,3.5908,3.6626,3.7108,3.5683,3.5519,3.5759,3.6243,3.6507,3.6833,3.7284,3.6591,3.6144,3.6537,3.5355,3.4565,3.4803,3.4151,3.3808,3.406,3.4068,3.3542,3.2392,3.1277,2.9748,2.7687,2.6599,2.4266,2.0438,2.048,1.956,1.756,1.7562,1.7984,1.8754,1.8756,1.8878,1.5786,1.5181,1.394,1.2999,1.3919,1.5294,1.5849,1.5666,1.5729,1.6978,1.7843,1.8921,2.0746,1.3991,0.7923,0.7181,-0.5313,-1.4476,-1.3053,-1.518,-1.5583,-1.2103,-0.9034,-0.6859,-0.5799,-0.3215,-0.0176,0.3109,0.3049,0.5271,1.0644,1.0937,1.2557,1.5851,1.6281,1.695,1.8063,1.9342,2.0385,2.1169,1.9741,1.9376,1.9978,2.0848,2.0906,2.0504,2.2668,2.2847,2.1562,2.1226,2.1009,2.0789,1.8971,1.8784,1.9294,1.7763,1.7397,1.7509,1.6789,1.6126,1.572,1.5935,1.5813,1.5342,1.4647,1.5461,1.6746,1.7117,1.8812,2.109,2.3373,2.547,2.7423,2.9255,3.1391,3.2899,3.2494,3.4014,3.524,3.4477,3.5599,3.6614,3.6534,3.7102,3.7277,3.6363,3.5456,3.5207,3.6115,3.5614,3.5215,3.5301,3.4758,3.4705,3.5546,3.4711,3.3936,3.3417,3.0672,2.837,2.6756,2.5795,2.242,1.6274,1.8082,1.7447,1.4177,1.5848,1.755,1.9238,1.9041,1.9335,1.9128,1.6839,1.4133,1.4597,1.505,1.5408,1.5418,1.6033,1.6856,1.757,1.847,1.9766,2.1874,1.9394,1.3249,0.1719,-0.4304,-1.0905,-2.0624,-2.0765,-1.8707,-1.5371,-1.2093,-0.9405,-0.7426,-0.5823,-0.3952,-0.1654,0.1204,0.3598,0.5304,0.6582,0.8133,1.0155,1.2746,1.4874,1.6427,1.8833,1.988,1.9531,1.9715,2.0034,2.0433,2.0459,2.0258,1.9938,2.099,2.0816,1.9883,2.0535,2.0631,2.0242,1.9376,1.9236,1.9385,1.7957,1.7707,1.7948,1.7264,1.6819,1.6574,1.6469,1.6033,1.5367,1.4803,1.4628,1.4649,1.4654,1.5364,1.6436,1.7852,1.9663,2.1447,2.2556,2.5257,2.7513,2.7286,2.9196,3.1184,3.1956,3.4224,3.6173,3.6631,3.6236,3.543,3.4197,3.2751,3.2365,3.3904,3.3942,3.3865,3.4034,3.407,3.4167,3.433,3.3088,3.1788,3.0611,2.8669,2.6434,2.3945,2.2288,1.7425,0.89,1.2509,1.2484,0.8431,1.275,1.6532,1.9706,1.8866,1.9119,1.7577,1.6244,1.4898,1.5648,1.5668,1.5542,1.562,1.6251,1.7136,1.8139,1.9418,2.0965,2.2914,1.8853,1.2515,0.4284,-0.0863,-0.7127,-1.6583,-1.5723,-1.4002,-1.3582,-1.1931,-0.9918,-0.7674,-0.6349,-0.4951,-0.3326,-0.1071,0.0449,0.0822,0.2434,0.4429,0.6688,0.9546,1.2611,1.5843,1.8133,1.9373,1.956,1.971,2.0075,2.0586,2.038,1.994,1.9428,1.987,1.9671,1.9092,1.9819,2.0065,1.9871,1.9421,1.9248,1.8995,1.7486,1.6817,1.6553,1.5663,1.5117,1.5034,1.5785,1.546,1.4612,1.3972,1.3203,1.2416,1.1923,1.1779,1.1887,1.2434,1.3817,1.5234,1.6009,1.8451,2.0798,2.136,2.3695,2.6623,2.9727,3.1605,3.3092,3.4386,3.338,3.1902,3.0441,2.9134,2.8393,2.8569,3.0373,3.1815,3.2318,3.2371,3.2431,3.2574,3.0865,2.9528,2.8879,2.6792,2.4622,2.24,2.0461,1.5532,0.7218,1.124,1.1392,0.7275,1.2682,1.6753,1.9546,1.9253,1.9548,1.4468,1.5076,1.6051,1.6467,1.6218,1.5939,1.618,1.6488,1.7157,1.8593,2.0337,2.2074,2.3606,1.6569,1.0528,1.0621,0.4237,-0.2145,-0.6253,-0.5507,-0.564,-0.8387,-0.912,-0.869,-0.6985,-0.5761,-0.4473,-0.3145,-0.2781,-0.2648,-0.2467,-0.0934,0.1487,0.4799,0.692,1.0366,1.5396,1.7003,1.8541,1.9947,1.9448,1.9624,2.0405,2.0146,1.9603,1.8835,1.9236,1.9176,1.8786,1.9267,1.9519,1.9493,1.9126,1.8688,1.8084,1.638,1.5161,1.4234,1.2923,1.2229,1.2303,1.4222,1.4198,1.3287,1.2561,1.1487,1.0327,0.9357,0.8514,0.7835,0.7524,0.8257,0.9212,0.9655,1.1414,1.3405,1.4832,1.7733,2.16,2.6753,2.7761,2.8404,3.0419,2.9213,2.7504,2.6004,2.503,2.3918,2.2384,2.6152,2.9287,3.0052,2.9904,2.9927,3.0327,2.8463,2.7285,2.7343,2.4821,2.2666,2.1226,1.9236,1.4986,0.8229,1.194,1.2115,0.841,1.3769,1.7312,1.9133,1.9645,2.0009,1.6579,1.7274,1.7718,1.752,1.7608,1.752,1.6767,1.7261,1.8086,1.8699,2.0364,2.2026,2.3127,2.1482,1.8273,1.3176,1.0552,0.745,0.2595,0.0035,-0.1296,-0.1187,-0.3841,-0.5791,-0.5831,-0.5101,-0.3952,-0.2242,-0.188,-0.1903,-0.251,-0.2167,-0.0,0.4315,0.6309,0.8946,1.2354,1.4671,1.6393,1.7579,1.7917,1.8552,1.9421,1.8503,1.8047,1.8,1.9071,1.9101,1.8475,1.9461,1.9483,1.8731,1.7969,1.704,1.5866,1.4407,1.3168,1.2028,1.0722,1.0021,0.9965,1.1751,1.1974,1.1471,1.1054,1.0149,0.8976,0.7848,0.6655,0.5492,0.4352,0.4265,0.4324,0.3757,0.5045,0.6559,0.7318,1.1318,1.5924,1.9914,2.1857,2.3412,2.4996,2.4471,2.3568,2.2736,2.1216,2.0144,2.0059,2.3702,2.6371,2.6621,2.6863,2.7133,2.7469,2.6539,2.5373,2.4027,2.197,2.0076,1.8377,1.6426,1.2588,0.6623,1.0542,1.1077,0.7931,1.2484,1.6261,1.9166,1.8565,1.8942,1.7073,1.7898,1.8635,1.8459,1.8591,1.8542,1.7611,1.7865,1.8444,1.8927,2.0421,2.199,2.3142,2.3358,2.2622,2.0374,2.0521,1.9097,1.3888,1.1826,0.9261,0.495,0.1654,-0.0857,-0.2475,-0.2337,-0.1879,-0.0953,-0.0259,-0.0264,-0.1383,-0.1426,-0.0479,0.1695,0.354,0.5832,0.8718,1.1494,1.3891,1.5839,1.6343,1.7181,1.832,1.738,1.7088,1.741,1.8115,1.8098,1.7647,1.803,1.781,1.7113,1.6262,1.5257,1.4132,1.2748,1.1353,0.9868,0.8413,0.7852,0.7894,0.7982,0.8769,0.9674,0.9415,0.875,0.7778,0.652,0.516,0.3782,0.2503,0.1773,0.1161,0.0615,0.1402,0.2547,0.3534,0.612,0.9216,1.2464,1.4596,1.6442,1.8245,1.8528,1.8385,1.8108,1.7199,1.6623,1.6859,1.9464,2.1902,2.3533,2.4215,2.4535,2.4515,2.4094,2.2923,2.0834,2.0346,1.912,1.6817,1.5699,1.3288,0.9411,1.2523,1.307,1.0837,1.4772,1.7369,1.8693,1.8716,1.904,1.7487,1.8265,1.9243,1.9399,1.9444,1.9273,1.8687,1.8513,1.8562,1.8809,2.0232,2.1699,2.2781,2.3678,2.4782,2.6365,2.8147,2.7916,2.3792,2.2421,1.9016,1.1357,0.7212,0.3934,0.1239,0.1026,0.1204,0.1588,0.2087,0.1632,-0.0091,-0.0761,-0.1062,-0.1049,0.0379,0.2372,0.4939,0.8043,1.088,1.3606,1.4235,1.532,1.6772,1.6165,1.6109,1.6502,1.6895,1.6811,1.6467,1.6256,1.589,1.5308,1.4467,1.3446,1.2338,1.0981,0.9351,0.7597,0.6113,0.5596,0.5474,0.4522,0.5868,0.7828,0.7646,0.7203,0.6493,0.5084,0.3687,0.2252,0.0898,-0.0237,-0.1177,-0.1658,-0.1354,-0.0546,0.0793,0.1822,0.3322,0.6307,0.8216,1.0055,1.2178,1.3125,1.3641,1.3726,1.3632,1.3581,1.3759,1.5403,1.7453,1.975,2.1334,2.2181,2.1953,2.1814,2.0797,1.8635,1.9216,1.8614,1.6351,1.6082,1.5287,1.3807,1.5559,1.5879,1.4709,1.7373,1.8479,1.8086,1.9025,1.9292,1.8955,1.923,1.9714,2.0375,2.0202,1.9866,1.99,1.9307,1.8576,1.7967,1.9366,2.0823,2.1249,2.2847,2.462,2.6197,2.78,2.8855,2.876,2.5777,2.2346,1.9075,1.2596,0.721,0.4218,0.4224,0.5114,0.6661,0.5513,0.3498,0.0626,-0.1772,-0.2881,-0.2536,-0.2333,-0.1043,0.1264,0.4276,0.7111,0.97,1.113,1.2637,1.4245,1.4479,1.454,1.4529,1.5684,1.5646,1.4761,1.5101,1.466,1.3732,1.2868,1.162,1.0126,0.8665,0.6872,0.51,0.3972,0.2968,0.23,0.2736,0.4241,0.5832,0.5623,0.5372,0.479,0.3205,0.1962,0.0646,-0.1262,-0.2289,-0.3034,-0.3964,-0.4088,-0.3637,-0.2431,-0.1513,-0.0,0.3184,0.4895,0.6483,0.8758,0.9969,1.0723,1.1014,1.1256,1.1394,1.1427,1.3059,1.4192,1.417,1.778,2.025,2.0391,2.0343,1.9756,1.8483,1.8221,1.7896,1.747,1.7547,1.7903,1.8559,1.8415,1.8319,1.8227,1.8069,1.7877,1.7684,1.8808,1.9081,1.9303,1.9804,2.0314,2.0281,2.0376,2.0354,1.9762,1.9103,1.8464,1.7879,1.8882,2.0001,2.0423,2.2249,2.4226,2.5935,2.7102,2.82,2.9384,2.7344,2.4579,2.1503,1.7974,1.3939,0.9228,0.8455,0.8065,0.7838,0.6454,0.4196,0.0821,-0.2049,-0.4042,-0.5179,-0.5196,-0.4179,-0.214,0.0986,0.3818,0.6512,0.8458,1.0405,1.2417,1.2731,1.338,1.4262,1.4438,1.4374,1.4086,1.3443,1.2849,1.2236,1.1205,1.0114,0.8944,0.7647,0.6147,0.4528,0.3329,0.2307,0.1457,0.1736,0.318,0.4923,0.5035,0.548,0.5744,0.4552,0.2933,0.1139,-0.0324,-0.1639,-0.2695,-0.35,-0.3406,-0.2983,-0.2167,-0.3115,-0.3308,-0.0509,0.0663,0.1942,0.4187,0.591,0.7373,0.8514,0.8848,0.919,0.9972,1.1547,1.2665,1.2881,1.5991,1.777,1.7109,1.7936,1.7713,1.5995,1.6885,1.7354,1.7117,1.7712,1.8319,1.888,1.8897,1.8628,1.8031,1.7954,1.7769,1.7507,1.8699,1.9062,1.962,2.0099,2.0585,2.0423,2.0458,2.0395,1.9823,1.8954,1.8128,1.7609,1.8167,1.8935,1.9564,2.1201,2.3142,2.5199,2.6263,2.7308,2.8759,2.8353,2.6591,2.3099,2.1327,1.8456,1.3571,1.1838,1.0535,0.9253,0.7318,0.4838,0.1619,-0.1855,-0.4681,-0.6519,-0.6681,-0.593,-0.4133,-0.138,0.1208,0.3755,0.5721,0.8029,1.054,1.1147,1.2268,1.3657,1.3423,1.3457,1.3616,1.2415,1.1694,1.123,1.0077,0.9003,0.7948,0.6865,0.5599,0.4209,0.2954,0.1794,0.0842,0.101,0.2391,0.4133,0.494,0.585,0.6532,0.5826,0.384,0.1754,0.0779,-0.0546,-0.1716,-0.2288,-0.2216,-0.1947,-0.1794,-0.3352,-0.4171,-0.2139,-0.1415,-0.0499,0.1542,0.3244,0.4779,0.6231,0.6639,0.7098,0.8136,0.9079,0.9631,0.9523,1.2213,1.4225,1.4785,1.5551,1.5446,1.4227,1.552,1.6392,1.656,1.7371,1.7897,1.8088,1.8479,1.827,1.7419,1.7769,1.7791,1.7524,1.8556,1.909,2.0104,2.0145,2.0387,2.111,2.0484,1.9875,2.0457,1.9091,1.7535,1.6936,1.7031,1.7534,1.8529,1.9541,2.1107,2.3791,2.5285,2.6441,2.7391,2.8926,2.8559,2.4725,2.191,1.9273,1.6603,1.4037,1.2351,1.1818,0.8705,0.587,0.3587,-0.1266,-0.4511,-0.5711,-0.6236,-0.5839,-0.453,-0.2585,-0.0524,0.1553,0.2866,0.5281,0.8498,0.9825,1.1089,1.2236,1.2693,1.302,1.3137,1.2276,1.1502,1.0797,0.9743,0.8376,0.6934,0.6124,0.4966,0.3636,0.2413,0.1142,0.0112,0.0561,0.1781,0.3463,0.5259,0.6167,0.6522,0.6199,0.4216,0.2052,0.1462,0.0533,-0.033,-0.0658,-0.0936,-0.1328,-0.2055,-0.2111,-0.1779,-0.0894,-0.0559,0.0056,0.1566,0.251,0.3392,0.4106,0.4687,0.514,0.5483,0.5145,0.4216,0.2499,0.5367,0.9296,1.4015,1.3311,1.3052,1.3951,1.4147,1.4772,1.5951,1.6584,1.6828,1.6632,1.7347,1.7471,1.7023,1.7674,1.7894,1.7718,1.8389,1.9068,2.0316,1.9845,1.9584,2.0419,1.9707,1.8868,1.9101,1.8906,1.8164,1.6408,1.7165,1.8102,1.7966,1.8664,2.0049,2.2496,2.3461,2.4591,2.6542,2.8222,2.8078,2.4885,2.1051,1.812,1.6761,1.501,1.346,1.2149,1.082,0.8494,0.4968,0.2727,-0.0621,-0.5313,-0.5094,-0.4322,-0.3066,-0.1535,0.0087,0.1677,0.3147,0.527,0.7881,0.9298,1.1056,1.3107,1.3202,1.3796,1.46,1.3591,1.256,1.1556,1.0559,0.8898,0.6881,0.5745,0.4629,0.3405,0.1665,0.0314,-0.0598,-0.0611,0.0499,0.2138,0.3695,0.6273,0.8364,0.7127,0.5242,0.3254,0.1796,0.1626,0.1652,0.0991,0.1271,0.1554,0.0947,0.067,0.0614,0.067,0.0894,0.1229,0.1621,0.2068,0.2679,0.3622,0.4003,0.4381,0.4964,0.5202,0.5339,0.5281,0.5105,0.4955,0.4909,0.8755,1.0931,1.0417,1.2179,1.4072,1.5931,1.6042,1.5956,1.5724,1.5453,1.5558,1.6048,1.5712,1.6401,1.8064,1.8689,1.93,2.0526,1.9978,1.9625,2.0154,1.9583,1.8788,1.8557,1.8397,1.7822,1.6165,1.6876,1.7764,1.7655,1.8356,1.9612,2.1633,2.2615,2.3747,2.5541,2.7206,2.7271,2.4609,2.1073,1.8469,1.7477,1.6198,1.4882,1.3408,1.2404,1.0887,0.8596,0.713,0.4899,0.1565,-0.0757,-0.1478,-0.052,0.0348,0.1264,0.2361,0.4272,0.5948,0.7518,0.9224,1.1226,1.3292,1.4018,1.4906,0.0,1.4957,1.3917,1.2737,1.1581,0.9466,0.6934,0.562,0.4118,0.2528,0.0741,-0.0618,-0.1606,-0.1549,0.0055,0.2286,0.3806,0.6528,0.8886,0.8215,0.6906,0.548,0.4455,0.406,0.3646,0.2591,0.2491,0.2279,0.1114,0.1118,0.1285,0.1171,0.1783,0.2399,0.2399,0.2674,0.3118,0.3729,0.3896,0.4026,0.4129,0.3163,0.2201,0.1555,0.0737,-0.0977,-0.3964,0.3591,0.8678,0.9119,1.0824,1.2701,1.4669,1.4607,1.4494,1.4437,1.2687,1.2161,1.2879,1.3252,1.4968,1.7959,1.8634,1.9189,0.0,2.0355,2.0238,2.0295,1.9917,1.9344,1.8666,1.7776,0.0,1.6148,1.6251,1.6725,1.7467,1.8373,1.9491,2.0998,2.2429,2.3625,2.4418,2.5988,2.6262,2.4165,2.1849,1.9953,1.8733,1.7599,1.6494,1.533,1.3689,1.3062,1.369,1.1654,1.1197,1.2806,0.6173,0.2788,0.3138,0.2976,0.3207,0.368,0.5906,0.7093,0.7426,0.9595,1.1491,1.3054,1.4953,1.6186,1.6806,1.6283,1.5397,1.425,1.2765,1.0197,0.7134,0.5753,0.3571,0.109,-0.0295,-0.169,-0.2828,-0.2268,0.0055,0.3079,0.4915,0.6751,0.8386,0.933,0.8945,0.8273,0.8607,0.7419,0.5756,0.396,0.2808,0.1549,-0.0667,-0.0223,0.0723,0.0998,0.2384,0.3553,0.3889,0.4268,0.4481,0.4326,0.4154,0.3752,0.2866,-0.0692,-0.42,-0.7006,-0.6671,-0.7775,-1.1516,-0.1435,0.6303,0.9171,0.9933,1.0978,1.2584,1.2622,1.27,1.289,0.9581,0.813,0.8705,1.0712,1.3667,1.7434,1.8198,1.8666,2.0742,0.0,1.9551,2.0273,1.9612,1.8745,0.0,0.0,0.0,0.0,0.0,1.6535,1.6674,1.6948,1.7706,1.9443,2.0939,2.2389,2.3778,2.4873,2.5389,2.5063,2.2419,2.0374,1.97,1.8443,1.7339,1.6534,1.5772,1.5308,1.522,1.4559,1.4165,1.412,1.2499,1.0441,0.8069,0.737,0.7198,0.7393,0.7333,0.7866,0.8861,1.0164,1.1734,1.3509,1.4891,1.6205,1.7287,1.6742,1.5938,1.499,1.4341,1.1674,0.8071,0.6514,0.3524,-0.0045,-0.1725,-0.304,-0.3917,-0.3395,-0.222,-0.0496,0.1803,0.5536,0.9084,0.9427,0.8941,0.8493,0.9052,0.8639,0.7393,0.4779,0.3854,0.2977,0.0835,0.1225,0.2111,0.2607,0.4039,0.5253,0.5584,0.5692,0.5688,0.5475,0.3348,0.1218,-0.029,-0.3818,-0.6945,-0.8937,-1.019,-1.0656,-1.0206,-0.1435,0.4019,0.3934,0.8265,1.1216,1.2127,1.2584,1.2516,1.1879,0.959,0.9492,1.1696,1.095,1.2638,1.6586,1.7095,1.7347,2.0623,2.0119,1.983,2.0367,1.9848,1.9124,1.8846,0.0,0.0,0.0,0.0,1.7658,1.7644,1.7993,1.8591,1.9543,2.0681,2.2023,2.366,2.4577,2.5041,2.491,2.3312,2.1948,2.1261,2.0381,1.9524,1.8713,1.8335,1.7931,1.7378,1.7497,1.7371,1.6797,1.6872,1.5129,1.1397,1.0741,1.0355,1.0166,0.9424,0.9682,1.1024,1.1513,1.284,1.4795,1.6155,1.7288,1.8121,1.7772,1.7179,1.6434,1.5485,1.28,0.9161,0.6368,0.2875,-0.0781,-0.3083,-0.4246,-0.4651,-0.4287,-0.3503,-0.2334,-0.0332,0.2934,0.645,0.852,0.8889,0.8856,0.9972,0.9688,0.8463,0.5781,0.4324,0.273,-0.0273,0.0604,0.2268,0.3314,0.5128,0.6671,0.7149,0.7362,0.6908,0.5136,0.2407,-0.0707,-0.4231,-0.8695,-1.2526,-1.5087,-1.6639,-1.7158,-1.6318,-0.8951,-0.2654,0.1381,0.5055,0.8476,1.1635,1.2147,1.1169,0.8647,0.7876,0.8266,0.9816,0.9521,1.1637,1.5942,1.6089,1.6267,2.0112,2.0169,2.0253,2.0445,2.0166,1.9707,1.9235,0.0,0.0,0.0,0.0,0.0,1.889,1.9602,2.0172,2.0133,2.1024,2.2311,2.4009,2.4802,2.5043,2.4561,2.4237,2.3734,2.2914,2.2486,2.1902,2.1003,2.0771,2.0388,1.9714,2.0077,2.011,1.9655,1.966,1.7979,1.4414,1.3687,1.31,1.2664,1.1817,1.1962,1.3114,1.317,1.4176,1.5989,1.7508,1.8419,1.8772,1.8617,1.833,1.7851,1.6383,1.388,1.0531,0.6006,0.2323,-0.0944,-0.4178,-0.5237,-0.5193,-0.4914,-0.4158,-0.3003,-0.1675,0.0223,0.2826,0.6903,0.83,0.8912,1.0663,1.0261,0.8792,0.6539,0.4621,0.2325,-0.139,0.0108,0.2579,0.4107,0.6245,0.8072,0.8738,0.8926,0.7701,0.3942,0.0859,-0.3153,-0.9073,-1.4729,-1.9481,-2.287,-2.4188,-2.4903,-2.5127,-1.9406,-1.1666,-0.1907,0.117,0.5379,1.1549,1.1844,1.0132,0.6509,0.6556,0.6989,0.7714,0.8244,1.0929,1.5533,1.5231,1.5147,1.8314,1.8827,1.9567,2.0305,1.9812,1.9314,1.9941,1.9495,0.0,0.0,0.0,0.0,1.7907,1.8638,1.9239,1.9356,2.123,2.3318,2.5104,2.5357,2.5407,2.5482,2.4758,2.4141,2.3883,2.3053,2.2391,2.2082,2.1666,2.143,2.1424,2.1081,2.0798,2.068,2.0297,1.9685,1.8834,1.6958,1.5752,1.5283,1.4404,1.3779,1.3548,1.4217,1.4862,1.5562,1.665,1.7546,1.8205,1.8028,1.7996,1.7997,1.7204,1.5411,1.2584,0.6789,0.311,0.0352,-0.4491,-0.5957,-0.5582,-0.49,-0.3987,-0.2905,-0.1845,-0.0223,0.1831,0.4497,0.6158,0.76,0.9673,0.9252,0.7939,0.6423,0.5366,0.42,0.2511,0.3655,0.5449,0.677,0.8214,0.9547,1.045,0.971,0.7259,0.2127,-0.2549,-0.8242,-1.5861,-2.157,-2.6035,-2.8955,-3.0176,-3.0552,-3.0004,-2.6584,-2.0961,-1.2719,-0.2269,0.6467,1.2936,1.2768,1.2387,1.2054,0.9757,1.0254,1.367,1.0526,1.1287,1.5641,1.4588,1.3333,1.7789,1.7887,1.8154,1.9474,1.9773,1.9852,2.0264,2.0026,1.9716,0.0,1.9412,1.9109,1.9154,1.949,1.9939,2.0518,2.2346,2.3992,2.4782,2.5251,2.5567,2.5685,2.5292,2.4985,2.4916,2.4377,2.3973,2.3765,2.335,2.2977,2.2638,2.2409,2.1876,2.0948,2.0779,2.0484,1.9893,1.892,1.8061,1.7361,1.5686,1.5119,1.5579,1.4955,1.5388,1.6589,1.7426,1.8143,1.8727,1.8654,1.853,1.8333,1.7524,1.5938,1.3387,0.7232,0.3071,-0.0,-0.3478,-0.4596,-0.4434,-0.39,-0.3276,-0.2503,-0.1778,-0.0167,0.1835,0.3938,0.5567,0.7052,0.8632,0.9113,0.9034,0.812,0.6943,0.6199,0.7062,0.6753,0.7006,0.94,1.0328,1.0906,1.1747,0.8678,0.4641,0.0157,-0.6817,-1.4193,-2.1466,-2.6677,-3.0773,-3.3603,-3.4055,-3.3826,-3.2951,-2.9513,-2.2194,-1.0079,0.0163,0.8153,1.354,1.4229,1.4568,1.4745,1.3102,1.3115,1.4898,1.2338,1.2375,1.4742,1.276,1.1972,1.7127,1.6987,1.7023,1.8514,1.9365,1.9929,2.0304,2.0363,2.0355,2.046,2.0394,2.0391,2.0643,2.0842,2.1298,2.224,2.3503,2.4436,2.4573,2.5182,2.5641,2.5696,2.5642,2.5601,2.5589,2.544,2.5254,2.503,2.4659,2.4155,2.3454,2.3259,2.2554,2.1202,2.1106,2.0823,2.0316,2.0259,1.9677,1.8541,1.6923,1.6509,1.7156,1.5854,1.6159,1.7697,1.8252,1.8832,1.9338,1.9398,1.9124,1.8507,1.7687,1.5587,1.2488,0.7784,0.384,0.0586,-0.0996,-0.1383,-0.119,-0.1139,-0.0769,-0.031,0.0054,0.1363,0.3092,0.4539,0.5723,0.6732,0.7612,0.8528,0.9174,0.8991,0.8078,0.7884,1.0164,0.9242,0.8813,1.1654,1.2162,1.2289,1.2956,0.8018,0.2549,-0.159,-1.0046,-1.8442,-2.5348,-2.9894,-3.3375,-3.5753,-3.5785,-3.4798,-3.2692,-2.8671,-2.0412,-0.6768,0.1503,0.8084,1.3075,1.5081,1.6172,1.6332,1.58,1.555,1.5596,1.4142,1.3684,1.408,1.183,1.134,1.5469,1.6035,1.6835,1.7767,1.8046,1.8496,2.0057,2.0401,2.0399,2.0411,2.0402,2.0613,2.1374,2.2169,2.3027,2.3972,2.4222,2.4596,2.5391,2.5605,2.5684,2.5698,2.5696,2.5648,2.5531,2.5498,2.5346,2.5012,2.4733,2.4351,2.3787,2.2944,2.2298,2.1937,2.1147,2.0932,2.1281,2.0986,2.0034,1.8523,1.8712,1.8139,1.6863,1.7144,1.7608,1.8165,1.8466,1.8897,1.9428,1.9719,1.9258,1.8264,1.7716,1.4046,0.9066,0.8681,0.6686,0.4077,0.3571,0.4278,0.5294,0.4554,0.4833,0.5371,0.5171,0.5631,0.6221,0.6281,0.6354,0.6436,0.664,0.6494,0.6498,0.7205,0.797,0.8895,0.9994,1.0906,1.191,1.3135,1.349,1.3747,1.4437,0.9098,0.2793,-0.2888,-1.0793,-1.8848,-2.6497,-3.0366,-3.2798,-3.3805,-3.4491,-3.2624,-2.7105,-2.2823,-1.7205,-0.9664,-0.2595,0.4235,1.0849,1.4506,1.6668,1.7285,1.7185,1.7415,1.7959,1.6162,1.5048,1.4523,1.3346,1.1801,1.5508,1.6367,1.7497,1.7818,1.8301,0.0,0.0,2.0451,2.0455,2.0467,2.0936,2.1484,2.1944,2.2987,2.3796,2.3911,2.4593,2.5219,2.5544,2.5664,2.5699,2.5697,2.5671,2.5593,2.5518,2.5467,2.5376,2.519,2.4891,2.4339,2.3399,2.2743,2.2094,2.1461,2.0917,2.0623,2.0595,2.0794,2.0201,1.88,1.9142,1.868,1.7559,1.7866,1.8198,1.8535,1.9008,1.9462,1.984,2.0053,1.9606,1.8736,1.8021,1.6396,1.4332,1.3648,1.2041,1.0059,0.9261,0.8534,0.7922,0.8069,0.8095,0.8077,0.8173,0.8557,0.8775,0.8233,0.834,0.8238,0.6365,0.6558,0.74,0.7933,0.8732,0.9983,1.2119,1.2513,1.2903,1.4485,1.5239,1.555,1.5454,0.8149,0.1232,-0.1929,-1.1495,-2.0068,-2.4927,-2.745,-2.9313,-3.0645,-2.9114,-2.6134,-2.1433,-1.9549,-1.585,-0.9301,-0.1834,0.4643,0.9865,1.5426,1.835,1.8281,1.8208,1.8164,1.8127,1.6777,1.6129,1.6101,1.4034,1.3382,1.5935,1.6797,1.8003,1.8549,0.0,0.0,2.0974,2.1091,2.0906,2.0919,2.1764,2.2605,2.2878,2.3872,2.4556,2.4305,2.4992,2.557,2.5598,2.5664,2.5694,2.5707,2.5657,2.5515,2.5187,2.5079,2.4891,2.4552,2.4247,2.3695,2.2837,2.2337,2.1868,2.1409,2.1017,2.0887,2.1011,2.1179,2.0639,1.9381,1.9486,1.9109,1.8349,1.8212,1.8476,1.9095,1.9469,1.985,2.0192,2.0279,1.9821,1.9013,1.82,1.7908,1.7808,1.7051,1.617,1.5225,1.4277,1.3262,1.2361,1.2361,1.2198,1.1975,1.1659,1.1647,1.1522,1.0537,1.0383,1.0038,0.776,0.7972,0.8856,0.9044,0.9976,1.1478,1.3905,1.408,1.4317,1.6098,1.6933,1.707,1.607,0.8505,0.1791,-0.0596,-1.0105,-1.7915,-2.0353,-2.22,-2.3549,-2.4202,-2.1955,-1.8803,-1.4677,-1.4434,-1.218,-0.6873,0.0374,0.5919,0.9086,1.5613,1.9027,1.8715,1.8911,1.886,1.852,1.7555,1.7062,1.6935,1.5054,1.4871,1.6613,1.7204,1.8242,1.9974,0.0,1.9818,2.2411,2.2377,2.1806,2.1812,2.2929,2.3983,2.4266,2.4911,2.5414,2.5493,2.5496,2.5524,2.5599,2.5664,2.5698,2.5694,2.5693,2.5362,2.4506,2.4274,2.3811,2.2881,2.2623,2.2381,2.2106,2.1654,2.1581,2.1994,2.1559,2.1861,2.298,2.2393,2.1452,2.0189,1.99,1.9538,1.9047,1.8189,1.8576,1.9881,1.9754,1.9979,2.039,2.0332,1.9837,1.9036,1.8244,1.794,1.7952,1.801,1.8552,1.9101,1.8258,1.8723,1.9447,1.776,1.7593,1.7712,1.5957,1.5174,1.4619,1.3214,1.2332,1.1692,1.117,1.0832,1.0565,1.0212,1.1606,1.3461,1.5068,1.5691,1.6362,1.7907,1.856,1.8193,1.6235,1.0675,0.5072,0.0877,-0.6271,-1.1534,-1.2585,-1.4676,-1.551,-1.402,-1.3221,-1.1029,-0.6653,-0.6618,-0.5504,-0.2413,0.3808,0.7705,0.8379,1.4683,1.8289,1.8478,1.9269,1.9594,1.9405,1.8741,1.7832,1.672,1.6606,1.614,1.7678,1.8574,1.983,2.034,2.0691,2.1289,2.2683,2.2388,2.1969,2.2591,2.3538,2.447,2.5152,2.5411,2.5547,2.557,2.5561,2.558,2.5595,2.5664,2.5689,2.5639,2.5672,2.5577,2.5278,2.4608,2.4068,2.374,2.3007,2.2502,2.2318,2.212,2.2207,2.261,2.2589,2.2374,2.2029,2.2022,2.1308,1.9904,1.873,1.7956,1.7585,1.8317,1.8778,1.9027,1.9742,2.0121,2.0258,2.0281,2.018,2.0009,1.9807,2.0094,2.0646,2.0667,2.122,2.1893,2.1533,2.1168,2.0805,2.057,1.9624,1.849,1.8021,1.7242,1.6279,1.5211,1.4577,1.4216,1.3963,1.3935,1.3669,1.2508,1.2995,1.4337,1.644,1.6731,1.7065,1.855,1.9468,1.926,1.6935,1.1378,0.6135,0.2735,-0.4125,-0.8429,-0.6929,-0.6837,-0.5888,-0.3183,-0.3273,-0.2945,-0.1304,0.1422,0.2698,0.1928,0.8754,1.1341,0.7914,1.4128,1.7862,1.8351,1.8787,1.9106,1.9331,1.9413,1.9248,1.8865,1.8408,1.8117,1.8568,1.9663,2.0975,2.1018,2.1636,2.2481,2.332,2.3065,2.2821,2.348,2.4293,2.4934,2.5115,2.5396,2.5593,2.5609,2.5593,2.5598,2.5605,2.5629,2.5658,2.5601,2.5327,2.4981,2.4603,2.372,2.3008,2.2581,2.2017,2.1769,2.195,2.1918,2.2289,2.3153,2.29,2.2626,2.2403,2.1822,2.0921,1.9734,1.8119,1.7016,1.646,1.7769,1.864,1.9146,1.9792,2.006,2.0042,2.0169,2.0269,2.0359,2.0798,2.1308,2.1804,2.2178,2.2544,2.2842,2.2685,2.2198,2.1657,2.1697,2.0692,1.9428,1.9059,1.8004,1.6872,1.632,1.5777,1.5381,1.5637,1.5921,1.5874,1.4617,1.4661,1.5559,1.7633,1.7715,1.784,1.942,2.0014,1.8976,1.4927,1.0821,0.6454,0.1538,-0.1774,-0.2559,0.0696,0.2539,0.4473,0.6868,0.5212,0.3988,0.4254,0.6021,0.662,0.551,1.0567,1.2059,0.8757,1.4061,1.7231,1.7579,1.799,1.836,1.8734,1.8354,1.8184,1.8259,1.8064,1.8118,1.9322,2.0438,2.1618,2.1753,2.2498,2.338,2.4233,2.423,2.4121,2.4346,2.5022,2.5312,2.4459,2.5,2.5581,2.5605,2.5605,2.5599,2.56,2.5595,2.56,2.5582,2.4813,2.4018,2.329,2.222,2.1263,2.0481,2.0346,2.0629,2.1382,2.1442,2.2158,2.3705,2.2855,2.271,2.3391,2.1619,2.0297,1.9422,1.7812,1.6638,1.5931,1.6933,1.8269,1.9868,1.9863,1.9839,1.9817,2.0011,2.0182,2.0416,2.1333,2.1803,2.2045,2.2779,2.2919,2.2699,2.2376,2.2278,2.221,2.1684,2.1081,2.0358,1.9277,1.7909,1.6736,1.6812,1.6185,1.5674,1.6478,1.7024,1.7233,1.6586,1.6427,1.6907,1.8679,1.8573,1.8607,2.0133,1.9672,1.7113,1.0974,0.8733,0.5397,-0.1663,0.0413,0.4451,0.9107,1.2197,1.4381,1.5479,1.2112,0.9623,0.9309,0.7948,0.7385,0.8151,0.9743,1.0443,0.9875,1.3779,1.5984,1.6027,1.6432,1.6825,1.7178,1.5723,1.5159,1.5486,1.5973,1.6462,2.0224,2.0475,2.0937,2.1627,2.2771,2.4001,2.5074,2.532,2.5146,2.4528,2.4963,2.5219,2.443,2.4929,2.5483,2.5574,2.5598,2.5592,2.5593,2.5591,2.5574,2.5537,2.4754,2.4399,2.4844,2.285,2.1698,2.2133,2.0957,2.0833,2.2253,2.2422,2.3208,2.4812,2.4151,2.3164,2.1894,2.0643,1.9192,1.7573,1.693,1.6871,1.7343,1.7207,1.8053,1.96,1.9585,1.9643,1.9726,1.9873,2.0442,2.1259,2.1572,2.2566,2.3725,2.2987,2.3492,2.4385,2.3239,2.2887,2.2937,2.2598,2.1508,2.01,1.9016,1.8153,1.7454,1.7086,1.7095,1.7243,1.7418,1.7857,1.8232,1.8243,1.784,1.7852,1.9168,1.9044,1.8563,1.8259,1.5167,1.1421,0.7659,0.2781,-0.1118,-0.2722,0.0795,0.5943,1.2499,1.5791,1.7771,1.8485,1.5807,1.2729,0.9538,0.843,0.7744,0.762,0.8105,0.7822,0.6476,0.9602,1.1663,1.2414,1.1322,1.1058,1.1695,1.1471,1.1642,1.2224,1.2913,1.3722,2.0027,2.051,2.1399,2.2522,2.314,2.3837,2.527,2.5619,2.5525,2.5073,2.5193,2.5158,2.4384,2.4846,2.5385,2.5498,2.5496,2.5516,2.5556,2.5556,2.5518,2.5456,2.4643,2.4231,2.4591,2.3026,2.1981,2.1985,2.1626,2.1742,2.2569,2.3111,2.3964,2.5165,2.4044,2.2753,2.1329,1.9754,1.8402,1.7284,1.6255,1.6241,1.7107,1.7745,1.8687,1.9808,1.9328,1.9696,2.0641,2.0326,2.0913,2.2048,2.2628,2.3439,2.4225,2.3903,2.4139,2.4389,2.3148,2.2617,2.2423,2.1926,2.0803,1.9579,1.9174,1.8284,1.7449,1.79,1.7933,1.7922,1.8247,1.8712,1.8997,1.8411,1.8185,1.8501,2.0067,1.8999,1.7307,1.582,1.1479,0.6455,0.1373,-0.3683,-0.6153,-0.3549,0.1415,0.7941,1.6405,1.8689,2.0291,2.2208,1.8458,1.3918,0.9191,0.8243,0.7044,0.5116,0.4166,0.3029,0.1511,0.1497,0.3732,0.837,0.7405,0.7303,0.8223,0.7528,0.7691,0.872,0.996,1.1314,1.9257,2.0154,2.1616,2.2965,2.2935,2.3106,2.5132,2.5454,2.5371,2.5551,2.5463,2.5177,2.4538,2.4883,2.5313,2.5391,2.5421,2.5454,2.5492,2.5498,2.5488,2.541,2.4561,2.4014,2.4018,2.3096,2.2239,2.1663,2.2263,2.2689,2.2795,2.3581,2.4394,2.5149,2.3473,2.2117,2.1191,1.8924,1.7604,1.7203,1.5809,1.5676,1.6659,1.8182,1.9345,2.0101,1.927,1.9939,2.1605,2.0937,2.1461,2.2764,2.3707,2.4135,2.4269,2.4515,2.4358,2.3828,2.2544,2.196,2.1699,2.1076,2.016,1.9359,1.938,1.8429,1.7605,1.8808,1.8697,1.8314,1.8936,1.9502,1.9569,1.7988,1.8222,1.916,2.0508,1.8468,1.5534,1.2591,0.6602,-0.0154,-0.7086,-1.0075,-0.9695,-0.4318,0.1949,0.959,1.9311,2.038,2.1409,2.4437,1.9292,1.3388,0.7796,0.6673,0.4787,0.1273,-0.0948,-0.2769,-0.4166,-0.6813,-0.4861,0.2246,0.2293,0.2808,0.4028,0.296,0.3287,0.4927,0.6922,0.8692,1.8203,1.8687,1.9477,2.0659,2.088,2.1666,2.4871,2.4837,2.4418,2.5395,2.5404,2.5245,2.5309,2.5267,2.5245,2.5374,2.5505,2.5564,2.551,2.5498,2.5471,2.541,2.4571,2.4234,2.4877,2.3391,2.2653,2.3237,2.2809,2.2829,2.3524,2.3755,2.4201,2.5012,2.3343,2.1998,2.1113,1.8071,1.6252,1.5687,1.5745,1.6509,1.7858,1.8226,1.897,1.9932,1.9741,2.0325,2.1441,2.1388,2.2166,2.3396,2.377,2.4277,2.4607,2.3129,2.3199,2.3712,2.1643,2.15,2.213,2.1645,2.1147,2.0483,1.9001,1.8816,1.9001,1.8833,1.8883,1.9073,1.929,1.9959,2.002,1.7876,1.8885,2.0021,1.8928,1.7044,1.3762,0.7658,-0.3031,-1.2762,-1.8111,-1.5513,-1.0817,-0.5333,0.1415,0.9332,1.8703,1.9295,1.9475,2.1093,1.6052,1.0174,0.4213,0.1907,-0.0715,-0.4316,-0.6561,-0.8308,-0.9583,-1.0628,-1.0716,-0.9879,-0.8172,-0.6551,-0.5157,-0.3899,-0.203,0.0451,0.342,0.4814,1.8593,1.8765,1.9071,2.0217,2.0945,2.1886,2.3728,2.4519,2.4991,2.5493,2.5449,2.5329,2.5434,2.5316,2.5234,2.5329,2.5464,2.5712,2.6204,2.6243,2.6371,2.6809,2.5996,2.5477,2.5704,2.4549,2.3731,2.3615,2.3822,2.3871,2.367,2.372,2.3846,2.4091,2.2271,2.0728,1.9606,1.7298,1.5699,1.4857,1.5786,1.6625,1.7335,1.783,1.8666,1.9671,1.952,2.0379,2.1857,2.1922,2.2865,2.4247,2.4488,2.4806,2.4974,2.3818,2.3506,2.352,2.2003,2.1584,2.1678,2.1333,2.1071,2.0723,1.9861,1.9539,1.9529,1.9621,1.9431,1.9313,1.9819,2.0504,2.0499,1.8085,1.9882,2.1389,1.8753,1.6445,1.1365,-0.058,-1.0837,-1.8598,-2.1838,-1.8986,-1.3793,-0.6599,0.13,0.8826,1.561,1.9165,1.9579,1.574,1.0293,0.5014,0.0344,-0.193,-0.4436,-0.7611,-1.0299,-1.2305,-1.3589,-1.4808,-1.5359,-1.5332,-1.18,-0.947,-0.8415,-0.6785,-0.4918,-0.2863,-0.0701,0.1036,1.8925,1.8923,1.8876,2.0155,2.1391,2.246,2.3068,2.4251,2.5376,2.5844,2.5657,2.5486,2.5712,2.5487,2.5274,2.5339,2.5456,2.5855,2.6762,2.6862,2.711,2.7909,2.7123,2.6447,2.6243,2.5441,2.4633,2.3959,2.4638,2.4753,2.3971,2.3777,2.3585,2.3344,2.1472,1.9868,1.8569,1.6691,1.5268,1.4347,1.5616,1.6356,1.666,1.7636,1.8529,1.9263,1.9441,2.0528,2.2206,2.2536,2.3455,2.4727,2.4979,2.5075,2.4983,2.4349,2.3863,2.34,2.245,2.1902,2.1573,2.1306,2.1133,2.0962,2.0586,2.0041,1.9593,1.9924,1.9481,1.9133,2.0049,2.0391,1.9997,1.7841,1.9617,2.1043,1.8275,1.4026,0.6685,-0.7114,-1.6131,-2.21,-2.4085,-2.1716,-1.7059,-0.9763,-0.2095,0.4664,0.9755,1.4112,1.4738,0.9522,0.433,-0.0184,-0.3878,-0.5621,-0.7866,-1.0885,-1.3224,-1.5079,-1.6321,-1.7378,-1.779,-1.7577,-1.374,-1.1427,-1.0682,-0.8849,-0.7013,-0.5255,-0.3678,-0.1978,1.8535,1.8591,1.8344,1.9992,2.1633,2.3018,2.3611,2.4025,2.476,2.649,2.6129,2.5757,2.6563,2.599,2.541,2.549,2.5556,2.589,2.6782,2.6909,2.7162,2.7912,2.7171,2.6529,2.632,2.5513,2.4921,2.4752,2.4888,2.4947,2.4842,2.4104,2.3531,2.3115,2.1541,2.0127,1.8975,1.6372,1.4749,1.4136,1.5038,1.5796,1.647,1.7966,1.8618,1.8618,1.9819,2.104,2.226,2.3232,2.3946,2.4464,2.485,2.4786,2.436,2.3772,2.3562,2.3447,2.251,2.231,2.2405,2.2197,2.1933,2.151,2.0662,1.9916,1.9302,1.9139,1.8595,1.8355,1.9581,1.905,1.7871,1.6583,1.7008,1.7478,1.6655,0.8093,-0.1703,-0.9327,-1.7754,-2.4401,-2.6783,-2.3957,-2.0073,-1.625,-1.1281,-0.5828,0.0144,0.0187,0.0478,0.2557,-0.0952,-0.4876,-0.8445,-0.9689,-1.1716,-1.4915,-1.5661,-1.6404,-1.7269,-1.7066,-1.6927,-1.7021,-1.547,-1.433,-1.3671,-1.1184,-0.8813,-0.6548,-0.4637,-0.362,1.8118,1.8142,1.8304,2.0024,2.1651,2.3018,2.365,2.4444,2.5226,2.5917,2.5795,2.566,2.597,2.5714,2.5493,2.5556,2.5613,2.5974,2.6832,2.6926,2.7186,2.7969,2.7243,2.6593,2.6438,2.5137,2.4264,2.4163,2.4157,2.3871,2.3201,2.2844,2.2135,2.0951,1.9571,1.8065,1.6442,1.4839,1.4201,1.4537,1.4685,1.5464,1.6819,1.7698,1.8464,1.9096,2.059,2.151,2.2048,2.3257,2.4041,2.4476,2.4685,2.4781,2.4773,2.4217,2.3975,2.3845,2.3291,2.2807,2.244,2.2552,2.2484,2.223,2.1663,2.0933,2.0231,1.9661,1.8873,1.835,1.9046,1.8273,1.6798,1.4803,1.2654,1.0646,0.9208,0.1121,-0.7607,-1.3546,-1.9763,-2.4629,-2.6453,-2.4791,-2.1566,-1.669,-1.1668,-0.739,-0.4365,-0.1577,-0.0975,-0.3887,-0.7862,-1.0527,-1.1015,-1.202,-1.3139,-1.4405,-1.4402,-1.4658,-1.5361,-1.5519,-1.5529,-1.5423,-1.495,-1.4383,-1.372,-1.2054,-1.0426,-0.8868,-0.7946,-0.6942,1.8568,1.8202,1.8101,2.0018,2.1554,2.277,2.3392,2.4341,2.5286,2.5902,2.5795,2.5664,2.5865,2.5602,2.539,2.5506,2.5566,2.5916,2.6811,2.6909,2.7192,2.7997,2.728,2.6525,2.6121,2.4744,2.3751,2.3391,2.3303,2.2975,2.2289,2.1952,2.1014,1.9378,1.8397,1.7146,1.5587,1.4574,1.433,1.4851,1.4622,1.5123,1.6302,1.742,1.8319,1.9104,2.1085,2.196,2.2094,2.3386,2.4132,2.4482,2.4567,2.4655,2.4716,2.4518,2.4251,2.3993,2.3787,2.3217,2.2556,2.2615,2.2478,2.2213,2.1908,2.1221,2.0377,1.9622,1.8632,1.7868,1.8519,1.708,1.4571,1.0938,0.6536,0.2527,0.0311,-0.4686,-1.02,-1.5229,-2.071,-2.5024,-2.6533,-2.585,-2.3645,-1.9438,-1.5517,-1.2469,-1.0875,-0.7147,-0.6066,-0.9826,-1.2364,-1.3442,-1.2587,-1.3086,-1.3386,-1.322,-1.294,-1.3043,-1.3551,-1.3995,-1.4061,-1.3821,-1.393,-1.3661,-1.2969,-1.2195,-1.1268,-1.0221,-0.9992,-0.9175,0.0,0.0,0.0,1.9906,2.1338,2.2333,2.2845,2.3656,2.4781,2.6465,2.6148,2.5735,2.631,2.5641,2.5071,2.5259,2.5313,2.5668,2.6553,2.6745,2.7064,2.7858,2.7142,2.6195,2.522,2.4334,2.3457,2.2536,2.24,2.2351,2.2325,2.1513,2.0278,1.862,1.823,1.7595,1.6652,1.5681,1.5143,1.4991,1.4806,1.4747,1.4906,1.7163,1.826,1.8572,2.1239,2.2368,2.2482,2.3642,2.4255,2.4432,2.4549,2.4372,2.4081,2.451,2.4352,2.3924,2.3959,2.3433,2.2681,2.231,2.174,2.1228,2.1147,2.0393,1.9435,1.8687,1.7401,1.644,1.733,1.4921,1.077,0.4834,-0.1231,-0.6417,-0.931,-0.9183,-0.9861,-1.4357,-2.0634,-2.5674,-2.7238,-2.7089,-2.6309,-2.4959,-2.3424,-2.1655,-1.9584,-1.7369,-1.5729,-1.5077,-1.4104,-1.3378,-1.3032,-1.2939,-1.2478,-1.1583,-1.1508,-1.1647,-1.1983,-1.244,-1.2599,-1.2437,-1.2641,-1.2374,-1.166,-1.1669,-1.1228,-1.0374,-1.0439,-1.002,1.9545,0.0,0.0,0.0,0.0,0.0,2.2073,2.3228,2.4436,2.4926,2.4758,2.4521,2.4542,2.3662,2.2853,2.2542,2.3445,2.4114,2.3926,2.3952,2.4114,2.4374,2.4148,2.3829,2.3496,2.2633,2.1961,2.167,2.1481,2.1149,2.063,1.9888,1.8981,1.7841,1.7057,1.6276,1.5475,1.5475,1.5252,1.4794,1.5116,1.5309,1.5423,1.7082,1.8194,1.8954,2.0998,2.1953,2.2174,2.3841,2.4607,2.4771,2.4698,2.4685,2.4659,2.412,2.4158,2.4342,2.3328,2.2327,2.1231,1.9687,1.8495,1.7572,1.7194,1.6073,1.4553,1.2988,1.05,0.7472,0.3644,0.2185,0.0832,-0.2656,-0.6072,-0.9372,-1.2399,-1.4737,-1.7111,-2.0137,-2.2873,-2.4808,-2.5156,-2.5566,-2.5391,-2.4,-2.3114,-2.1861,-1.9782,-1.7421,-1.5627,-1.4812,-1.2898,-1.158,-1.1226,-1.0576,-1.0072,-0.9811,-0.9547,-0.9583,-0.9986,-1.0408,-1.0645,-1.0669,-1.1049,-1.0971,-1.045,-1.1081,-1.1071,-1.0454,-0.9976,-0.9818,0.0,0.0,2.0239,1.9813,0.0,0.0,2.1736,2.2557,2.3354,2.373,2.361,2.3346,2.3026,2.2271,2.1406,2.055,2.0939,2.1626,2.2365,2.2374,2.2499,2.295,2.294,2.2728,2.2293,2.1713,2.1177,2.0762,2.0576,2.0356,1.9992,1.9677,1.9095,1.8243,1.7656,1.6932,1.6087,1.5897,1.5588,1.5168,1.5358,1.555,1.5736,1.7233,1.8237,1.8888,2.0737,2.157,2.1705,2.2887,2.347,2.3653,2.3626,2.36,2.3536,2.3054,2.286,2.2552,2.0699,1.8614,1.6387,1.4001,1.2705,1.1938,1.1298,1.0706,0.9734,0.74,0.4356,0.0661,-0.434,-0.4749,-0.4595,-0.7567,-0.9827,-1.2059,-1.4898,-1.7691,-2.0276,-2.2376,-2.3644,-2.4251,-2.3878,-2.4676,-2.4724,-2.2813,-2.2386,-2.1455,-1.9183,-1.6385,-1.4397,-1.3859,-1.141,-0.9771,-0.9609,-0.8997,-0.8498,-0.8195,-0.8034,-0.8051,-0.8306,-0.8778,-0.9172,-0.9475,-0.9322,-0.9076,-0.8738,-1.0226,-1.0789,-1.059,-1.0252,-1.0392,0.0,0.0,0.0,2.0418,2.0455,0.0,2.1562,2.1777,2.201,2.2773,2.2601,2.2169,2.1657,2.1103,2.0269,1.8921,1.8224,1.877,2.1308,2.1344,2.1542,2.2715,2.2779,2.2447,2.1688,2.1426,2.0944,2.0107,1.9911,1.9914,2.0092,2.0109,1.9784,1.9081,1.8964,1.8455,1.7481,1.6686,1.6138,1.5847,1.5666,1.5654,1.586,1.7478,1.8292,1.8574,2.0365,2.1088,2.0997,2.1154,2.1385,2.165,2.1668,2.1405,2.0978,2.0947,2.0137,1.8728,1.6189,1.2869,0.9224,0.6344,0.5196,0.4764,0.3876,0.4172,0.4155,0.0914,-0.2249,-0.5497,-0.9218,-0.865,-0.7907,-1.1121,-1.2931,-1.4579,-1.6887,-1.8825,-2.055,-2.2119,-2.3189,-2.3558,-2.2627,-2.3601,-2.3669,-2.1195,-2.1157,-2.0318,-1.7308,-1.4373,-1.2271,-1.1456,-0.8925,-0.73,-0.7224,-0.7139,-0.6769,-0.6088,-0.6431,-0.6693,-0.6612,-0.7164,-0.7721,-0.8298,-0.7454,-0.7028,-0.699,-0.9219,-1.0375,-1.0559,-1.0804,-1.1276,2.0263,2.033,2.0357,2.0452,2.0492,0.0,2.08,2.1346,2.1805,2.1815,2.1487,2.0978,2.025,1.9156,1.8041,1.7065,1.6668,1.7225,1.9284,1.9062,1.9489,2.1623,2.1763,2.1885,2.2334,2.172,2.1202,2.0956,2.0375,2.0084,2.018,1.9393,1.8683,1.8176,1.7877,1.7406,1.6725,1.7229,1.7045,1.6211,1.6582,1.6432,1.5847,1.7522,1.8278,1.8328,1.9666,2.0003,1.957,1.9521,1.9706,1.9986,1.9311,1.8286,1.6971,1.5408,1.3645,1.1662,0.88,0.5401,0.1787,-0.1127,-0.2783,-0.3782,-0.483,-0.5005,-0.5841,-1.0478,-1.3616,-1.6007,-1.7715,-1.6995,-1.5885,-1.6073,-1.6499,-1.7199,-1.832,-1.9009,-1.978,-2.106,-2.1484,-2.0937,-1.8808,-1.9415,-1.9697,-1.8155,-1.8849,-1.7411,-1.1572,-1.1028,-0.9106,-0.3637,-0.2244,-0.1241,-0.0147,-0.107,-0.137,-0.0592,-0.3166,-0.4374,-0.361,-0.4168,-0.474,-0.5143,-0.5268,-0.584,-0.6948,-0.8791,-0.9639,-0.9604,-1.058,-1.1368,2.0153,2.0307,2.0405,2.0433,2.05,0.0,0.0,2.0884,2.1093,2.084,2.0394,1.9838,1.9093,1.8125,1.7214,1.6507,1.6125,1.6686,1.8932,1.884,1.9282,2.1266,2.1778,2.1939,2.1896,2.1472,2.1039,2.0629,1.9915,1.9526,1.9558,1.8666,1.8065,1.7855,1.7655,1.7435,1.7204,1.7577,1.7474,1.6946,1.7409,1.7442,1.7102,1.8379,1.883,1.8684,1.9357,1.9311,1.8623,1.705,1.6311,1.6185,1.641,1.602,1.4883,1.0846,0.7229,0.3909,0.0926,-0.2184,-0.5334,-0.8085,-0.9063,-0.9452,-1.1054,-1.2655,-1.4441,-1.7152,-1.9204,-2.0568,-2.0479,-1.9721,-1.8741,-1.7788,-1.8068,-1.8575,-1.8758,-1.9201,-1.9288,-1.8422,-1.8589,-1.8697,-1.8232,-1.8676,-1.8586,-1.7037,-1.7182,-1.5578,-1.0386,-0.864,-0.5814,-0.048,0.1018,0.2301,0.3864,0.1924,0.0857,0.1295,-0.1569,-0.3161,-0.2783,-0.2569,-0.2704,-0.3217,-0.3698,-0.4505,-0.5641,-0.7516,-0.8742,-0.9392,-1.0245,-1.1169,2.0079,2.0231,2.0476,2.0631,2.0639,2.0648,0.0,0.0,0.0,2.0115,1.9589,1.8951,1.8193,1.7541,1.6926,1.6394,1.6202,1.6917,1.9215,1.9696,2.033,2.1716,2.2383,2.2448,2.173,2.1339,2.0776,1.9868,1.9251,1.8836,1.8661,1.7834,1.7391,1.7507,1.7575,1.7694,1.7888,1.7946,1.7965,1.7887,1.8182,1.8329,1.8416,1.9262,1.9445,1.9123,1.9191,1.8694,1.7648,1.4924,1.3107,1.2151,1.3078,1.3078,1.1862,0.6142,0.1276,-0.2975,-0.6344,-0.9086,-1.1567,-1.4222,-1.4794,-1.4771,-1.6368,-1.8699,-2.0866,-2.0877,-2.1584,-2.2048,-2.0699,-2.002,-1.938,-1.8309,-1.8802,-1.9449,-1.9139,-1.9518,-1.9278,-1.7174,-1.6694,-1.6859,-1.7554,-1.7872,-1.7483,-1.5919,-1.5494,-1.3629,-0.8813,-0.5909,-0.233,0.2837,0.4446,0.573,0.7242,0.4929,0.3246,0.2896,0.0154,-0.15,-0.1617,-0.1184,-0.1173,-0.18,-0.2657,-0.3595,-0.4618,-0.6366,-0.7874,-0.9092,-0.9938,-1.0951,2.0159,2.016,2.0457,2.1414,2.1116,2.0798,2.1585,0.0,2.0371,1.9934,0.0,1.877,1.768,0.0,0.0,1.6047,1.6916,1.8109,1.9399,2.1197,2.2682,2.3515,2.359,2.3499,2.3353,2.2083,2.0674,1.9211,1.9037,1.8624,1.7788,1.6697,1.6227,1.6469,1.698,1.7437,1.7805,1.8612,1.8997,1.8924,1.8728,1.8693,1.8771,1.9452,1.9551,1.9179,1.8947,1.7861,1.6111,1.442,1.2159,0.9703,0.9111,0.7405,0.4711,0.0043,-0.353,-0.6712,-1.1659,-1.4125,-1.5634,-1.8684,-2.0814,-2.2139,-2.1736,-2.2362,-2.2959,-2.1826,-2.1688,-2.157,-2.0228,-1.9696,-1.9437,-1.9035,-1.9458,-2.0037,-2.0402,-2.0221,-2.025,-2.1174,-1.8646,-1.5619,-1.3358,-1.3446,-1.3535,-1.2802,-1.3097,-1.031,-0.1731,-0.1541,0.1573,1.1304,1.178,1.1623,1.2226,1.103,0.9359,0.7138,0.387,0.2184,0.2603,0.1016,-0.0048,-0.0405,-0.2264,-0.3902,-0.5266,-0.6124,-0.6975,-0.7922,-0.9867,-1.1048,2.1192,2.133,2.1721,2.2247,2.1835,2.1389,2.1757,2.1143,2.034,1.98,0.0,0.0,0.0,0.0,0.0,0.0,1.7171,1.837,2.021,2.1507,2.2682,2.3772,2.4225,2.4064,2.3068,2.1603,2.0235,1.9098,1.8522,1.7717,1.6497,1.6176,1.596,1.5836,1.7356,1.83,1.8486,1.9432,1.9858,1.9796,1.9606,1.9507,1.9511,1.9875,1.9688,1.904,1.8279,1.686,1.4894,1.1818,1.0214,0.9335,0.5728,0.3138,0.0721,-0.4536,-0.9944,-1.4942,-1.6973,-1.7806,-1.8041,-1.8446,-2.0309,-2.2382,-2.2039,-2.2658,-2.3189,-2.1671,-2.1388,-2.1116,-1.9333,-1.9363,-1.969,-1.9115,-1.9802,-2.07,-2.1182,-2.0764,-2.0501,-2.121,-1.8934,-1.6411,-1.4889,-1.3958,-1.3173,-1.2472,-1.1661,-0.9261,-0.4086,-0.0919,0.3671,1.0987,1.2363,1.3097,1.395,1.199,1.0049,0.854,0.5188,0.323,0.3175,0.1905,0.0508,-0.1004,-0.2366,-0.3894,-0.5566,-0.6143,-0.6457,-0.6599,-0.829,-0.9496,2.1869,2.2116,2.2595,2.3025,2.2454,2.1867,2.2101,2.1276,2.0283,1.9736,1.9295,0.0,0.0,0.0,1.7486,1.7126,0.0,1.9005,2.0608,2.1714,2.2811,2.4087,2.4312,2.3703,2.1998,2.0688,1.9484,1.8375,1.7583,1.6574,1.5232,1.5292,1.5399,1.5435,1.7349,1.8564,1.8974,1.9933,2.0396,2.0341,2.0247,2.0179,2.0102,2.0233,1.9876,1.9141,1.8157,1.6197,1.3436,0.9901,0.8261,0.7537,0.2546,-0.0632,-0.3031,-0.8079,-1.3556,-1.8683,-2.0099,-2.0428,-2.008,-1.8931,-2.0233,-2.2251,-2.2106,-2.2641,-2.3003,-2.1507,-2.112,-2.0791,-1.9248,-1.9257,-1.9612,-1.9165,-1.9851,-2.0744,-2.1308,-2.076,-2.0495,-2.1542,-1.9182,-1.708,-1.739,-1.5344,-1.3433,-1.2637,-1.1004,-0.8695,-0.5554,-0.04,0.4891,0.9902,1.2239,1.3644,1.4125,1.2064,0.996,0.8059,0.5345,0.3378,0.236,0.1549,0.0045,-0.2234,-0.3341,-0.4565,-0.5947,-0.6175,-0.6218,-0.6067,-0.7304,-0.8107,2.168,2.1905,2.2479,2.3664,2.2876,2.201,2.287,2.1628,2.0196,1.9791,1.922,1.8608,1.8,1.8302,1.8389,1.7612,1.9184,0.0,0.0,2.209,2.3854,2.4931,2.3717,2.2087,2.0361,1.9497,1.8324,1.6618,1.6042,1.5253,1.4114,1.3683,1.4055,1.5265,1.6442,1.7656,1.8898,1.997,2.0458,2.0405,2.0463,2.0458,2.0398,2.0451,2.0183,1.9654,1.9094,1.6134,1.153,0.9572,0.6574,0.2901,-0.0552,-0.3979,-0.7379,-1.041,-1.2285,-1.4152,-1.9794,-2.1857,-2.2003,-2.1952,-2.2754,-2.3666,-2.3348,-2.3165,-2.287,-2.1635,-2.1073,-2.0754,-2.05,-1.959,-1.8869,-1.9362,-1.952,-1.9769,-2.0565,-1.9998,-2.0309,-2.3553,-1.9878,-1.7048,-1.9616,-1.6632,-1.3581,-1.273,-1.1205,-0.8273,-0.2929,0.1043,0.5282,1.0249,1.3103,1.4141,1.2851,1.2365,1.0206,0.5625,0.4596,0.2998,0.0418,-0.0416,-0.1804,-0.387,-0.5338,-0.6235,-0.6549,-0.625,-0.6417,-0.6954,-0.7481,-0.7429,2.2708,2.305,2.3553,2.4271,2.3255,2.2202,2.2714,2.1374,1.9907,1.9401,1.9074,1.8859,1.8836,1.8939,1.8979,1.8861,1.9594,2.0243,0.0,2.1875,2.2726,2.2068,2.241,2.2053,2.0395,1.944,1.8226,1.6536,1.6125,1.5202,1.3424,1.4056,1.4735,1.5341,1.6848,1.8295,1.9623,2.0152,2.0428,2.0409,2.0475,2.0482,2.0467,2.0445,2.018,1.9713,1.8732,1.4941,0.9374,0.7931,0.4719,0.0326,-0.3414,-0.8304,-1.3331,-1.3766,-1.487,-1.6531,-1.9266,-2.0416,-2.0854,-2.1639,-2.2904,-2.4014,-2.3422,-2.3023,-2.2574,-2.1636,-2.1325,-2.0994,-1.9814,-1.963,-1.9602,-1.899,-1.9087,-1.9518,-2.0327,-1.9696,-1.9793,-2.2566,-2.0237,-1.844,-2.0454,-1.8715,-1.6244,-1.3822,-1.1884,-0.9357,-0.5493,-0.0903,0.3488,0.7265,1.0521,1.2113,1.1411,1.0001,0.7865,0.4849,0.3013,0.1015,-0.1144,-0.2633,-0.4017,-0.5282,-0.6465,-0.719,-0.7448,-0.7037,-0.664,-0.6328,-0.5967,-0.5706,2.3021,2.3458,2.386,2.3974,2.2994,2.2009,2.1962,2.0705,1.9457,1.907,1.8958,1.8947,1.9017,1.9293,1.9597,1.9802,1.9993,2.0302,0.0,2.1346,2.1398,2.0431,2.1488,2.1402,1.9168,1.8643,1.7824,1.6324,1.5578,1.458,1.3176,1.3526,1.4206,1.5157,1.6189,1.7745,1.9915,1.9862,1.9977,2.0254,2.0289,2.0311,2.0351,1.9988,1.8911,1.7262,1.5637,1.1258,0.5121,0.3809,0.0985,-0.276,-0.6099,-1.0563,-1.5216,-1.5473,-1.7028,-1.9056,-1.9467,-2.0187,-2.1184,-2.2508,-2.3632,-2.4328,-2.3584,-2.3097,-2.265,-2.1901,-2.1111,-2.031,-1.9635,-1.9143,-1.8717,-1.8346,-1.8573,-1.9111,-1.998,-1.937,-1.9495,-2.2345,-2.0604,-1.9386,-2.1817,-2.0842,-1.8686,-1.5636,-1.3702,-1.1359,-0.7912,-0.3216,0.1107,0.4573,0.8055,1.0089,0.995,0.8058,0.5935,0.3659,0.1281,-0.1109,-0.3485,-0.504,-0.6293,-0.7297,-0.803,-0.8488,-0.8677,-0.773,-0.7047,-0.6523,-0.5164,-0.4491]},{"header":{"parameterUnit":"m.s-1","parameterCategory":1,"la1":30.6,"la2":29.2853,"lo1":-89.7004,"lo2":-87.6739,"dy":0.0162,"dx":0.0183,"nx":112,"ny":82,"refTime":"2023-09-11T06:00:00:Z","depth":0,"parameterNumber":3,"parameterNumberName":"V-component_of_WINDS"},"data":[0.0,0.0,0.0,0.0,0.0,0.0,0.0,0.0,0.0,0.0,0.0,0.0,0.0,0.0,0.0,0.0,0.0,0.0,0.0,0.0,0.0,0.0,0.0,0.0,0.0,0.0,0.0,0.0,0.0,0.0,0.0,0.0,0.0,0.0,0.0,0.0,0.0,0.0,0.0,0.0,0.0,0.0,0.0,0.0,0.0,0.0,0.0,0.0,0.0,0.0,0.0,0.0,0.0,0.0,0.0,0.0,0.0,0.0,0.0,0.0,0.0,0.0,0.0,0.0,0.0,0.0,0.0,0.0,0.0,0.0,0.0,0.0,0.0,0.0,0.0,0.0,0.0,0.0,0.0,0.0,0.0,0.0,0.0,0.0,0.0,0.0,0.0,0.0,0.0,0.0,1.1458,1.2039,0.9301,0.6427,0.4016,0.1178,-0.0901,-0.1955,0.0,0.0,0.0,0.0,0.0,0.0,0.0,0.0,0.0,0.0,0.0,0.0,0.0,0.0,0.0,0.0,0.0,0.0,0.0,0.0,0.0,0.0,0.0,0.0,0.0,0.0,0.0,0.0,0.0,0.0,0.0,0.0,0.0,0.0,0.0,0.0,0.0,0.0,0.0,0.0,0.0,0.0,0.0,0.0,0.0,0.0,0.0,0.0,0.0,0.0,0.0,0.0,0.0,0.0,0.0,0.0,0.0,0.0,0.0,0.0,0.0,0.0,0.0,0.0,0.0,0.0,0.0,0.0,0.0,0.0,0.0,0.0,0.0,0.0,0.0,0.0,0.0,0.0,0.0,0.0,0.0,0.0,0.0,0.0,0.0,0.0,0.0,0.0,0.0,0.0,0.0,0.0,0.0,0.0,0.0,0.0,0.0,0.0,0.0,0.0,0.0,0.0,0.0,0.0,1.2176,0.9306,0.7237,0.5508,0.4074,0.1003,-0.0541,0.0175,0.0,0.0,0.0,0.0,0.0,0.0,0.0,0.0,0.0,0.0,0.0,0.0,0.0,0.0,0.0,0.0,0.0,0.0,0.0,0.0,0.0,0.0,0.0,0.0,0.0,0.0,0.0,0.0,0.0,0.0,0.0,0.0,0.0,0.0,0.0,0.0,0.0,0.0,0.0,0.0,0.0,0.0,0.0,0.0,0.0,0.0,0.0,0.0,0.0,0.0,0.0,0.0,0.0,0.0,0.0,0.0,0.0,0.0,0.0,0.0,0.0,0.0,0.0,0.0,0.0,0.0,0.0,0.0,0.0,0.0,0.0,0.0,0.0,0.0,0.0,0.0,0.0,0.0,0.0,0.0,0.0,0.0,0.0,0.0,0.0,0.0,0.0,0.0,0.0,0.0,0.0,0.0,0.0,0.0,0.0,0.0,0.0,0.0,0.0,0.0,0.0,0.0,0.0,0.7047,0.7062,0.3337,0.2114,0.1248,0.0447,-0.3247,-0.3618,0.0791,-0.1115,0.0,0.0,0.0,0.0,0.0,0.0,0.0,0.0,0.0,0.0,0.0,0.0,0.0,0.0,0.0,0.0,0.0,0.0,0.0,0.0,0.0,0.0,0.0,0.0,0.0,0.0,0.0,0.0,0.0,0.0,0.0,0.0,0.0,0.0,0.0,0.0,0.0,0.0,0.0,0.0,0.0,0.0,0.0,0.0,0.0,0.0,0.0,0.0,0.0,0.0,0.0,0.0,0.0,0.0,0.0,0.0,0.0,0.0,0.0,0.0,0.0,0.0,0.0,0.0,0.0,0.0,0.0,0.0,0.0,0.0,0.0,0.0,0.0,0.0,0.0,0.0,0.0,0.0,0.0,0.0,0.0,0.0,0.0,0.0,0.0,0.0,0.0,0.0,0.0,0.0,0.0,0.0,0.0,0.0,0.0,0.0,0.0,0.0,0.0,0.0,0.0,0.0,0.1826,0.0724,-0.1799,-0.2802,-0.3642,-0.4468,-0.8293,-0.8602,-0.3812,-0.3175,0.0,0.0,0.0,0.0,0.0,0.0,0.0,0.0,0.0,0.0,0.0,0.0,0.0,0.0,0.0,0.0,0.0,0.0,0.0,0.0,0.0,0.0,0.0,0.0,0.0,0.0,0.0,0.0,0.0,0.0,0.0,0.0,0.0,0.0,0.0,0.0,0.0,0.0,0.0,0.0,0.0,0.0,0.0,0.0,0.0,0.0,0.0,0.0,0.0,0.0,0.0,0.0,0.0,0.0,0.0,0.0,0.0,0.0,0.0,0.0,0.0,0.0,0.0,0.0,0.0,0.0,0.0,0.0,0.0,0.0,0.0,0.0,0.0,0.0,0.0,0.0,0.0,0.0,0.0,0.0,0.0,0.0,0.0,0.0,0.0,0.0,0.0,0.0,0.0,0.0,0.0,0.0,0.0,0.0,0.0,0.0,0.0,0.0,0.0,0.0,0.0,0.0,-0.326,-0.4885,-0.3603,-0.5658,-0.7884,-0.9781,-1.2633,-1.5358,-1.7779,-1.4084,0.0,0.0,0.0,0.0,0.0,0.0,0.0,0.0,0.0,0.0,0.0,0.0,0.0,0.0,0.0,0.0,0.0,0.0,0.0,0.0,0.0,0.0,0.0,0.0,0.0,0.0,0.0,0.0,0.0,0.0,0.0,0.0,0.0,0.0,0.0,0.0,0.0,0.0,0.0,0.0,0.0,0.0,0.0,0.0,0.0,0.0,0.0,0.0,0.0,0.0,0.0,0.0,0.0,0.0,0.0,0.0,0.0,0.0,0.0,0.0,0.0,0.0,0.0,0.0,0.0,0.0,0.0,0.0,0.0,0.0,0.0,0.0,0.0,0.0,0.0,0.0,0.0,0.0,0.0,0.0,0.0,0.0,0.0,0.0,0.0,0.0,0.0,0.0,0.0,0.0,0.0,0.0,0.0,0.0,0.0,0.0,0.0,0.0,0.0,0.0,0.0,0.0,-0.8106,-0.9564,-0.9375,-1.1547,-1.4093,-1.6599,-1.8974,-2.1364,-2.3864,0.0,0.0,0.0,0.0,0.0,0.0,0.0,0.0,0.0,0.0,0.0,0.0,0.0,0.0,0.0,0.0,0.0,0.0,0.0,0.0,0.0,0.0,0.0,0.0,0.0,0.0,0.0,0.0,0.0,0.0,0.0,0.0,0.0,0.0,0.0,0.0,0.0,0.0,0.0,0.0,0.0,0.0,0.0,0.0,0.0,0.0,0.0,0.0,0.0,0.0,0.0,0.0,0.0,0.0,0.0,0.0,0.0,0.0,0.0,0.0,0.0,0.0,0.0,0.0,0.0,0.0,0.0,0.0,0.0,0.0,0.0,0.0,0.0,0.0,0.0,0.0,0.0,0.0,0.0,0.0,0.0,0.0,0.0,0.0,0.0,0.0,0.0,0.0,0.0,0.0,0.0,0.0,0.0,0.0,0.0,0.0,0.0,0.0,0.0,0.0,0.0,0.0,-0.9685,-1.1411,-1.3123,-1.4122,-1.645,-1.8892,-2.1262,-2.3519,-2.5075,-2.5708,0.0,0.0,0.0,0.0,0.0,0.0,0.0,0.0,0.0,0.0,0.0,0.0,0.0,0.0,0.0,0.0,0.0,0.0,0.0,0.0,0.0,0.0,0.0,0.0,0.0,0.0,0.0,0.0,0.0,0.0,0.0,0.0,0.0,0.0,0.0,0.0,0.0,0.0,0.0,0.0,0.0,0.0,0.0,0.0,0.0,0.0,0.0,0.0,0.0,0.0,0.0,0.0,0.0,0.0,0.0,0.0,0.0,0.0,0.0,0.0,0.0,0.0,0.0,0.0,0.0,0.0,0.0,0.0,0.0,0.0,0.0,0.0,0.0,0.0,0.0,0.0,0.0,0.0,0.0,0.0,0.0,0.0,0.0,0.0,0.0,0.0,0.0,0.0,0.0,0.0,0.0,0.0,0.0,0.0,0.0,0.0,0.0,0.0,0.0,0.0,0.0,0.0,-1.0294,-1.277,-1.5386,-1.709,-1.9715,-2.1845,-2.3203,-2.5697,-2.6168,0.0,0.0,0.0,0.0,0.0,0.0,0.0,0.0,0.0,0.0,0.0,0.0,0.0,0.0,0.0,0.0,0.0,0.0,0.0,0.0,0.0,0.0,0.0,0.0,0.0,0.0,0.0,0.0,0.0,0.0,0.0,0.0,0.0,0.0,0.0,0.0,0.0,0.0,0.0,0.0,0.0,0.0,0.0,0.0,0.0,0.0,0.0,0.0,0.0,0.0,0.0,0.0,0.0,0.0,0.0,0.0,0.0,0.0,0.0,0.0,0.0,0.0,0.0,0.0,0.0,0.0,0.0,0.0,0.0,0.0,0.0,0.0,0.0,0.0,0.0,0.0,0.0,0.0,0.0,0.0,0.0,0.0,0.0,0.0,0.0,0.0,0.0,0.0,0.0,0.0,0.0,0.0,0.0,0.0,0.0,0.0,0.0,0.0,0.0,0.0,0.0,0.0,0.0,-0.8465,-1.2193,-1.5166,-1.6874,-1.9764,-2.2776,-2.601,-2.7171,-2.7241,-2.6188,0.0,0.0,0.0,0.0,0.0,0.0,0.0,0.0,0.0,0.0,0.0,0.0,0.0,0.0,0.0,0.0,0.0,0.0,0.0,0.0,0.0,0.0,0.0,0.0,0.0,0.0,0.0,0.0,0.0,0.0,0.0,0.0,0.0,0.0,0.0,0.0,0.0,0.0,0.0,0.0,0.0,0.0,0.0,0.0,0.0,0.0,0.0,0.0,0.0,0.0,0.0,0.0,0.0,0.0,0.0,0.0,0.0,0.0,0.0,0.0,0.0,0.0,0.0,0.0,0.0,0.0,0.0,0.0,0.0,0.0,0.0,0.0,0.0,0.0,0.0,0.0,0.0,0.0,0.0,0.0,0.0,0.0,0.0,0.0,0.0,0.0,0.0,0.0,0.0,0.0,0.0,0.0,0.0,0.0,0.0,0.0,0.0,0.0,0.0,0.0,0.0,0.0,-0.5515,-0.7989,-1.1414,-1.7675,-2.0593,-2.3512,-2.6809,-2.7684,-2.8068,-2.8106,0.0,0.0,0.0,0.0,0.0,0.0,0.0,0.0,0.0,0.0,0.0,0.0,0.0,0.0,0.0,0.0,0.0,0.0,0.0,0.0,0.0,0.0,0.0,0.0,0.0,0.0,0.0,0.0,0.0,0.0,0.0,0.0,0.0,0.0,0.0,0.0,0.0,0.0,0.0,0.0,0.0,0.0,0.0,0.0,0.0,0.0,0.0,0.0,0.0,0.0,0.0,0.0,0.0,0.0,0.0,0.0,0.0,0.0,0.0,0.0,0.0,0.0,0.0,0.0,0.0,0.0,0.0,0.0,0.0,0.0,0.0,0.0,0.0,0.0,0.0,0.0,0.0,0.0,0.0,0.0,0.0,0.0,0.0,0.0,0.0,0.0,0.0,0.0,0.0,0.0,0.0,0.0,0.0,0.0,0.0,0.0,0.0,0.0,0.0,0.0,0.0,0.0,-0.0932,-0.1463,-0.5868,-1.9104,-2.1929,-2.3849,-2.6316,-2.7575,-2.8602,-2.9454,0.0,0.0,0.0,0.0,0.0,0.0,0.0,0.0,0.0,0.0,0.0,0.0,0.0,0.0,0.0,0.0,0.0,0.0,0.0,0.0,0.0,0.0,0.0,0.0,0.0,0.0,0.0,0.0,0.0,0.0,0.0,0.0,0.0,0.0,0.0,0.0,0.0,0.0,0.0,0.0,0.0,0.0,0.0,0.0,0.0,0.0,0.0,0.0,0.0,0.0,0.0,0.0,0.0,0.0,0.0,0.0,0.0,0.0,0.0,0.0,-1.0234,-0.9872,0.0,0.0,0.0,0.0,0.0,0.0,0.0,0.0,0.0,0.0,0.0,0.0,0.0,0.0,0.0,0.0,0.0,0.0,0.0,0.0,0.0,0.0,0.0,0.0,0.0,0.0,0.0,0.0,0.0,0.0,0.0,0.0,0.0,0.0,0.0,0.0,0.0,0.0,0.0,0.0,0.8539,0.3043,-0.5971,-2.0607,-2.2086,-2.3438,-2.6947,-2.7536,-2.8256,-2.9404,-2.9234,0.0,0.0,0.0,0.0,0.0,0.0,0.0,0.0,0.0,0.0,0.0,0.0,0.0,0.0,0.0,0.0,0.0,0.0,0.0,0.0,0.0,0.0,0.0,0.0,0.0,0.0,0.0,0.0,0.0,0.0,0.0,0.0,0.0,0.0,0.0,0.0,0.0,0.0,0.0,0.0,0.0,0.0,0.0,0.0,0.0,0.0,0.0,0.0,0.0,0.0,0.0,0.0,0.0,0.0,0.0,0.0,0.0,0.0,0.0,-1.0639,-1.0256,0.0,0.0,0.0,0.0,0.0,0.0,0.0,0.0,0.0,0.0,0.0,0.0,0.0,0.0,0.0,0.0,0.0,0.0,0.0,0.0,0.0,0.0,0.0,0.0,0.0,0.0,0.0,0.0,0.0,0.0,0.0,0.0,0.0,0.0,0.0,0.0,0.0,0.0,0.0,0.0,1.1726,1.2859,0.5246,-1.8388,-1.6863,-1.7371,-2.5206,-2.7264,-2.8655,-2.979,-3.0428,0.0,0.0,0.0,0.0,0.0,0.0,0.0,0.0,0.0,0.0,0.0,0.0,0.0,0.0,0.0,0.0,0.0,0.0,0.0,0.0,0.0,0.0,0.0,0.0,0.0,0.0,0.0,0.0,0.0,0.0,0.0,0.0,0.0,0.0,0.0,0.0,0.0,0.0,0.0,0.0,0.0,0.0,0.0,0.0,0.0,0.0,0.0,0.0,0.0,0.0,0.0,0.0,0.0,-1.4011,-1.3807,-1.344,-1.3243,-1.2958,-1.2485,-1.0973,-1.0523,-1.0808,-0.9852,0.0,0.0,0.0,0.0,0.0,0.0,0.0,0.0,0.0,0.0,0.0,0.0,0.0,0.0,0.0,0.0,0.0,0.0,0.0,0.0,0.0,0.0,-1.0324,-1.2045,-1.2748,-1.2402,-1.0094,0.0,0.0,0.0,0.0,0.0,0.0,0.0,0.0,0.0,0.0,0.0,1.4552,2.2824,1.895,-0.8504,-0.7702,-0.9921,-2.1605,-2.5918,-2.8744,-3.0523,-3.1527,-3.1573,0.0,0.0,0.0,0.0,0.0,0.0,0.0,0.0,0.0,0.0,0.0,0.0,0.0,0.0,0.0,0.0,0.0,0.0,0.0,0.0,0.0,0.0,0.0,0.0,0.0,0.0,0.0,0.0,0.0,0.0,0.0,0.0,-1.0576,-1.1178,0.0,0.0,0.0,0.0,0.0,0.0,0.0,0.0,0.0,0.0,0.0,0.0,0.0,-1.5082,-1.5031,-1.4526,-1.4209,-1.4106,-1.4304,-1.4124,-1.3604,-1.4025,-1.3842,-1.3122,-1.2081,0.0,-1.1063,-1.0022,0.0,0.0,0.0,0.0,0.0,0.0,0.0,0.0,0.0,0.0,0.0,0.0,0.0,0.0,0.0,0.0,0.0,0.0,0.0,0.0,0.0,0.0,-0.8051,-1.2067,-1.4936,-1.5495,-1.0653,-0.3447,0.402,1.0584,1.622,2.0189,0.0,0.0,0.0,0.0,0.0,0.0,2.4705,2.6116,2.5117,1.9387,0.5988,-0.6329,-1.5757,-2.1537,-2.6755,-3.1797,-3.1837,-3.2038,-3.2901,-3.0666,0.0,0.0,0.0,0.0,0.0,0.0,0.0,0.0,0.0,0.0,0.0,0.0,0.0,0.0,0.0,0.0,0.0,0.0,0.0,0.0,0.0,0.0,0.0,0.0,0.0,0.0,0.0,0.0,0.0,-1.0903,-1.1398,-1.1771,-1.211,-1.2504,0.0,0.0,0.0,0.0,0.0,0.0,0.0,0.0,0.0,-1.5698,-1.5644,-1.5653,-1.5727,-1.5475,-1.5139,-1.4775,-1.5034,-1.4891,-1.4344,-1.4405,-1.4053,-1.3357,-1.275,-1.1939,-1.1072,-1.0335,-0.9776,-0.9346,0.0,0.0,0.0,0.0,-0.6174,-0.5028,-0.4341,-0.3674,-0.3164,-0.3226,0.0,0.0,0.0,0.0,0.0,0.0,0.0,0.8691,0.4431,0.0156,-0.4224,-0.8775,-1.1901,-1.29,-0.9799,-0.334,0.3896,1.093,1.7228,2.2002,2.3903,2.5665,0.0,0.0,0.0,2.8204,2.7046,2.7114,2.4129,1.5819,1.0013,0.0947,-1.329,-1.5918,-2.0701,-2.9862,-3.1501,-3.2516,-3.3425,-3.0451,-2.8536,0.0,0.0,0.0,0.0,0.0,0.0,0.0,0.0,0.0,0.0,0.0,0.0,0.0,0.0,0.0,0.0,0.0,0.0,0.0,0.0,0.0,0.0,0.0,0.0,0.0,0.0,0.0,0.0,-1.1467,-1.1935,-1.2095,-1.2527,-1.2907,0.0,0.0,0.0,0.0,0.0,0.0,-1.4817,-1.4972,-1.5417,-1.6162,-1.6187,-1.6255,-1.6512,-1.6459,-1.6071,-1.5463,-1.5714,-1.5553,-1.504,-1.4838,-1.4403,-1.3794,-1.3065,-1.2215,-1.1284,-1.0696,-1.0085,-0.9575,-0.9534,-0.8884,-0.7951,-0.7652,-0.691,-0.5867,-0.4986,-0.4318,-0.377,-0.3529,-0.2192,-0.0144,0.2427,0.0,0.0,0.0,0.0,1.5301,1.087,0.593,0.0674,-0.491,-0.8744,-1.0995,-1.06,-0.5956,0.0912,1.0181,1.857,2.4891,2.7225,2.8487,0.0,2.9736,2.9518,2.8876,2.7538,2.7155,2.2746,1.1674,1.2211,0.6931,-0.8925,-1.0921,-1.6392,-2.8288,-3.1518,-3.3031,-3.313,-3.0271,-2.9117,-3.0035,0.0,0.0,0.0,0.0,0.0,0.0,0.0,0.0,0.0,0.0,0.0,0.0,0.0,0.0,0.0,0.0,0.0,0.0,0.0,0.0,0.0,0.0,0.0,0.0,0.0,0.0,0.0,0.0,0.0,-1.1884,-1.2499,0.0,0.0,0.0,0.0,-1.4125,-1.4137,-1.4498,-1.5315,-1.5422,-1.5947,-1.7012,-1.6901,-1.6914,-1.7073,-1.6987,-1.6631,-1.595,-1.615,-1.5985,-1.5468,-1.5433,-1.5175,-1.4641,-1.3086,-1.2266,-1.1865,-1.0905,-0.9982,-0.918,-0.8882,-0.8459,-0.799,-0.7752,-0.7109,-0.6165,-0.5422,-0.4673,-0.3993,-0.3528,0.0973,0.6993,1.133,1.7968,0.0,0.0,2.6944,2.6279,2.1098,1.4427,0.6979,-0.1207,-0.7478,-1.23,-1.4771,-1.2127,-0.4988,0.9399,2.2106,3.081,3.1655,0.0,3.2242,3.2967,3.129,2.9452,2.8044,2.64,2.361,1.9101,1.5197,0.9237,0.0094,-0.7449,-1.6747,-2.8628,-3.248,-3.3662,-3.2224,-3.0956,-3.0163,-2.9904,-2.7941,0.0,0.0,0.0,0.0,0.0,0.0,0.0,0.0,0.0,0.0,0.0,0.0,0.0,0.0,0.0,0.0,0.0,0.0,0.0,0.0,0.0,0.0,0.0,0.0,0.0,0.0,0.0,0.0,-1.2288,-1.2736,0.0,-1.3368,-1.3473,-1.375,-1.4334,-1.4606,-1.5169,-1.6227,-1.6421,-1.6811,-1.755,-1.7421,-1.7171,-1.6749,-1.6667,-1.6278,-1.5626,-1.5719,-1.5599,-1.5244,-1.5142,-1.4777,-1.414,-1.3464,-1.2468,-1.1261,-1.1136,-1.045,-0.9483,-0.9172,-0.8916,-0.8681,-0.7937,-0.7345,-0.6791,-0.564,-0.4748,-0.324,0.2035,0.7424,1.3877,2.4807,2.9141,3.1016,3.4285,3.4405,3.2335,2.7224,2.1202,1.355,0.2418,-0.7401,-1.4951,-1.7709,-1.8899,-1.5543,-0.2713,1.0558,2.1315,2.635,2.9017,3.0506,3.0649,3.0025,2.8686,2.627,2.449,2.2192,1.8896,1.7841,1.2602,0.0872,0.673,0.0103,-2.5533,-2.9369,-3.0503,-3.0128,-3.0459,-3.015,-2.9068,-2.4364,-2.0043,0.0,0.0,0.0,0.0,0.0,0.0,0.0,0.0,0.0,0.0,0.0,0.0,0.0,0.0,0.0,0.0,0.0,0.0,0.0,0.0,0.0,0.0,0.0,0.0,0.0,-1.1459,-1.1999,-1.2438,-1.2843,-1.3275,-1.3587,-1.3892,-1.4295,-1.4966,-1.5437,-1.6053,-1.6928,-1.7108,-1.7363,-1.7763,-1.7577,-1.7311,-1.6911,-1.6834,-1.6543,-1.5898,-1.5854,-1.5614,-1.521,-1.4902,-1.4419,-1.3858,-1.3408,-1.2355,-1.1016,-1.092,-1.0345,-0.9515,-0.9257,-0.9064,-0.8862,-0.7855,-0.7097,-0.6301,-0.4246,-0.2618,-0.0301,0.7003,1.35,2.0548,3.2004,3.5872,3.6961,3.9896,3.9425,3.6918,3.2032,2.5477,1.7543,0.72,-0.511,-1.585,-2.0715,-2.3472,-2.2178,-1.2273,0.1629,1.4174,2.1771,2.6541,2.9149,2.8739,2.7281,2.4735,2.0648,1.8964,1.6888,1.3606,1.4933,1.2253,0.289,0.9778,0.4039,-2.0731,-2.4681,-2.6623,-2.7879,-2.8815,-2.863,-2.7165,-2.0266,-1.5078,-1.1878,0.0,0.0,0.0,0.0,0.0,0.0,0.0,0.0,0.0,0.0,0.0,0.0,0.0,0.0,0.0,0.0,0.0,0.0,0.0,0.0,0.0,0.0,0.0,-1.0634,-1.129,-1.191,-1.2191,-1.2785,-1.3412,-1.3942,-1.4774,-1.5474,-1.5972,-1.6598,-1.7111,-1.7375,-1.7393,-1.7553,-1.7808,-1.7485,-1.7463,-1.77,-1.7689,-1.7388,-1.6866,-1.6559,-1.6052,-1.5493,-1.4777,-1.4276,-1.3915,-1.2878,-1.1998,-1.1233,-1.0331,-0.965,-0.9217,-0.903,-0.8798,-0.8415,-0.7602,-0.6406,-0.4699,-0.1285,0.1661,0.484,1.0859,1.8795,2.701,3.2371,3.7819,4.2249,4.2675,4.2117,4.0354,3.5813,2.7509,1.8782,1.2833,-0.0719,-1.4791,-2.3701,-2.5881,-2.4313,-1.8157,-0.3613,1.0363,1.8658,2.4966,2.8594,2.7816,2.3343,0.0,1.1525,0.9868,0.7786,0.3909,0.6532,0.8009,0.6637,0.0618,-0.6533,-1.4624,-1.8822,-2.2419,-2.5553,-2.6057,-2.5559,-2.4114,-1.6045,-0.9393,-0.4347,0.0,0.0,0.0,0.0,0.0,0.0,0.0,0.0,0.0,0.0,0.0,0.0,0.0,0.0,0.0,0.0,0.0,0.0,0.0,0.0,0.0,-1.0436,-1.0868,-1.1159,-1.1371,-1.1761,-1.2368,-1.2686,-1.3232,-1.4146,-1.469,-1.5312,-1.6097,-1.6578,-1.7046,-1.751,-1.7826,-1.8115,-1.839,-1.8058,-1.7793,-1.7678,-1.7233,-1.6774,-1.6439,-1.6199,-1.584,-1.5365,-1.5135,-1.4589,-1.3761,-1.321,-1.2302,-1.1129,-1.1136,-1.0645,-0.9776,-0.895,-0.8749,-0.8814,-0.7902,-0.651,-0.4535,-0.1,0.3567,0.8912,1.5438,2.347,3.1515,3.6774,4.0854,4.3824,4.4414,4.3936,4.2462,3.902,3.302,2.3802,0.764,-0.4903,-1.567,-2.4559,-2.7487,-2.6897,-2.1827,-1.2568,-0.1067,1.3049,2.3312,2.9277,2.8357,2.1766,1.5499,1.1496,0.56,0.1685,0.1449,0.4048,0.5503,0.4729,0.0456,-0.5412,-1.3065,-1.7327,-2.0525,-2.2731,-2.2757,-2.1593,-1.9185,-1.3822,-0.987,0.0,0.0,0.0,0.0,0.0,0.0,0.0,0.0,0.0,0.0,0.0,0.0,0.0,0.0,0.0,0.0,0.0,0.0,0.0,0.0,0.0,0.0,-1.0343,-1.0845,-1.1239,-1.1363,-1.1637,-1.2264,-1.2681,-1.3232,-1.4073,-1.4914,-1.5678,-1.6265,-1.698,-1.7479,-1.7797,-1.8246,-1.8417,-1.8333,-1.805,-1.7831,-1.7678,-1.7082,-1.6787,-1.6776,-1.6297,-1.5848,-1.5436,-1.5017,-1.4265,-1.3342,-1.3198,-1.3146,-1.324,-1.3901,-1.4188,-1.3802,0.0,0.0,0.0,0.0,-0.6209,-0.4249,-0.041,0.5363,1.219,1.9039,2.7026,3.4832,3.9454,4.2522,4.4478,4.4735,4.4589,4.3447,3.9388,3.427,2.6236,1.0743,-0.1988,-1.287,-2.1216,-2.4701,-2.5355,-2.2495,-1.5415,0.0,0.5299,1.6215,2.3385,2.3401,1.6059,0.8767,0.3928,-0.1933,-0.568,-0.5787,-0.2087,0.0528,0.0943,-0.1377,0.0,0.0,0.0,-1.8051,-2.1522,-2.1155,0.0,0.0,0.0,-1.0086,-0.7694,-0.1949,0.0,0.0,0.7637,0.9382,0.0,0.0,0.0,0.0,0.0,0.0,0.0,0.0,0.0,0.0,0.0,0.0,0.0,0.0,0.0,0.0,-1.0203,-1.0618,-1.1057,-1.1283,-1.1592,-1.2068,-1.274,-1.3384,-1.4041,-1.5311,-1.6248,-1.6569,-1.7532,-1.8089,-1.8041,-1.8511,0.0,0.0,0.0,-1.7678,-1.7711,-1.7088,-1.7011,-1.7434,-1.6623,-1.605,-1.567,-1.4656,-1.3513,-1.2311,-1.2104,-1.3174,-1.52,-1.6481,-1.8219,-1.9445,-1.3086,-1.0201,-0.9431,-0.7472,-0.5892,-0.416,0.0413,0.0,0.0,2.1584,2.9608,3.7073,4.0703,4.3026,4.4285,4.3825,4.3917,4.2883,3.7403,3.2182,2.5808,1.5639,0.3311,-0.8262,-1.6029,-1.9838,-2.1641,-2.126,-1.4858,-0.7961,-0.3045,0.6899,1.4651,1.6151,0.8639,0.0429,-0.6161,-1.0208,-1.3034,-1.4519,-0.9418,0.0,-0.346,-0.3852,-0.5111,-0.7195,-1.1284,-1.5933,-2.1227,-2.0667,-1.9612,-1.8219,-1.407,-1.0082,-0.6283,-0.1093,0.2423,0.4331,0.7812,0.9527,0.0,0.0,0.0,0.0,0.0,0.0,0.0,0.0,0.0,0.0,0.0,0.0,0.0,0.0,0.0,-1.001,-1.0196,-1.0545,-1.1006,-1.1049,-1.1353,-1.231,-1.2987,-1.3841,-1.509,-1.59,-1.6547,-1.7103,-1.7668,-1.7901,-1.7767,-1.8351,-1.8406,-1.7909,-1.7512,-1.7468,-1.7854,-1.7022,-1.6828,-1.7202,-1.7191,0.0,-1.5779,-1.5164,-1.2657,-0.8693,-0.6623,-0.6944,-0.9079,-1.1314,-1.6263,-2.1854,-1.5964,-1.2414,-1.0369,-0.8326,-0.691,-0.5236,0.0399,0.7391,1.4934,2.2137,3.0212,3.7688,4.0434,4.2103,0.0,4.1619,4.0451,3.8345,3.2939,2.774,1.9481,0.2158,-0.3236,-0.679,-1.533,-1.9085,-2.0767,-2.0469,-1.7541,-1.3306,-0.7509,0.448,1.3783,1.5375,0.6559,-0.1173,-0.3713,-1.1392,-1.6071,-1.4531,-1.0638,-0.7216,-0.4937,-0.3721,-0.4359,-0.7172,-1.3283,-1.7879,-2.0192,-1.9733,-1.8597,-1.6909,-1.3326,-0.9953,-0.6758,-0.1852,0.1722,0.4046,0.7482,0.9157,0.0,0.0,0.0,0.0,0.0,0.0,0.0,0.0,0.0,0.0,0.0,-0.8489,-0.8775,0.0,-0.9486,-0.9383,-0.9768,-1.0164,-1.0351,-1.0788,-1.1412,-1.2314,-1.2902,-1.374,-1.5052,-1.5806,-1.6526,-1.7234,-1.7645,-1.789,-1.7922,-1.8294,-1.8336,-1.792,-1.7534,-1.7468,-1.781,-1.6906,-1.6711,-1.7224,-1.7108,-1.671,-1.5933,-1.4165,-1.0098,-0.42,-0.1364,-0.2582,-0.7324,-1.7227,-2.4147,-2.8125,-2.4227,-1.9477,-1.4625,-1.2971,-1.1438,-0.9418,-0.4062,0.2771,1.0397,1.8305,2.7647,3.6033,3.7257,3.8486,3.9326,3.9022,3.8333,3.6636,3.2237,2.4331,1.5187,0.6092,0.1228,-0.3239,-0.999,-1.3203,-1.5352,-1.7167,-1.6218,-1.4023,-1.0565,-0.2904,0.4461,0.9533,0.5157,-0.0278,-0.4596,-1.1579,-1.5605,-1.4279,-1.1368,-0.828,-0.5196,-0.4599,-0.5785,-0.9205,-1.4039,-1.7658,-1.9695,-1.8916,-1.78,-1.6445,-1.2599,-0.9099,-0.5935,-0.1426,0.1979,0.4405,0.7349,0.9023,0.0,0.0,0.0,0.0,0.0,0.0,0.0,-0.6837,-0.7236,-0.7489,-0.7968,-0.8385,-0.8565,-0.8926,-0.9089,-0.8659,-0.9141,-0.9604,-0.966,-1.0578,-1.1508,-1.2493,-1.3074,-1.3807,-1.4935,-1.5818,-1.6634,-1.7313,-1.7833,-1.8132,-1.8219,-1.8387,-1.8363,-1.8052,-1.77,-1.76,-1.7718,-1.684,-1.6702,-1.7287,-1.7293,-1.7055,-1.6531,-1.3594,-0.7999,-0.049,0.254,0.0219,-0.6999,-2.373,-3.2077,-3.4113,-3.2528,-2.7673,-2.1254,-1.8977,-1.6886,-1.4558,-1.0107,-0.3818,0.3542,1.1826,2.1749,3.0685,3.1678,3.3112,3.4478,3.5008,3.4866,3.3647,2.9929,2.0648,1.2271,1.2394,0.6675,0.0069,-0.4193,-0.6698,-0.9118,-1.2689,-1.326,-1.2935,-1.2151,-0.9555,-0.5023,0.2755,0.2868,-0.0111,-0.6138,-1.1101,-1.3822,-1.343,-1.1155,-0.827,-0.4716,-0.5346,-0.7488,-1.1009,-1.4021,-1.6767,-1.9179,-1.8102,-1.6968,-1.5897,-1.1914,-0.814,-0.4777,-0.0863,0.2381,0.4926,0.7265,0.8917,-0.6605,-0.6717,-0.6947,-0.7512,-0.7299,-0.7093,0.0,-0.7619,-0.7513,-0.8027,-0.807,-0.814,-0.8447,-0.8366,-0.8331,-0.8574,-0.8493,-0.8789,-0.988,-1.0474,-1.1492,-1.3378,-1.4174,-1.4861,-1.5687,-1.6751,-1.7433,-1.7636,-1.8307,-1.8654,-1.8572,-1.8685,-1.8673,-1.8506,-1.7854,-1.7639,-1.7866,-1.713,-1.6949,-1.7309,-1.8639,-1.8922,-1.813,-1.5437,-0.8912,0.0395,0.3189,0.0823,-0.6154,-2.0795,-3.0287,-3.56,-3.5599,-3.3859,-3.0612,-2.4689,-2.1237,-1.9037,-1.5685,-1.0499,-0.4133,0.2823,1.0629,1.8093,2.2616,2.6005,2.8214,2.7719,2.6587,2.4429,1.9821,1.5389,1.1049,0.719,0.3736,0.068,-0.1872,-0.3637,-0.5453,-0.779,-1.0277,-1.1792,-1.1083,-0.9369,-0.6473,-0.1491,-0.2492,-0.4362,-0.6002,-0.9764,-1.2101,-1.1537,-0.9371,-0.6618,-0.3218,-0.4965,-0.7382,-1.0009,-1.3276,-1.6049,-1.8089,-1.7147,-1.587,-1.4481,-1.1209,-0.773,-0.4006,-0.0939,0.2111,0.511,0.7298,0.8658,-0.6868,-0.6927,-0.7058,-0.731,-0.7076,-0.6946,-0.7514,-0.7541,-0.7659,-0.8332,-0.8374,-0.8228,-0.8234,-0.795,-0.77,-0.7519,-0.8686,-1.0083,-1.1541,-1.3489,-1.5483,-1.7386,-1.8829,-1.9037,-1.7459,-1.7823,-1.8522,-1.9434,-1.9635,-1.9718,-1.9778,-1.9651,-1.942,-1.9097,-1.8362,-1.8037,-1.8208,-1.7709,-1.7555,-1.7847,-1.935,-1.9816,-1.9211,-1.6745,-0.8303,0.4475,0.5431,0.2749,-0.3434,-1.8241,-2.8016,-3.3797,-3.5193,-3.5267,-3.398,-2.8827,-2.5813,-2.3884,-2.1126,-1.8885,-1.5721,-0.6473,0.0809,0.7044,1.2763,1.7229,2.0671,2.2525,2.1807,1.9399,1.5173,1.1652,0.8379,0.5449,0.291,0.0737,-0.1096,-0.2115,-0.3103,-0.4604,-0.7571,-1.0682,-1.326,-1.1102,-0.7726,-0.3852,-0.4021,-0.4733,-0.518,-0.8549,-1.0365,-0.8727,-0.5511,-0.3343,-0.2878,-0.4409,-0.6911,-1.0403,-1.3009,-1.542,-1.7638,-1.58,-1.4186,-1.2868,-0.894,-0.5136,-0.1603,0.0771,0.3254,0.5719,0.7001,0.7834,-0.7119,-0.7285,-0.7356,-0.7455,-0.7499,-0.7628,-0.7937,-0.8103,-0.8382,-0.9056,-0.8905,-0.8511,-0.8052,-0.7782,-0.7742,-0.8134,-1.0003,-1.2381,-1.5109,-1.7518,-1.9862,-2.2123,-2.3597,-2.3731,-2.1984,-2.1111,-2.0957,-2.175,-2.165,-2.1399,-2.1093,-2.0727,-2.0283,-1.9661,-1.9157,-1.8832,-1.8609,-1.8465,-1.8357,-1.8355,-1.9977,-2.0635,-2.0284,-1.5746,-0.6645,0.5607,0.5887,0.4566,0.0993,-1.4573,-2.4659,-3.0535,-3.2993,-3.4373,-3.4581,-3.1417,-2.9476,-2.8106,-2.5922,-2.5287,-2.3911,-1.4749,-0.8459,-0.3351,0.2907,0.7925,1.212,1.5601,1.6013,1.4758,1.1793,0.923,0.7049,0.5124,0.3206,0.1457,-0.0083,-0.0643,-0.1162,-0.2237,-0.5338,-0.9077,-1.308,-1.1073,-0.7731,-0.4405,-0.3516,-0.3297,-0.3545,-0.6374,-0.7702,-0.5882,-0.2773,-0.1285,-0.2391,-0.4,-0.6534,-1.0393,-1.2704,-1.4797,-1.6758,-1.4234,-1.2078,-1.0455,-0.6108,-0.2252,0.1095,0.2565,0.4168,0.5923,0.6485,0.6964,-0.7076,-0.7433,-0.774,-0.8302,-0.9026,-0.9637,-0.9801,-0.9915,-1.0065,-1.0312,-0.9781,-0.8967,-0.8084,-0.7822,-0.8739,-1.158,-1.2856,-1.5494,-2.1215,-2.2208,-2.3609,-2.6988,-2.7434,-2.8336,-3.048,-2.7741,-2.536,-2.4358,-2.4336,-2.3762,-2.2309,-2.1749,-2.1118,-2.0388,-2.0413,-2.0031,-1.9197,-1.9481,-1.9304,-1.8694,-2.0655,-2.1637,-2.1488,-1.1407,-0.3846,0.1396,0.3261,0.5859,0.7419,-0.9125,-1.9767,-2.5997,-2.9134,-3.1384,-3.2788,-3.2097,-3.1672,-3.1267,-2.9886,-2.8166,-2.5827,-2.139,-1.742,-1.314,-0.6651,-0.1704,0.2264,0.5391,0.7825,0.928,0.8649,0.8529,0.8052,0.6122,0.466,0.3274,0.1687,0.1073,0.064,-0.0453,-0.3622,-0.6729,-0.8343,-0.7785,-0.5928,-0.2579,-0.094,-0.032,-0.0877,-0.26,-0.3643,-0.3136,-0.222,-0.1548,-0.152,-0.3813,-0.6424,-0.9295,-1.2065,-1.4092,-1.5126,-1.24,-0.9533,-0.6702,-0.2992,0.0538,0.3868,0.3865,0.4396,0.5417,0.5788,0.6166,-1.042,-1.1654,-1.2572,-1.2082,-1.3176,-1.408,-1.3058,-1.3141,-1.3299,-1.3008,-1.1784,-1.0516,-0.9634,-0.9993,-1.0647,-1.134,-1.5247,-1.9497,-2.3287,-2.6014,-2.8884,-3.2305,-3.3341,-3.4147,-3.5117,-3.1632,-2.9425,-2.9685,-2.9315,-2.8575,-2.747,-2.6895,-2.5686,-2.3719,-2.2995,-2.203,-2.0745,-2.0329,-1.9658,-1.885,-2.0579,-2.1695,-2.2092,-1.5445,-1.0561,-0.7115,-0.3128,-0.0756,-0.0355,-0.8996,-1.578,-2.1114,-2.502,-2.8304,-3.0696,-2.979,-2.9593,-2.973,-2.9237,-2.8082,-2.6427,-2.4147,-2.1047,-1.7504,-1.3591,-0.9151,-0.4939,-0.231,0.0126,0.2174,0.3136,0.3842,0.425,0.389,0.3408,0.2924,0.2071,0.1488,0.1311,0.156,-0.1981,-0.5475,-0.6768,-0.7447,-0.6035,-0.0882,0.1363,0.2,0.08,0.0613,0.0893,0.1801,0.1607,0.0863,-0.0725,-0.3212,-0.6029,-0.9311,-1.0892,-1.2071,-1.2926,-0.8817,-0.5082,-0.1907,0.1459,0.4357,0.6772,0.5961,0.5436,0.5213,0.5168,0.5256,-1.4237,-1.5362,-1.6199,-1.5702,-1.6728,-1.755,-1.6317,-1.6201,-1.6109,-1.5371,-1.3597,-1.1855,-1.0921,-1.0345,-1.0642,-1.2477,-1.6105,-2.0711,-2.65,-2.958,-3.2814,-3.7095,-3.8127,-3.8599,-3.8902,-3.6503,-3.4568,-3.3719,-3.309,-3.2422,-3.1655,-3.0759,-2.9334,-2.7251,-2.587,-2.4312,-2.2535,-2.1355,-2.0059,-1.8665,-1.9809,-2.0717,-2.1282,-1.7589,-1.555,-1.458,-0.8745,-0.6385,-0.6867,-0.9632,-1.334,-1.7673,-2.1762,-2.5346,-2.8158,-2.7891,-2.7943,-2.8121,-2.7843,-2.7058,-2.5983,-2.4795,-2.2703,-2.0279,-1.7991,-1.4754,-1.1442,-0.9234,-0.6849,-0.4632,-0.3095,-0.1144,0.0427,0.0298,0.1336,0.2274,0.1882,0.1039,0.0324,0.0234,-0.2484,-0.5185,-0.6472,-0.6437,-0.4522,0.0244,0.3282,0.4678,0.384,0.3872,0.4244,0.4969,0.374,0.1994,-0.0372,-0.2756,-0.5463,-0.8453,-0.9116,-0.9379,-0.9398,-0.5533,-0.1219,0.342,0.3289,0.4786,0.8049,0.5077,0.3496,0.3307,0.3816,0.4272,-1.816,-1.8416,-1.85,-1.8913,-1.9604,-2.0022,-1.9485,-1.9004,-1.8416,-1.7353,-1.5106,-1.2883,-1.1441,-0.8828,-0.8608,-1.3943,-1.5109,-1.9123,-3.0019,-3.2553,-3.5415,-4.1188,-4.1609,-4.1547,-4.1925,-4.2026,-4.0429,-3.645,-3.5749,-3.5272,-3.4815,-3.3412,-3.2083,-3.0942,-2.9072,-2.6995,-2.4634,-2.2547,-2.0385,-1.816,-1.8409,-1.8793,-1.9209,-1.7571,-1.8254,-2.0237,-1.3353,-1.0714,-1.1284,-1.0699,-1.2437,-1.5737,-1.9474,-2.2686,-2.5373,-2.6584,-2.6918,-2.6706,-2.6102,-2.5436,-2.4676,-2.3624,-2.2689,-2.1708,-2.0067,-1.859,-1.7116,-1.5345,-1.3111,-1.0921,-0.9562,-0.635,-0.3732,-0.4568,-0.1851,0.0861,0.0638,-0.0816,-0.2542,-0.4157,-0.4924,-0.5799,-0.735,-0.4885,-0.1872,0.0555,0.4511,0.7403,0.8007,0.7165,0.6447,0.6304,0.4268,0.2047,-0.0155,-0.2275,-0.4392,-0.6496,-0.666,-0.603,-0.4598,-0.2313,0.2109,0.879,0.2823,0.2297,0.7658,0.1491,-0.0997,0.0042,0.175,0.3149,-1.9894,-2.0518,-2.0953,-2.0847,-2.2313,-2.3389,-2.1917,-2.1471,-2.063,-1.8194,-1.5636,-1.2411,-0.78,-0.5197,-0.3211,-0.1535,-0.8679,-1.6321,-2.1733,-3.0354,-3.7726,-4.2231,-4.2878,-4.2867,-4.2659,-4.2789,-4.2002,-3.9868,-3.9396,-3.9151,-3.8977,-3.8306,-3.7067,-3.5124,-3.3204,-3.0665,-2.7475,-2.2544,-1.9198,-1.7509,-1.6764,-1.681,-1.7607,-1.7397,-1.7302,-1.7104,-1.4494,-1.2756,-1.177,-1.1737,-1.3017,-1.5392,-1.8876,-2.1838,-2.4261,-2.5408,-2.6128,-2.6484,-2.5837,-2.5054,-2.4229,-2.3303,-2.2582,-2.2048,-2.1843,-2.1087,-2.0162,-1.9624,-1.7674,-1.5394,-1.3823,-1.3768,-1.3663,-1.1994,-0.9068,-0.7115,-0.8932,-0.9627,-0.9015,-0.5923,-0.6112,-0.7359,-0.9218,-0.7537,-0.5137,-0.2616,0.2003,0.6072,0.8611,0.8778,0.8365,0.7467,0.6084,0.4726,0.3533,0.1083,-0.0763,-0.1805,-0.1879,-0.127,0.0104,0.4282,0.7486,0.9379,0.6339,0.5076,0.5767,-0.0306,-0.2213,-0.0215,0.0165,0.1253,-2.1705,-2.1753,-2.1778,-2.144,-2.2481,-2.337,-2.2728,-2.2063,-2.088,-1.854,-1.5308,-1.1324,-0.6247,-0.2231,0.126,0.4083,-0.2759,-1.0717,-1.7247,-2.7097,-3.6006,-4.243,-4.3389,-4.3393,-4.2972,-4.3129,-4.2624,-4.1116,-4.0884,-4.113,-4.1867,-4.1276,-4.0442,-3.9437,-3.6911,-3.3068,-2.7861,-2.3209,-1.9628,-1.7153,-1.5819,-1.5128,-1.5095,-1.6138,-1.6219,-1.5453,-1.5524,-1.4756,-1.3493,-1.3368,-1.4181,-1.5806,-1.835,-2.0641,-2.2739,-2.4401,-2.5407,-2.5859,-2.5311,-2.4913,-2.4414,-2.3513,-2.2601,-2.1972,-2.2361,-2.2303,-2.217,-2.2306,-2.125,-1.9881,-1.9056,-2.0293,-2.1065,-1.8095,-1.5898,-1.4496,-1.468,-1.3957,-1.2414,-0.9444,-0.9587,-1.0593,-1.184,-1.0525,-0.8697,-0.6888,-0.2229,0.2422,0.6399,0.9141,1.0414,0.9727,0.8221,0.6746,0.5451,0.4889,0.3756,0.1956,0.4004,0.5346,0.5585,0.8632,0.9753,0.8527,0.5241,0.2578,0.0653,-0.3877,-0.4923,-0.266,-0.1304,0.0299,-2.2602,-2.1632,-2.0918,-2.0518,-2.0665,-2.1151,-2.2067,-2.1198,-1.9737,-1.8113,-1.4439,-1.006,-0.5233,0.0651,0.5365,0.7097,0.3237,-0.345,-1.3333,-2.2721,-3.1987,-4.1226,-4.2908,-4.3197,-4.2892,-4.3034,-4.2558,-4.111,-4.1058,-4.1791,-4.3446,-4.2802,-4.2572,-4.2955,-3.9754,-3.4716,-2.7776,-2.474,-2.1329,-1.757,-1.5678,-1.4127,-1.2937,-1.4437,-1.4974,-1.4849,-1.5998,-1.6162,-1.5624,-1.5121,-1.5526,-1.6723,-1.815,-1.9693,-2.1362,-2.3722,-2.4863,-2.5159,-2.4958,-2.4936,-2.4812,-2.3787,-2.2611,-2.1682,-2.2088,-2.2666,-2.3195,-2.3603,-2.3713,-2.3761,-2.4046,-2.5411,-2.6015,-2.3166,-2.2044,-2.094,-1.8399,-1.6178,-1.4501,-1.4001,-1.4221,-1.4551,-1.4754,-1.37,-1.2462,-1.151,-0.7236,-0.225,0.2798,0.8814,1.2432,1.2218,1.0516,0.8652,0.6862,0.8229,0.8082,0.5501,0.9404,1.1487,1.0699,1.1444,1.0299,0.6935,0.224,-0.1784,-0.5078,-0.7909,-0.8119,-0.5758,-0.2936,-0.0655,-1.9411,-1.8045,-1.674,-1.6409,-1.6856,-1.7751,-1.9119,-1.8754,-1.7542,-1.5483,-1.3288,-0.9293,-0.1313,0.4615,1.0181,1.5842,1.0879,0.392,-0.2946,-1.6269,-2.8271,-3.625,-3.9894,-4.1867,-4.2157,-4.2311,-4.2002,-4.1072,-4.1012,-4.1499,-4.2563,-4.3149,-4.3242,-4.285,-3.9835,-3.6216,-3.1974,-2.8034,-2.4304,-2.0765,-1.7378,-1.5293,-1.4371,-1.3443,-1.36,-1.4641,-1.4833,-1.533,-1.599,-1.5971,-1.6494,-1.7544,-1.9269,-2.058,-2.1837,-2.3859,-2.4896,-2.5359,-2.5726,-2.5441,-2.4664,-2.3188,-2.2168,-2.1574,-2.1812,-2.2269,-2.2788,-2.3118,-2.3997,-2.503,-2.6006,-2.6554,-2.6921,-2.7163,-2.6258,-2.4913,-2.321,-2.0524,-1.848,-1.8652,-1.77,-1.6854,-1.694,-1.674,-1.6122,-1.4907,-1.1103,-0.5919,0.0876,0.9158,1.4096,1.3273,1.203,1.1101,1.0682,0.9073,0.8799,1.0572,1.0421,1.0957,1.2571,1.3481,1.1384,0.5808,0.2604,-0.1115,-0.5426,-0.9493,-0.9722,-0.6366,-0.5809,-0.3682,-1.5713,-1.4301,-1.2988,-1.2451,-1.2777,-1.372,-1.5376,-1.553,-1.4869,-1.3253,-1.1261,-0.7465,0.0353,0.4805,0.9836,1.7556,1.3263,0.7092,0.1798,-1.0742,-2.3662,-3.522,-3.7894,-3.9268,-4.0471,-4.1164,-4.0992,-3.9696,-3.9589,-4.0409,-4.2243,-4.357,-4.3923,-4.3131,-4.1509,-3.902,-3.5628,-3.1795,-2.8014,-2.4274,-1.9914,-1.6958,-1.5237,-1.3949,-1.3532,-1.3911,-1.5268,-1.6153,-1.6673,-1.7487,-1.8124,-1.8757,-1.9904,-2.0903,-2.1866,-2.3725,-2.4768,-2.5375,-2.5894,-2.5886,-2.5424,-2.4206,-2.2994,-2.2117,-2.2589,-2.2646,-2.275,-2.371,-2.4541,-2.5305,-2.5993,-2.7051,-2.7984,-2.8196,-2.7914,-2.7068,-2.5143,-2.3453,-2.2249,-2.2031,-2.0943,-2.0035,-1.9998,-1.9869,-1.9629,-1.9166,-1.6828,-1.2698,-0.5929,0.2218,0.9184,1.4001,1.3561,1.2636,1.189,1.0854,1.0873,1.2272,1.1985,1.2299,1.3558,1.3467,0.9522,0.1239,0.1371,-0.2129,-0.9504,-0.9777,-0.9186,-0.7695,-0.6172,-0.4265,-1.2244,-1.0975,-0.9858,-0.9097,-0.9274,-1.014,-1.1962,-1.2546,-1.2403,-1.1358,-0.9061,-0.541,0.0746,0.4282,0.8654,1.5999,1.3576,0.9205,0.4732,-0.5073,-1.6972,-3.0992,-3.357,-3.5211,-3.7851,-3.9186,-3.9415,-3.8287,-3.8224,-3.9361,-4.1894,-4.3607,-4.4264,-4.3718,-4.3377,-4.1769,-3.8828,-3.5547,-3.1824,-2.7589,-2.3117,-1.9433,-1.6482,-1.514,-1.4127,-1.3604,-1.5618,-1.6665,-1.6978,-1.8293,-1.9021,-1.9418,-2.0004,-2.0705,-2.1586,-2.3283,-2.4361,-2.5045,-2.5709,-2.6046,-2.6032,-2.5322,-2.398,-2.2733,-2.3186,-2.2672,-2.2276,-2.3919,-2.4667,-2.5114,-2.5707,-2.7147,-2.8374,-2.8115,-2.819,-2.7827,-2.5964,-2.5266,-2.4818,-2.4171,-2.3363,-2.2718,-2.2546,-2.2281,-2.2152,-2.2398,-2.1398,-1.8354,-1.2067,-0.5116,0.2921,1.2401,1.3331,1.2871,1.192,1.2092,1.2373,1.2748,1.29,1.3155,1.3419,1.2119,0.7007,-0.2341,-0.0475,-0.363,-1.2125,-0.963,-0.8666,-0.9116,-0.6597,-0.481,-0.9606,-0.8764,-0.7666,-0.7115,-0.7253,-0.8077,-1.003,-1.0813,-1.0833,-0.9806,-0.7096,-0.3718,0.0139,0.496,0.9328,1.2355,1.326,1.21,0.8043,0.1802,-0.625,-1.6728,-2.332,-2.8919,-3.3741,-3.5688,-3.6972,-3.7777,-3.802,-3.9004,-4.1011,-4.2717,-4.3949,-4.4655,-4.4509,-4.3444,-4.1387,-3.9044,-3.5346,-3.0302,-2.7037,-2.3275,-1.9077,-1.6657,-1.5255,-1.4721,-1.4626,-1.5176,-1.625,-1.6994,-1.7783,-1.8558,-1.9167,-1.9926,-2.0877,-2.2427,-2.3386,-2.3995,-2.5078,-2.5551,-2.5639,-2.5498,-2.436,-2.2962,-2.2552,-2.1346,-2.0543,-2.2448,-2.361,-2.4659,-2.6278,-2.6836,-2.7155,-2.7765,-2.7352,-2.6726,-2.6451,-2.5658,-2.4902,-2.4599,-2.4058,-2.3578,-2.327,-2.2926,-2.2735,-2.2834,-2.1972,-1.9152,-1.3203,-0.7731,-0.1554,0.5906,0.9157,1.0881,1.1072,1.116,1.1754,1.3002,1.2175,1.1566,1.1291,0.9183,0.5091,-0.1135,-0.2424,-0.4908,-0.8742,-0.9406,-0.9808,-0.9954,-0.9021,-0.7134,-0.7265,-0.6674,-0.5825,-0.5434,-0.5603,-0.6174,-0.7487,-0.8807,-0.9408,-0.8148,-0.6826,-0.4618,-0.0535,0.4577,0.8818,1.0676,1.1925,1.2629,1.2701,0.6062,-0.2096,-1.1015,-1.774,-2.3547,-2.8402,-3.128,-3.3275,-3.4291,-3.5691,-3.6832,-3.7647,-4.0808,-4.2955,-4.3757,-4.4738,-4.4413,-4.2622,-4.1082,-3.7914,-3.3116,-2.9495,-2.5434,-2.0975,-1.8267,-1.6231,-1.4899,-1.5619,-1.6463,-1.7395,-1.8334,-1.9321,-2.0264,-2.0318,-2.0622,-2.1198,-2.2052,-2.2941,-2.3851,-2.4462,-2.5109,-2.5662,-2.5625,-2.4994,-2.3932,-2.225,-2.0632,-1.9707,-2.1416,-2.2662,-2.3723,-2.4783,-2.5866,-2.6759,-2.704,-2.7249,-2.7239,-2.6787,-2.632,-2.6001,-2.5932,-2.5304,-2.467,-2.4369,-2.4151,-2.3929,-2.3713,-2.2901,-2.1135,-1.7898,-1.364,-0.8146,-0.0872,0.7204,1.2213,1.2603,1.2794,1.3167,1.3722,1.1878,1.1109,1.1819,0.761,0.3066,-0.1569,-0.3502,-0.6188,-0.9688,-0.9748,-1.0002,-1.0416,-0.8374,-0.661,-0.5257,-0.4965,-0.4516,-0.4434,-0.4723,-0.5227,-0.6108,-0.7466,-0.8166,-0.6936,-0.6211,-0.4546,-0.0512,0.3595,0.7075,0.9172,1.0544,1.2087,1.4104,0.8736,0.1918,-0.5439,-1.164,-1.7437,-2.2811,-2.7225,-3.0167,-3.1236,-3.3007,-3.4427,-3.5314,-3.8627,-4.1082,-4.2353,-4.4047,-4.4292,-4.2926,-4.2165,-3.9532,-3.4994,-3.1635,-2.7545,-2.2863,-1.9904,-1.7685,-1.6204,-1.6875,-1.7616,-1.8401,-1.9394,-2.0154,-2.0683,-2.0662,-2.0705,-2.0841,-2.1447,-2.2457,-2.3572,-2.4058,-2.4877,-2.5709,-2.5703,-2.5415,-2.4696,-2.2751,-2.0916,-1.981,-2.1368,-2.2645,-2.3607,-2.3796,-2.5014,-2.6174,-2.615,-2.6666,-2.7,-2.6482,-2.635,-2.6332,-2.6437,-2.5918,-2.5405,-2.5207,-2.5064,-2.4877,-2.4534,-2.3738,-2.2685,-2.1333,-1.7535,-1.2551,-0.6243,0.3939,1.0915,1.2461,1.3459,1.3786,1.3209,1.1695,1.0798,1.0754,0.6237,0.1605,-0.2784,-0.4436,-0.7013,-1.0674,-1.0002,-0.9963,-1.0426,-0.802,-0.6157,-0.3635,-0.3734,-0.3824,-0.4295,-0.487,-0.5512,-0.6303,-0.6996,-0.7174,-0.629,-0.4803,-0.266,0.0485,0.2054,0.4007,0.7616,0.9391,1.0415,1.0721,0.9819,0.7121,0.1729,-0.3962,-1.014,-1.7118,-2.3829,-2.8237,-2.9435,-3.0359,-3.2065,-3.4855,-3.6247,-3.8113,-4.0636,-4.2356,-4.2905,-4.2218,-4.2265,-4.0036,-3.5571,-3.3608,-2.9948,-2.4857,-2.1558,-1.9802,-1.93,-1.8127,-1.8086,-1.8936,-1.9551,-1.9429,-1.889,-1.9542,-1.9614,-1.9445,-2.0511,-2.1725,-2.2956,-2.3961,-2.4915,-2.5703,-2.5697,-2.5465,-2.5035,-2.4221,-2.2429,-2.1003,-2.2542,-2.3908,-2.47,-2.3901,-2.4447,-2.5193,-2.5128,-2.5217,-2.5336,-2.5405,-2.5401,-2.5446,-2.559,-2.5599,-2.5605,-2.5597,-2.5482,-2.534,-2.5215,-2.4398,-2.3427,-2.2405,-1.8091,-1.3579,-0.9663,-0.1476,0.5421,0.9677,1.2359,1.2939,1.0949,1.161,1.0537,0.7102,0.4873,0.0956,-0.4848,-0.5386,-0.7326,-1.0793,-1.0051,-0.9817,-0.9973,-0.8673,-0.6473,-0.2495,-0.2922,-0.3321,-0.3417,-0.4414,-0.541,-0.5522,-0.6464,-0.7018,-0.5972,-0.5044,-0.3601,-0.0902,0.1797,0.4125,0.5765,0.7623,0.9072,0.9595,0.8696,0.6871,0.3941,-0.4092,-1.1323,-1.6186,-2.0285,-2.3081,-2.4235,-2.5961,-2.7569,-2.8912,-3.1974,-3.5561,-3.9685,-4.1485,-4.2005,-4.1253,-4.1358,-3.9804,-3.6583,-3.3446,-2.989,-2.5979,-2.2172,-1.9843,-1.8719,-1.776,-1.7898,-1.8856,-1.8879,-1.9067,-1.9328,-1.9247,-1.919,-1.9298,-1.987,-2.088,-2.2122,-2.3085,-2.4021,-2.4895,-2.5442,-2.5405,-2.5065,-2.4725,-2.3008,-2.1371,-2.2266,-2.2704,-2.3151,-2.4172,-2.481,-2.52,-2.5234,-2.53,-2.5402,-2.551,-2.5577,-2.5598,-2.5597,-2.5609,-2.5595,-2.5593,-2.5561,-2.5485,-2.5368,-2.4578,-2.364,-2.2626,-2.0483,-1.5616,-0.658,-0.2587,0.2219,0.9136,1.2562,1.431,1.4207,1.2891,1.1143,0.8967,0.6645,0.2243,-0.4472,-0.5739,-0.7927,-1.1133,-1.2056,-1.1378,-0.9204,-0.7551,-0.5534,-0.157,-0.2365,-0.3064,-0.2967,-0.4252,-0.5476,-0.5146,-0.5889,-0.6311,-0.5174,-0.4404,-0.3292,-0.1196,0.0922,0.2756,0.3961,0.5849,0.7431,0.8299,0.7865,0.6296,0.3404,-0.3763,-0.982,-1.335,-1.634,-1.8459,-1.9509,-2.1593,-2.3348,-2.4616,-2.8074,-3.1832,-3.5845,-3.8528,-3.9836,-3.9743,-3.9842,-3.8612,-3.6016,-3.3006,-2.9902,-2.6655,-2.2689,-2.0463,-1.9706,-1.8269,-1.8163,0.0,-1.8973,-1.898,-1.8973,-1.9085,-1.909,-1.9051,-1.9438,-2.0469,-2.1768,-2.2644,-2.3586,-2.4498,-2.5324,-2.5293,-2.4876,-2.4728,-2.3343,-2.1856,-2.1826,-2.207,-2.2607,-2.3746,-2.4589,-2.5147,-2.5179,-2.5288,-2.5406,-2.5523,-2.5601,-2.5593,-2.554,-2.5504,-2.5493,-2.5493,-2.5446,-2.5395,-2.5332,-2.4596,-2.3743,-2.2833,-2.1487,-1.7302,-0.871,-0.4787,0.0002,0.6935,1.1932,1.4586,1.4315,1.3073,1.1638,1.0035,0.7849,0.4156,-0.1263,-0.2958,-0.5671,-0.9487,-1.1519,-1.1486,-0.9449,-0.7529,-0.5775,0.0,-0.196,-0.2934,-0.2807,-0.4279,-0.5593,-0.5045,-0.5181,0.0,-0.4176,-0.3196,-0.2091,-0.0686,-0.0481,0.017,0.2207,0.4056,0.5672,0.6887,0.7146,0.5522,0.0844,-0.2828,-0.6148,-0.9086,-1.2152,-1.4338,-1.533,-1.7287,-1.9366,-2.1592,-2.4433,-2.7199,-2.9807,-3.3717,-3.6436,-3.776,-3.7813,-3.6657,-3.4295,-3.2257,-2.9832,-2.7005,-2.3022,-2.1386,-2.1618,-1.9225,-1.8538,-1.9163,-1.9405,-1.8846,-1.7914,-1.8836,-1.8977,-1.8705,-1.9114,-2.0254,-2.1711,-2.2557,-2.3435,-2.4348,-2.5289,-2.5176,-2.4632,-2.4432,-2.3543,-2.2429,-2.1458,-2.2001,-2.2886,-2.2867,-2.3894,-2.493,-2.5001,-2.5137,-2.5324,-2.5479,-2.5507,-2.5478,-2.541,-2.5337,-2.5279,-2.5269,-2.5168,-2.5091,-2.5178,-2.4494,-2.3689,-2.2927,-2.1141,-1.8374,-1.4206,-0.7606,-0.1458,0.3548,1.0547,1.3912,1.2116,1.2488,1.2034,1.0374,0.8634,0.6436,0.3727,0.156,-0.1858,-0.659,-0.923,-1.0487,-1.0424,-0.8437,-0.7072,-0.0136,0.0,-0.2314,-0.1997,-0.3502,-0.4979,0.0,0.0,0.0,0.0,0.0,-0.2471,-0.1863,-0.2043,-0.1549,0.0636,0.2386,0.3948,0.5271,0.5742,0.4591,0.0875,-0.1666,-0.4191,-0.6976,-0.9145,-1.073,-1.1631,-1.3471,-1.5241,-1.6756,-2.0131,-2.3229,-2.587,-2.8407,-3.1663,-3.5661,-3.5433,-3.499,-3.441,-3.0839,-2.8606,-2.7474,-2.2434,-2.0221,-2.0218,-1.7359,-1.6634,-1.7515,-1.7037,-1.6943,-1.7093,-1.657,-1.7145,-1.8235,-1.8019,-1.9012,-2.0664,-2.1924,-2.2708,-2.3405,-2.4946,-2.5372,-2.5249,-2.4994,-2.3979,-2.2914,-2.2901,-2.2844,-2.2868,-2.3429,-2.3897,-2.4372,-2.4877,-2.5037,-2.5156,-2.5494,-2.5498,-2.5401,-2.5335,-2.5146,-2.4981,-2.4929,-2.4905,-2.4885,-2.4953,-2.4203,-2.3249,-2.2186,-2.0109,-1.636,-1.0191,-0.7036,-0.3156,0.2333,0.8691,1.2843,1.3948,1.3099,1.2187,1.1309,1.0281,0.8089,0.459,-0.1626,-0.5704,-0.7487,-1.0166,-1.1035,-1.0164,-0.8994,-0.8089,0.027,-0.0834,-0.1909,-0.1827,-0.3277,-0.4591,-0.3963,0.0,0.0,0.0,0.0,-0.2876,-0.2441,-0.2489,-0.2118,-0.0554,0.131,0.2997,0.4385,0.4889,0.4078,0.1251,-0.061,-0.2501,-0.4713,-0.6671,-0.8037,-0.8627,-1.0586,-1.2324,-1.37,-1.7194,-2.0429,-2.3333,-2.5371,-2.8454,-3.2637,-3.2572,-3.2348,-3.1998,-2.9221,-2.734,-2.6129,-2.1883,-1.9584,-1.8852,-1.6656,-1.5911,-1.6244,-1.5931,-1.5742,-1.5595,-1.5284,-1.5948,-1.705,-1.7032,-1.8153,-1.9887,-2.1262,-2.2632,-2.3927,-2.4947,-2.5325,-2.5401,-2.5349,-2.4788,-2.4073,-2.3732,-2.3157,-2.2772,-2.335,-2.3681,-2.3897,-2.4081,-2.4524,-2.4929,-2.4998,-2.5168,-2.5289,-2.5173,-2.4927,-2.4681,-2.4526,-2.4463,-2.4291,-2.3908,-2.2901,-2.1609,-1.9907,-1.7729,-1.4602,-1.0081,-0.7759,-0.5205,-0.204,0.244,0.6868,1.1047,1.0659,1.0752,1.1788,1.0794,0.8924,0.614,-0.0482,-0.4212,-0.4868,-0.9316,-1.0804,-0.9532,-0.9242,-0.8925,0.0439,-0.0528,-0.155,-0.1834,-0.3149,-0.4234,-0.3608,0.0,0.0,0.0,0.0,0.0,-0.2697,-0.2537,-0.2209,-0.132,0.0688,0.2591,0.3856,0.4206,0.3687,0.1825,0.0264,-0.1296,-0.2966,-0.478,-0.6022,-0.6522,-0.8445,-1.0277,-1.1787,-1.506,-1.8267,-2.1355,-2.343,-2.5917,-2.8911,-2.952,-2.9423,-2.8612,-2.7341,-2.5799,-2.3904,-2.0974,-1.8812,-1.7297,-1.5903,-1.5116,-1.4865,-1.4809,-1.4385,-1.376,-1.3869,-1.4373,-1.511,-1.5749,-1.7069,-1.8804,-2.0536,-2.2685,-2.4694,-2.499,-2.5186,-2.537,-2.5551,-2.5546,-2.5292,-2.4272,-2.3437,-2.2918,-2.3129,-2.3459,-2.3674,-2.338,-2.4052,-2.4715,-2.4472,-2.4785,-2.5063,-2.4878,-2.459,-2.43,-2.4006,-2.3874,-2.3353,-2.2073,-2.0705,-1.884,-1.6118,-1.41,-1.2351,-1.0847,-0.8923,-0.7792,-0.7862,-0.5933,-0.211,0.4067,0.602,0.8244,1.1152,1.0251,0.9004,0.7488,0.2257,-0.0765,-0.1465,-0.7423,-0.9841,-0.8878,-0.9197,-0.9557,0.048,-0.0205,-0.094,-0.1375,-0.2433,-0.3275,-0.3069,-0.3262,0.0,0.0,0.0,0.0,-0.3158,-0.3286,-0.2875,-0.1226,0.0927,0.2554,0.3082,0.2945,0.267,0.251,0.0594,-0.1371,-0.3091,-0.4117,-0.5118,-0.6176,-0.7566,-0.9097,-1.074,-1.3366,-1.6176,-1.9033,-2.1018,-2.2845,-2.4544,-2.6619,-2.7283,-2.6471,-2.4949,-2.3392,-2.1681,-1.8781,-1.6579,-1.4897,-1.295,-1.2229,-1.2338,-1.1102,-1.119,-1.1912,-1.0083,-1.0298,-1.1735,-1.3112,-1.4474,-1.6148,-1.9649,-2.2041,-2.3707,-2.4635,-2.5174,-2.5499,-2.5578,-2.5546,-2.5383,-2.487,-2.4471,-2.4104,-2.3645,-2.3792,-2.4076,-2.4181,-2.4457,-2.4764,-2.4932,-2.483,-2.4579,-2.4208,-2.4025,-2.378,-2.3333,-2.3016,-2.1853,-1.9042,-1.7057,-1.4276,-0.9815,-0.8497,-0.7898,-0.7623,-0.9514,-1.1423,-1.2891,-1.3987,-1.2782,-0.8701,-0.0952,0.4656,0.7319,0.8056,0.7892,0.6855,0.2821,-0.0045,-0.1648,-0.5106,-0.7471,-0.8804,-0.894,-0.9956,0.0388,-0.0351,-0.1031,-0.085,-0.1426,-0.2086,-0.2085,-0.2105,-0.2246,0.0,-0.2771,-0.2686,-0.2649,-0.3043,-0.2669,-0.0627,0.0878,0.1836,0.2005,0.1766,0.1396,0.0953,-0.0221,-0.1638,-0.317,-0.4025,-0.4823,-0.576,-0.7195,-0.8705,-1.0376,-1.255,-1.4895,-1.7422,-1.9041,-2.0395,-2.1614,-2.2649,-2.3537,-2.4227,-2.2611,-2.1196,-1.9851,-1.7356,-1.5188,-1.3374,-1.1921,-1.1064,-1.0649,-0.9763,-0.9493,-0.9493,-0.8265,-0.8341,-0.9417,-1.2401,-1.4762,-1.6875,-1.9477,-2.0947,-2.2039,-2.4279,-2.4883,-2.4855,-2.5426,-2.5546,-2.5442,-2.5222,-2.4853,-2.4392,-2.3878,-2.3741,-2.3687,-2.3583,-2.363,-2.3755,-2.3839,-2.3746,-2.3652,-2.3712,-2.3473,-2.3124,-2.2686,-2.0568,-1.7783,-1.4413,-1.0547,-0.6581,-0.2588,-0.1807,-0.2557,-0.4947,-0.8728,-1.2815,-1.7153,-1.9813,-1.8214,-1.0951,-0.3101,0.2014,0.3723,0.5967,0.7066,0.6876,0.3974,0.1523,-0.0358,-0.3801,-0.617,-0.7592,-0.9186,-1.0638,0.0262,-0.0408,-0.0967,-0.0242,-0.0634,-0.1132,-0.1064,-0.1067,-0.12,-0.1655,-0.1964,-0.2188,-0.2215,-0.2375,-0.1723,0.0534,0.1232,0.1334,0.0912,0.0824,0.0392,-0.0617,-0.1064,-0.179,-0.3142,-0.3802,-0.4567,-0.5492,-0.6897,-0.8435,-1.0077,-1.1915,-1.3957,-1.6195,-1.7476,-1.8585,-1.9534,-1.9141,-1.9849,-2.1613,-2.0168,-1.8825,-1.7534,-1.5717,-1.368,-1.1658,-1.0805,-0.9803,-0.8762,-0.8384,-0.7775,-0.7104,-0.6569,-0.6616,-0.7392,-1.0568,-1.3731,-1.6787,-1.8997,-1.9776,-2.018,-2.2686,-2.3503,-2.3709,-2.457,-2.4963,-2.5182,-2.5418,-2.5038,-2.4482,-2.4141,-2.3916,-2.3591,-2.2971,-2.2811,-2.2734,-2.2562,-2.245,-2.2516,-2.2997,-2.2754,-2.2285,-2.1563,-1.7595,-1.3114,-0.8902,-0.3337,0.1654,0.5215,0.5137,0.2847,-0.2187,-0.7688,-1.4236,-2.2364,-2.5366,-2.3378,-1.5202,-0.7308,-0.2204,-0.0542,0.2761,0.4752,0.5228,0.3539,0.2185,0.1227,-0.2685,-0.5494,-0.7213,-0.9537,-1.1143,0.0067,-0.007,-0.0147,0.0465,-0.0197,-0.0848,-0.0219,-0.0623,-0.1114,-0.1248,-0.1382,-0.1713,-0.253,-0.1599,0.0151,0.2678,0.2546,0.1612,0.0,0.0168,0.0,-0.1122,-0.1178,-0.1681,-0.3135,-0.3244,-0.3901,-0.566,-0.6627,-0.7853,-0.937,-1.119,-1.3135,-1.5218,-1.6522,-1.7564,-1.8418,-1.7376,-1.7262,-1.8044,-1.745,-1.6048,-1.4025,-1.3334,-1.1544,-0.8958,-0.8367,-0.7396,-0.6126,-0.5561,-0.525,-0.5108,-0.4009,-0.4227,-0.5234,-0.553,-0.8557,-1.3131,-1.7551,-1.8716,-1.8313,-1.8611,-2.0131,-2.195,-2.2399,-2.3233,-2.4274,-2.5427,-2.5248,-2.4662,-2.4568,-2.4667,-2.4464,-2.3204,-2.2663,-2.2295,-2.1803,-2.1405,-2.1267,-2.1752,-2.1694,-2.1068,-1.9421,-1.449,-0.8724,-0.2601,0.369,0.9295,1.3647,1.1961,0.7874,0.1254,-0.6704,-1.6893,-3.0103,-3.1557,-3.1039,-2.9307,-1.8175,-0.9978,-0.6169,-0.2754,-0.0618,0.0038,-0.03,0.0494,0.2444,-0.1485,-0.5366,-0.9119,-0.9741,-1.1199,-0.0068,0.0071,0.0344,0.109,0.0839,0.0,0.0,0.0848,0.0759,0.0223,0.0228,0.0094,-0.0623,-0.0251,0.0779,0.2513,0.2152,0.1322,0.039,0.0056,-0.0449,-0.1515,-0.1289,-0.1621,-0.2907,-0.3014,-0.3566,-0.5011,-0.6091,-0.7094,-0.8171,-0.9654,-1.1318,-1.3087,-1.3976,-1.471,-1.5379,-1.4158,-1.3181,-1.2503,-1.3217,-1.3263,-1.2582,-1.0576,-0.9024,-0.782,-0.6406,-0.5169,-0.4172,-0.3356,-0.293,-0.2675,-0.1934,-0.2049,-0.2624,-0.2101,-0.2891,-0.5662,-1.5489,-1.7024,-1.49,-1.6273,-1.8182,-2.0245,-2.1716,-2.2886,-2.3785,-2.4081,-2.4395,-2.48,-2.5527,-2.4691,-2.347,-2.2717,-2.1476,-2.0469,-2.0471,-2.0025,-1.9869,-2.0687,-2.0407,-1.8948,-1.5454,-0.901,-0.1925,0.5263,1.2113,1.7522,2.0457,1.8083,1.267,0.3627,-1.1985,-2.5682,-3.5496,-3.6766,-3.6236,-3.441,-2.3307,-1.5307,-1.1915,-0.6548,-0.3236,-0.2245,-0.1114,-0.0833,-0.1427,-0.2695,-0.4171,-0.59,-0.8685,-0.9857,-0.0278,-0.0,0.0432,0.1541,0.0,0.0,0.1605,0.1614,0.1462,0.0868,0.076,0.074,0.0749,0.0834,0.1287,0.2501,0.2077,0.134,0.0614,-0.0,-0.0673,-0.1347,-0.1176,-0.1281,-0.2093,-0.2415,-0.3056,-0.4164,-0.532,-0.6349,-0.72,-0.8463,-0.9851,-1.1323,-1.2073,-1.2488,-1.2624,-1.138,-0.99,-0.8227,-0.8574,-0.9115,-0.9756,-0.7731,-0.6452,-0.5747,-0.4316,-0.3144,-0.2211,-0.1463,-0.0952,-0.0622,-0.0318,-0.0274,-0.0389,0.0,0.0212,-0.0931,-0.9675,-1.2153,-1.1885,-1.4409,-1.6485,-1.8353,-2.0399,-2.179,-2.2735,-2.3122,-2.3598,-2.4234,-2.5383,-2.4353,-2.2772,-2.1834,-2.0342,-1.9102,-1.8964,-1.8516,-1.8408,-1.9356,-1.8972,-1.6848,-1.1675,-0.4171,0.382,1.186,1.9004,2.3991,2.5588,2.309,1.5661,0.1321,-1.7858,-3.2242,-3.8739,-4.0202,-3.984,-3.754,-2.8591,-2.1343,-1.6735,-1.0383,-0.6412,-0.5234,-0.308,-0.2903,-0.4833,-0.4013,-0.3978,-0.4856,-0.8089,-0.9113,-0.0508,-0.0338,0.004,0.1835,0.0,0.2214,0.2207,0.1418,0.0666,0.0428,-0.02,-0.0262,0.1219,0.1578,0.1944,0.2961,0.2567,0.1785,0.0559,-0.0056,-0.0505,-0.0673,-0.0729,-0.0664,-0.0535,-0.1432,-0.2345,-0.3216,-0.4398,-0.558,-0.6653,-0.7775,-0.8939,-1.0139,-1.1163,-1.1259,-1.0473,-0.9276,-0.7702,-0.5837,-0.3554,-0.3357,-0.5059,-0.4789,-0.3822,-0.2353,-0.2076,-0.1266,-0.0133,0.0133,0.0519,0.0998,0.0797,0.1019,0.1413,0.0786,0.0283,-0.0042,0.0359,-0.3682,-0.9538,-1.2904,-1.4828,-1.623,-1.8115,-1.9597,-2.0975,-2.2772,-2.2951,-2.2824,-2.3819,-2.3632,-2.2658,-2.0595,-1.9412,-1.8442,-1.7258,-1.6827,-1.6944,-1.7752,-1.7383,-1.4931,-0.8362,-0.0419,0.8,1.6735,2.3817,2.837,2.8945,2.6612,1.6273,-0.6206,-2.3488,-3.5248,-3.976,-4.1784,-4.1807,-3.9457,-3.4772,-2.8508,-2.0481,-1.4429,-1.0666,-0.9466,-0.6729,-0.5851,-0.6872,-0.5066,-0.5198,-0.7097,-0.8234,-0.9271,-0.0772,-0.0081,0.0736,0.169,0.2129,0.2238,0.2234,0.1811,0.1007,-0.0542,-0.0873,-0.0374,0.1098,0.1387,0.173,0.28,0.2293,0.1509,0.0726,-0.0112,-0.0841,-0.1512,-0.0784,-0.067,-0.1934,-0.1721,-0.2106,-0.3548,-0.4472,-0.5247,-0.598,-0.6186,-0.7055,-0.8679,-0.8841,-0.8477,-0.7532,-0.5952,-0.3997,-0.1741,0.0041,-0.0666,-0.3498,-0.1925,-0.1066,-0.0789,0.0388,0.1187,0.1728,0.1908,0.1943,0.1883,0.1733,0.1581,0.1534,0.2355,0.1717,0.0287,-0.1128,-0.4499,-0.8618,-1.1111,-1.355,-1.5792,-1.7101,-1.8983,-2.0742,-2.1033,-2.1713,-2.2207,-2.1812,-2.1458,-2.1049,-2.0212,-1.8559,-1.7086,-1.695,-1.6441,-1.6265,-1.7223,-1.6481,-1.3114,-0.4856,0.2549,1.0734,2.0778,2.7604,3.1186,3.0011,1.8045,0.4832,-0.7877,-2.4864,-3.7423,-4.2675,-4.3434,-4.259,-4.0149,-3.5439,-2.9935,-2.3652,-1.7761,-1.3521,-1.1135,-0.8463,-0.6954,-0.6609,-0.5202,-0.4577,-0.4747,-0.67,-0.7504,-0.0973,-0.0429,0.0275,0.124,0.1655,0.1868,0.2143,0.1663,0.0697,-0.0871,-0.1061,-0.0598,0.0329,0.0831,0.1285,0.1679,0.1285,0.0614,-0.0112,-0.0895,-0.1513,-0.179,-0.1106,-0.0981,-0.2044,-0.1815,-0.2114,-0.3375,-0.4031,-0.4677,-0.5371,-0.4909,-0.53,-0.6694,-0.6297,-0.5484,-0.4304,-0.2728,-0.0822,0.1423,0.2708,0.2278,0.0395,0.1243,0.1631,0.1675,0.2738,0.3312,0.3534,0.3375,0.312,0.2771,0.2416,0.2052,0.1764,0.2184,0.1231,-0.0648,-0.334,-0.6052,-0.8805,-1.1235,-1.3502,-1.5453,-1.6568,-1.8725,-2.0743,-2.061,-2.1321,-2.1967,-2.1133,-2.0377,-1.9691,-1.931,-1.7706,-1.6253,-1.6229,-1.5672,-1.544,-1.6296,-1.5497,-1.1685,-0.2264,0.429,1.2075,2.3465,3.0084,3.2517,2.9015,1.3374,-0.0839,-0.9854,-2.6504,-3.876,-4.3189,-4.3531,-4.2396,-3.9835,-3.539,-3.081,-2.6171,-2.0268,-1.5859,-1.3247,-1.0597,-0.9004,-0.8439,-0.723,-0.6574,-0.6421,-0.7529,-0.7551,-0.1139,-0.1116,-0.0991,0.0475,0.0982,0.1328,0.2014,0.1164,0.0,-0.0691,-0.0928,-0.0995,-0.0801,0.0,0.0502,-0.0,-0.0168,-0.0559,-0.151,-0.2127,-0.2296,-0.1789,-0.1572,-0.1469,-0.1526,-0.1944,-0.247,-0.3152,-0.3496,-0.401,-0.4887,-0.4023,-0.3907,-0.4769,-0.3773,-0.2537,-0.1124,0.0283,0.1954,0.3775,0.4607,0.5166,0.5446,0.434,0.4134,0.4587,0.486,0.5038,0.5125,0.4574,0.406,0.3554,0.2856,0.2388,0.1929,0.0795,-0.07,-0.2636,-0.5683,-0.7944,-0.9947,-1.252,-1.4152,-1.5271,-1.6464,-1.8708,-2.0853,-2.1042,-2.1577,-2.1975,-2.1378,-2.0109,-1.8806,-1.8101,-1.6936,-1.5835,-1.5262,-1.4708,-1.4538,-1.531,-1.4623,-1.0797,-0.096,0.4791,1.2413,2.5375,3.1579,3.2706,2.7022,1.183,-0.2085,-1.1717,-2.8022,-3.9328,-4.1988,-4.2366,-4.1357,-3.8762,-3.4835,-3.1209,-2.808,-2.2159,-1.7908,-1.5681,-1.307,-1.1726,-1.1696,-1.0605,-1.0322,-1.0743,-1.0078,-0.9219,-0.1104,-0.1163,-0.1281,-0.0755,0.0298,0.1415,0.2028,0.1604,0.0713,-0.0375,-0.1363,-0.1929,-0.1441,-0.1252,-0.1113,-0.0781,-0.0614,-0.0838,-0.1621,-0.2183,-0.2575,-0.274,-0.2329,-0.2349,-0.3271,-0.3008,-0.334,-0.4654,-0.4264,-0.4286,-0.4933,-0.4308,-0.4354,-0.5387,-0.206,-0.0101,0.0191,0.2855,0.4475,0.5039,0.6079,0.6731,0.6919,0.5632,0.5347,0.5899,0.6081,0.5959,0.561,0.514,0.4438,0.3605,0.284,0.2024,0.1088,-0.0201,-0.2573,-0.5239,-0.5526,-0.8387,-1.1813,-1.1576,-1.3309,-1.5704,-1.6677,-1.8553,-2.0436,-2.082,-2.1491,-2.1872,-2.085,-2.0007,-1.9129,-1.7772,-1.6205,-1.4913,-1.4642,-1.4092,-1.4308,-1.6441,-1.5299,-1.1421,-0.335,0.3199,1.2783,2.8935,3.3135,3.2865,2.8407,1.1953,-0.2656,-1.1328,-2.7657,-3.8888,-4.1315,-4.0978,-3.984,-3.7874,-3.4089,-3.1082,-2.9213,-2.4221,-2.051,-1.8319,-1.6321,-1.4875,-1.4,-1.2852,-1.243,-1.2713,-1.2635,-1.2519,-0.0699,-0.0851,-0.1075,-0.0885,0.0454,0.1824,0.2266,0.2073,0.1449,0.0492,-0.1045,-0.2201,-0.208,-0.2392,-0.25,-0.2119,-0.1895,-0.1896,-0.2348,-0.2742,-0.3077,-0.3408,-0.3299,-0.3567,-0.4502,-0.4268,-0.4422,-0.5227,-0.4597,-0.4423,-0.4952,-0.4127,-0.401,-0.4835,-0.2156,-0.0199,0.0885,0.3129,0.4974,0.6419,0.6942,0.7316,0.7483,0.6856,0.6848,0.7308,0.7419,0.7217,0.6756,0.6263,0.5409,0.4386,0.3584,0.1639,-0.0793,-0.1724,-0.4583,-0.7925,-0.7188,-0.96,-1.2881,-1.2091,-1.39,-1.6502,-1.7264,-1.9268,-2.1356,-2.1618,-2.2146,-2.233,-2.099,-1.9804,-1.8425,-1.6505,-1.5124,-1.4261,-1.438,-1.4252,-1.4651,-1.6598,-1.5096,-1.118,-0.3824,0.7308,1.866,2.8904,3.241,3.1555,2.5141,1.1064,-0.2536,-1.3476,-2.7365,-3.6979,-3.9812,-3.9201,-3.8005,-3.64,-3.2744,-3.0082,-2.8828,-2.5386,-2.2604,-2.0717,-1.9417,-1.8304,-1.7435,-1.7108,-1.6778,-1.64,-1.5863,-1.4878,-0.021,-0.0308,-0.0472,-0.0401,0.0801,0.2123,0.2475,0.2395,0.1997,0.1339,-0.0556,-0.2203,-0.2525,-0.3276,-0.3727,-0.3456,-0.3065,-0.2956,-0.313,-0.3244,-0.3469,-0.3741,-0.411,-0.4613,-0.527,-0.5279,-0.5339,-0.5552,-0.4885,-0.4668,-0.5106,-0.4158,-0.3918,-0.4491,-0.3351,-0.1498,0.0925,0.2449,0.4553,0.7258,0.7414,0.7646,0.7946,0.8095,0.8261,0.848,0.858,0.8412,0.8024,0.7517,0.6561,0.5413,0.4555,0.1476,-0.2658,-0.3227,-0.613,-0.9688,-0.9166,-1.0889,-1.3297,-1.3042,-1.485,-1.7203,-1.7993,-2.02,-2.2432,-2.2514,-2.2783,-2.2717,-2.1216,-1.9417,-1.7466,-1.5568,-1.4301,-1.3667,-1.4161,-1.4494,-1.5067,-1.6409,-1.3686,-0.8846,-0.1604,1.3071,2.4772,2.7653,3.0759,2.9516,2.0528,0.9395,-0.2724,-1.5946,-2.7047,-3.4652,-3.7479,-3.6901,-3.5755,-3.4312,-3.1021,-2.8754,-2.7874,-2.5876,-2.4164,-2.28,-2.2285,-2.1694,-2.0964,-2.1398,-2.1053,-1.9947,-1.8764,-1.6877,0.0,0.0408,0.0765,0.0451,0.0866,0.1515,0.2121,0.2282,0.2136,0.1664,-0.0554,-0.232,-0.227,-0.3495,-0.4395,-0.3849,-0.3188,-0.2856,-0.3302,-0.3244,-0.3297,-0.3741,-0.4167,-0.4711,-0.5458,-0.5562,-0.5701,-0.6172,-0.5476,-0.5218,-0.5593,-0.5375,-0.5699,-0.6643,-0.5068,-0.2896,-0.0138,0.2019,0.4165,0.6219,0.7594,0.864,0.9346,0.9187,0.8998,0.8822,0.9101,0.8996,0.8663,0.821,0.7309,0.6105,0.5215,0.1698,-0.2967,-0.4026,-0.6162,-0.8689,-0.9636,-1.1192,-1.2841,-1.346,-1.5153,-1.7187,-1.8673,-2.0534,-2.2248,-2.2645,-2.2604,-2.2135,-2.0868,-1.8776,-1.6948,-1.6743,-1.4754,-1.3064,-1.3689,-1.4175,-1.5019,-1.6707,-0.9837,-0.1341,0.6192,1.6135,2.4153,2.7436,2.9458,2.7296,1.814,0.6833,-0.4721,-1.6112,-2.6584,-3.3019,-3.3702,-3.3579,-3.2785,-3.1207,-2.8994,-2.7605,-2.7251,-2.5659,-2.4646,-2.4299,-2.4781,-2.445,-2.3263,-2.2992,-2.2094,-2.0659,-1.9904,-1.913,-0.0122,0.0409,0.1083,0.0839,0.1465,0.2156,0.2389,0.2523,0.2516,0.2174,0.0167,-0.1771,-0.2393,-0.384,-0.4677,-0.4012,-0.3352,-0.293,-0.2928,-0.2932,-0.318,-0.3887,-0.4409,-0.5068,-0.5875,-0.6007,-0.6137,-0.6272,-0.5774,-0.5566,-0.5902,-0.5695,-0.6001,-0.6965,-0.6439,-0.45,-0.0942,0.0491,0.3265,0.7408,0.8705,0.9406,0.9658,0.9731,0.9614,0.9435,0.9786,0.972,0.9391,0.9137,0.7985,0.6327,0.5317,0.168,-0.3177,-0.49,-0.7019,-0.9088,-1.0027,-1.178,-1.348,-1.3073,-1.4754,-1.7235,-1.8765,-2.05,-2.2074,-2.2771,-2.2651,-2.1926,-2.0257,-1.8061,-1.5377,-1.2027,-0.9805,-0.8425,-0.8105,-1.2448,-1.586,-1.3992,-0.862,-0.1423,0.7841,1.5932,2.2288,2.575,2.5885,2.2406,1.351,0.3336,-0.7418,-1.8841,-2.5964,-3.037,-3.1502,-3.1562,-3.1072,-2.9967,-2.8489,-2.7317,-2.6527,-2.5392,-2.458,-2.4066,-2.4601,-2.4671,-2.4266,-2.3859,-2.3135,-2.212,-2.1414,-2.0638,-0.0165,0.033,0.1072,0.0924,0.1777,0.2658,0.2679,0.2817,0.2779,0.2204,0.0616,-0.1057,-0.2363,-0.3752,-0.457,-0.407,-0.3408,-0.2889,-0.2459,-0.2646,-0.3089,-0.3922,-0.4539,-0.5201,-0.6059,-0.6225,-0.6313,-0.642,-0.5972,-0.5828,-0.6144,-0.5873,-0.6154,-0.7081,-0.7289,-0.5463,-0.1543,0.051,0.3913,0.8621,0.9429,0.9828,0.9814,1.0234,1.0324,1.0242,1.0446,1.0347,1.0003,0.974,0.8595,0.6799,0.5538,0.2249,-0.2186,-0.4733,-0.6842,-0.8633,-0.9937,-1.1892,-1.3611,-1.2739,-1.4389,-1.6974,-1.8293,-1.9954,-2.157,-2.2323,-2.2116,-2.1249,-1.9361,-1.6219,-1.2374,-0.7804,-0.48,-0.3474,-0.5283,-1.1511,-1.5749,-1.2198,-0.8264,-0.2372,0.7594,1.3968,1.878,2.1929,2.0361,1.5872,0.769,-0.0894,-1.0177,-2.0537,-2.5197,-2.8105,-2.9453,-2.9608,-2.9355,-2.873,-2.7882,-2.6925,-2.5867,-2.5051,-2.4374,-2.3755,-2.3799,-2.3957,-2.4277,-2.3986,-2.3487,-2.2761,-2.2277,-2.153,-0.004,0.0325,0.0761,0.0567,0.1418,0.2419,0.2742,0.2897,0.2657,0.133,0.0456,-0.0506,-0.2032,-0.3076,-0.3741,-0.3866,-0.3251,-0.255,-0.199,-0.2354,-0.2975,-0.3613,-0.4243,-0.4977,-0.5895,-0.6008,-0.6213,-0.6632,-0.6263,-0.6105,-0.6367,-0.6178,-0.6581,-0.7734,-0.7208,-0.5252,-0.1827,0.3667,0.7274,0.8963,0.9215,0.9585,1.0093,1.0902,1.1297,1.1409,1.1099,1.072,1.0262,0.9802,0.9013,0.7949,0.6253,0.3815,0.0851,-0.2708,-0.4687,-0.6064,-0.9094,-1.1063,-1.2355,-1.2686,-1.4244,-1.6209,-1.7032,-1.8735,-2.0429,-2.0795,-2.0472,-1.9684,-1.8179,-1.255,-0.7175,-0.6869,-0.1863,0.0267,-0.9232,-1.2583,-1.3624,-1.3259,-0.8326,-0.1599,0.6492,1.0293,1.2912,1.5021,1.2365,0.7665,0.0788,-0.611,-1.2882,-1.9422,-2.422,-2.6965,-2.6991,-2.7172,-2.7107,-2.677,-2.6454,-2.5999,-2.5363,-2.4601,-2.4175,-2.4084,-2.3043,-2.2712,-2.3093,-2.3186,-2.2663,-2.1587,-2.1817,-2.1633,0.0514,0.1229,0.2045,0.1181,0.1942,0.2928,0.2904,0.2677,0.2318,0.1755,0.0563,-0.0448,-0.0567,-0.1573,-0.2399,-0.2348,-0.1623,-0.1077,-0.1113,-0.1588,-0.2319,-0.331,-0.3889,-0.451,-0.5439,-0.5458,-0.5602,-0.6024,-0.5967,-0.6062,-0.638,-0.6497,-0.6557,-0.6556,-0.693,-0.5095,-0.0862,0.2884,0.5882,0.8099,0.7004,0.7501,0.9419,1.0321,1.0714,1.0749,1.1238,1.1257,1.0933,0.9992,0.8869,0.7717,0.673,0.4761,0.2113,-0.0264,-0.2467,-0.496,-0.9351,-1.181,-1.289,-1.2372,-1.351,-1.5207,-1.5739,-1.741,-1.9199,-1.992,-1.9975,-1.9421,-1.7606,-1.181,-0.4619,0.2544,0.6942,0.688,-0.2815,-0.8106,-1.1172,-1.1776,-0.9007,-0.3681,0.5562,0.9207,1.1107,1.185,0.8595,0.3329,-0.4196,-0.9301,-1.487,-2.1765,-2.4019,-2.5257,-2.5793,-2.6224,-2.6643,-2.7092,-2.5982,-2.5389,-2.5564,-2.4595,-2.3799,-2.3191,-2.2802,-2.2795,-2.3177,-2.3033,-2.2615,-2.1948,-2.2132,-2.2017,0.0973,0.1473,0.2102,0.1268,0.1696,0.2343,0.2407,0.213,0.1824,0.1357,0.0563,0.0112,0.0847,0.0391,-0.0111,-0.0278,0.0,0.0339,0.0527,-0.0528,-0.1723,-0.2881,-0.347,-0.4201,-0.5137,-0.5147,-0.5211,-0.5562,-0.5756,-0.5942,-0.6234,-0.6347,-0.6075,-0.5329,-0.62,-0.4755,-0.0749,0.166,0.3639,0.5222,0.4928,0.573,0.7558,0.9214,0.9895,0.9787,1.0455,1.0889,1.1015,0.9987,0.8962,0.7955,0.7219,0.6147,0.4581,0.1607,-0.0582,-0.284,-0.8482,-1.1387,-1.2567,-1.2215,-1.3175,-1.4494,-1.4777,-1.6137,-1.7791,-1.862,-1.896,-1.8422,-1.5334,-0.7784,0.1499,1.1131,1.4343,1.2561,0.2894,-0.3452,-0.8041,-1.0565,-0.8844,-0.4525,0.314,0.5849,0.6892,0.6598,0.2876,-0.2171,-0.8573,-1.2133,-1.6332,-2.22,-2.3377,-2.4125,-2.5108,-2.6103,-2.6848,-2.7256,-2.624,-2.5599,-2.5621,-2.4486,-2.3634,-2.3117,-2.2731,-2.2735,-2.3159,-2.2936,-2.2601,-2.2171,-2.2575,-2.2709,0.0,0.0,0.0,0.0782,0.0652,0.0682,0.1097,0.1292,0.1082,0.0115,0.0456,0.118,0.2013,0.2865,0.3189,0.2377,0.1715,0.1682,0.2791,0.0817,-0.1182,-0.2254,-0.3152,-0.4032,-0.4959,-0.5006,-0.5093,-0.5358,-0.5585,-0.578,-0.5878,-0.5664,-0.5056,-0.4085,-0.5013,-0.4184,-0.1493,0.0308,0.0993,0.0523,0.3147,0.4403,0.4486,0.7597,0.8808,0.8464,0.8743,0.9437,1.0246,0.9732,0.9189,0.8592,0.7681,0.7978,0.8292,0.2955,0.1063,0.0261,-0.642,-0.9826,-1.137,-1.2366,-1.3453,-1.4318,-1.4264,-1.5159,-1.6308,-1.69,-1.7401,-1.6512,-1.1147,-0.0195,1.1104,1.7732,1.9434,1.6826,0.6889,0.1006,-0.4059,-0.973,-0.7664,-0.3952,-0.0654,0.0177,0.0,-0.1035,-0.4872,-0.8914,-1.2297,-1.4639,-1.7165,-2.0283,-2.2139,-2.3646,-2.4901,-2.6676,-2.7539,-2.7122,-2.7112,-2.6627,-2.5552,-2.4284,-2.3695,-2.389,-2.2805,-2.2439,-2.2884,-2.2902,-2.2643,-2.2122,-2.3038,-2.3606,0.2011,0.0,0.0,0.0,0.0,0.0,0.0867,0.0811,0.0907,0.087,0.1514,0.2307,0.3013,0.4976,0.6392,0.6199,0.477,0.3282,0.1936,0.0784,-0.0579,-0.2401,-0.3018,-0.3614,-0.4302,-0.4451,-0.4618,-0.4854,-0.5555,-0.5815,-0.5335,-0.4227,-0.3475,-0.3307,-0.1567,-0.064,-0.0642,-0.0642,-0.0233,0.0549,-0.0165,0.0334,0.1962,0.3709,0.4452,0.4463,0.5626,0.5985,0.5838,0.746,0.7289,0.6004,0.7257,0.7371,0.6897,0.7547,0.4151,-0.1595,-0.7524,-1.1376,-1.3854,-1.4701,-1.5936,-1.7118,-1.7194,-1.7617,-1.7971,-1.7236,-1.6561,-1.3834,-0.4156,0.312,0.9514,1.5873,1.776,1.6397,0.9951,0.6755,0.271,-0.5443,-0.6022,-0.3929,0.0055,0.0056,-0.0998,-0.2417,-0.5018,-0.8065,-1.1479,-1.355,-1.5833,-1.8789,-2.0844,-2.2728,-2.4633,-2.5533,-2.6239,-2.6775,-2.5706,-2.5129,-2.535,-2.4226,-2.3631,-2.3684,-2.3164,-2.2746,-2.241,-2.2845,-2.2698,-2.2041,-2.2539,-2.2715,0.0,0.0,0.2485,0.2257,0.0,0.0,0.0332,0.0295,0.051,0.0984,0.1962,0.3125,0.4372,0.6439,0.8164,0.8723,0.757,0.5694,0.3093,0.1466,-0.0147,-0.2109,-0.2918,-0.3447,-0.3931,-0.427,-0.455,-0.4793,-0.5465,-0.5454,-0.457,-0.3116,-0.2176,-0.1877,-0.0154,0.0259,-0.0914,-0.1776,-0.2052,-0.1795,-0.2536,-0.2185,-0.0894,0.0677,0.1275,0.1197,0.2592,0.2696,0.1994,0.2355,0.2934,0.3852,0.5836,0.6767,0.6916,0.6177,0.3621,-0.0541,-0.831,-1.2674,-1.5016,-1.6321,-1.7567,-1.847,-1.7906,-1.8084,-1.8117,-1.6331,-1.3309,-0.8901,-0.1494,0.4183,0.9167,1.3937,1.6037,1.5931,1.2172,1.006,0.649,-0.1712,-0.3534,-0.2978,-0.0625,-0.1239,-0.2435,-0.3409,-0.5478,-0.7809,-1.0308,-1.2687,-1.504,-1.7501,-2.0271,-2.2608,-2.4239,-2.5407,-2.6154,-2.6394,-2.5482,-2.4964,-2.5004,-2.4282,-2.3739,-2.3451,-2.3218,-2.2749,-2.2042,-2.2834,-2.3006,-2.2581,-2.2758,-2.2673,0.0,0.0,0.0,0.1921,0.0759,0.0,-0.0188,-0.0048,0.024,0.0945,0.2276,0.3959,0.5955,0.7577,0.9024,1.0381,0.9946,0.8357,0.5362,0.2621,0.0141,-0.1887,-0.2948,-0.3605,-0.3873,-0.4408,-0.4787,-0.5013,-0.5149,-0.4735,-0.3588,-0.2069,-0.0907,-0.0167,0.0207,-0.0282,-0.1645,-0.2643,-0.3726,-0.4883,-0.4015,-0.365,-0.3625,-0.1876,-0.1319,-0.1707,-0.0489,-0.0506,-0.156,-0.3968,-0.2437,0.1466,0.2853,0.4696,0.5917,0.064,-0.0,0.0286,-0.9727,-1.3983,-1.5352,-1.7312,-1.8422,-1.876,-1.7486,-1.7377,-1.714,-1.4424,-0.9021,-0.3621,-0.1813,0.3407,0.8859,1.1416,1.3686,1.4836,1.3313,1.1256,0.7888,0.1741,-0.081,-0.2113,-0.2578,-0.3685,-0.4547,-0.465,-0.6418,-0.8209,-0.9545,-1.2222,-1.4689,-1.6513,-2.0164,-2.2805,-2.3627,-2.5524,-2.6412,-2.5855,-2.5792,-2.5423,-2.4676,-2.4379,-2.3942,-2.3272,-2.294,-2.2461,-2.1838,-2.2817,-2.3302,-2.3305,-2.3301,-2.3119,0.3028,0.2541,0.2319,0.1969,0.1208,0.0,0.0182,0.0279,0.0714,0.1861,0.3886,0.5917,0.7521,0.8831,1.0155,1.1619,1.0876,0.9207,0.6687,0.3576,0.034,-0.3039,-0.3788,-0.4204,-0.4646,-0.4716,-0.4798,-0.5079,-0.4284,-0.3406,-0.2478,-0.0212,0.102,0.0992,0.1603,0.1103,-0.0657,-0.1621,-0.2624,-0.3668,-0.4521,-0.4906,-0.4883,-0.4859,-0.4983,-0.5169,-0.4046,-0.4343,-0.5658,-0.6155,-0.5005,-0.3032,-0.5129,-0.559,-0.5148,-0.5914,-0.737,-0.9742,-1.5554,-1.6748,-1.5994,-1.7796,-1.8345,-1.8384,-1.8844,-1.7745,-1.5519,-1.1485,-0.7704,-0.4477,-0.2766,0.0742,0.4331,0.6251,0.8316,1.0283,1.1954,1.0054,0.7494,0.5545,0.0187,-0.4642,-0.6568,-0.7992,-0.8821,-0.8757,-0.889,-0.9801,-1.1931,-1.3259,-1.4715,-1.6578,-1.9697,-2.1859,-2.2402,-2.3335,-2.4121,-2.468,-2.4464,-2.4495,-2.4896,-2.4254,-2.383,-2.3686,-2.2156,-2.1607,-2.2036,-2.2462,-2.2707,-2.2764,-2.3081,-2.3052,0.369,0.2719,0.2055,0.1967,0.1389,0.0,0.0,0.0775,0.129,0.2559,0.4475,0.6446,0.8154,0.9637,1.0966,1.2103,1.1396,1.0076,0.8232,0.4523,0.0758,-0.2611,-0.4036,-0.4814,-0.5005,-0.5105,-0.4809,-0.401,-0.311,-0.2009,-0.0683,0.0978,0.1899,0.1837,0.2364,0.1909,0.03,-0.0844,-0.1914,-0.2988,-0.4828,-0.5667,-0.5639,-0.5619,-0.6073,-0.68,-0.555,-0.6042,-0.7762,-0.9161,-0.9752,-0.9581,-0.7696,-1.0403,-1.4948,-1.1837,-1.2334,-1.4846,-1.6967,-1.7166,-1.679,-1.8485,-1.9436,-1.9706,-1.8673,-1.5839,-1.2443,-0.9704,-0.7085,-0.4938,-0.454,-0.2203,0.0573,0.254,0.4631,0.7037,1.0026,0.8299,0.5213,0.1855,-0.2737,-0.6165,-0.6322,-0.8659,-1.0302,-0.9787,-1.0426,-1.1422,-1.2599,-1.445,-1.5654,-1.5696,-1.8644,-2.0594,-2.0598,-2.1986,-2.3109,-2.3715,-2.3933,-2.4012,-2.396,-2.3945,-2.3733,-2.3255,-2.152,-2.0747,-2.1054,-2.1828,-2.2335,-2.2535,-2.2611,-2.2649,0.4268,0.2843,0.1701,0.1941,0.1353,0.0811,0.0,0.0,0.0,0.3096,0.4748,0.6572,0.8677,1.0281,1.1579,1.2354,1.1825,1.0777,0.9165,0.5277,0.1288,-0.2091,-0.4199,-0.5389,-0.5367,-0.532,-0.4463,-0.2616,-0.1811,-0.0658,0.106,0.2032,0.256,0.2577,0.2902,0.2369,0.0898,-0.0313,-0.1493,-0.2673,-0.466,-0.5648,-0.563,-0.5161,-0.5806,-0.7245,-0.6097,-0.6943,-0.9285,-1.1765,-1.4242,-1.5836,-1.0035,-1.3842,-2.1962,-1.6762,-1.6219,-1.8018,-1.7312,-1.7179,-1.7476,-1.8703,-1.9544,-1.9513,-1.6584,-1.3033,-0.9786,-0.8701,-0.7013,-0.5702,-0.6576,-0.5038,-0.2724,-0.0639,0.1315,0.3736,0.7635,0.6295,0.301,-0.1578,-0.4985,-0.707,-0.6915,-0.9653,-1.1627,-1.0941,-1.2051,-1.3104,-1.3443,-1.5494,-1.6319,-1.4769,-1.7349,-1.9039,-1.8622,-2.053,-2.2047,-2.2766,-2.3515,-2.3683,-2.3127,-2.3584,-2.3349,-2.2251,-2.0886,-2.0131,-2.0001,-2.1153,-2.193,-2.2363,-2.2321,-2.2452,0.3873,0.2923,0.2467,0.1732,0.1245,0.0954,0.0848,0.0,0.1782,0.3695,0.0,0.7018,0.98,0.0,0.0,1.2707,1.2404,1.1043,0.8135,0.5482,0.2034,-0.3044,-0.4746,-0.5696,-0.6039,-0.4795,-0.3182,-0.1343,-0.0457,0.0569,0.1909,0.3359,0.3858,0.3201,0.3532,0.2645,0.0505,-0.0203,-0.1328,-0.287,-0.3556,-0.3931,-0.4033,-0.3825,-0.4739,-0.651,-0.6156,-0.7999,-1.1281,-1.2646,-1.5633,-1.9146,-1.7409,-1.9417,-2.2899,-1.9746,-1.9765,-2.1127,-1.9403,-1.8408,-1.7827,-1.7423,-1.5899,-1.37,-1.1075,-1.0132,-0.9745,-0.8488,-0.768,-0.7427,-0.8276,-0.7217,-0.5482,-0.3916,-0.2995,-0.0919,0.4617,0.416,0.2846,0.3401,-0.1304,-0.745,-1.3953,-1.5199,-1.5433,-1.5669,-1.4934,-1.4931,-1.6472,-1.6,-1.529,-1.4665,-1.6066,-1.6991,-1.6828,-1.7911,-1.9512,-2.1646,-2.2521,-2.3218,-2.3764,-2.3259,-2.2207,-2.0601,-2.0264,-2.0073,-2.0002,-2.0675,-2.1309,-2.1913,-2.2694,-2.3034,0.5877,0.4582,0.344,0.2633,0.1862,0.1261,0.095,0.1108,0.1914,0.4073,0.0,0.0,0.0,0.0,0.0,0.0,1.1636,1.0446,0.8217,0.5763,0.2434,-0.2132,-0.4217,-0.5335,-0.5485,-0.3906,-0.2171,-0.0375,0.0687,0.2019,0.3733,0.4146,0.4426,0.4578,0.4007,0.2817,0.105,0.0212,-0.0997,-0.2562,-0.293,-0.3308,-0.3616,-0.3237,-0.432,-0.6556,-0.7154,-0.9346,-1.2665,-1.4857,-1.7603,-2.0365,-1.9651,-2.1313,-2.3602,-1.9077,-1.7487,-1.7495,-1.6752,-1.5893,-1.5476,-1.7277,-1.5304,-1.2153,-1.1718,-1.0929,-0.9903,-0.8977,-0.8479,-0.8318,-0.8913,-0.8319,-0.7118,-0.5256,-0.4435,-0.2725,0.2133,0.2182,0.103,0.0139,-0.3296,-0.774,-1.3,-1.4838,-1.5769,-1.6254,-1.6273,-1.6707,-1.8059,-1.7534,-1.6731,-1.5911,-1.5895,-1.5958,-1.5978,-1.7283,-1.8702,-2.0118,-2.0808,-2.1615,-2.259,-2.1772,-2.1166,-2.0894,-2.0371,-2.0035,-1.99,-2.1076,-2.1798,-2.2102,-2.2776,-2.3211,0.7637,0.5978,0.4341,0.3441,0.236,0.1433,0.111,0.1488,0.2446,0.4375,0.5761,0.0,0.0,0.0,1.1193,1.1282,0.0,0.9893,0.8274,0.5971,0.3003,-0.0841,-0.3417,-0.4876,-0.4726,-0.3092,-0.1362,0.0361,0.1809,0.3372,0.5134,0.5079,0.519,0.5618,0.4446,0.3023,0.1368,0.0565,-0.0757,-0.2453,-0.2576,-0.2791,-0.3049,-0.2529,-0.3684,-0.6127,-0.7198,-0.9828,-1.3495,-1.5923,-1.8664,-2.1283,-2.1117,-2.2276,-2.3418,-1.8146,-1.6084,-1.5746,-1.467,-1.4105,-1.4126,-1.5815,-1.3906,-1.1094,-1.2128,-1.1536,-1.0422,-1.0029,-0.9514,-0.9148,-0.9544,-0.9392,-0.8579,-0.6552,-0.5598,-0.4032,0.0046,0.0226,-0.0716,-0.1601,-0.5005,-0.8377,-1.0346,-1.328,-1.5521,-1.6102,-1.6864,-1.7729,-1.8602,-1.8335,-1.7635,-1.6562,-1.5595,-1.5153,-1.5482,-1.6681,-1.8061,-1.9578,-2.0123,-2.0742,-2.1551,-2.0841,-2.0566,-2.0818,-2.0234,-1.9973,-2.0075,-2.1534,-2.2233,-2.2254,-2.2989,-2.3546,0.8322,0.6645,0.5086,0.3907,0.2455,0.1346,0.1349,0.2369,0.3561,0.466,0.6199,0.7899,0.9621,1.0566,1.0995,1.0582,1.047,0.0,0.0,0.6074,0.3832,0.0707,-0.2493,-0.4293,-0.3958,-0.2437,-0.076,0.0871,0.2937,0.4554,0.5524,0.6381,0.6554,0.6013,0.487,0.3232,0.1032,0.0654,-0.067,-0.2868,-0.2422,-0.2105,-0.1919,-0.152,-0.2612,-0.4809,-0.5475,-0.876,-1.368,-1.4953,-1.8184,-2.2411,-2.2982,-2.2859,-2.1895,-1.7941,-1.7792,-1.8951,-1.4916,-1.4467,-1.5123,-1.2043,-1.031,-0.9622,-1.0273,-1.0864,-1.134,-1.1686,-1.0912,-1.0066,-1.0445,-1.0581,-1.0192,-0.8419,-0.7298,-0.5529,-0.1573,-0.1794,-0.1821,0.1389,-0.4544,-0.945,-0.7432,-1.1592,-1.5418,-1.6004,-1.6849,-1.7541,-1.7986,-1.7684,-1.7011,-1.5934,-1.4746,-1.439,-1.5248,-1.5545,-1.7155,-2.0634,-2.1167,-2.1333,-2.1304,-2.1168,-2.0624,-1.9682,-1.9578,-1.9926,-2.0769,-2.1797,-2.2196,-2.2055,-2.3547,-2.43,0.9933,0.8676,0.7201,0.5659,0.4626,0.3765,0.2839,0.3385,0.4413,0.5747,0.6754,0.7957,0.9753,1.039,1.052,1.0082,0.9504,0.8645,0.0,0.465,0.1988,-0.0337,-0.2752,-0.3938,-0.3322,-0.2258,-0.0756,0.1229,0.2916,0.472,0.6693,0.678,0.6989,0.7441,0.5842,0.4014,0.2019,0.1586,0.0223,-0.201,-0.1163,-0.1029,-0.1566,-0.1609,-0.2478,-0.4011,-0.5996,-0.9111,-1.2962,-1.4917,-1.7924,-2.1365,-2.218,-2.108,-1.8776,-1.6924,-1.6017,-1.5148,-1.1123,-1.1551,-1.3286,-0.9976,-0.8167,-0.7687,-0.9702,-1.0981,-1.1751,-1.1808,-1.1398,-1.1104,-1.1847,-1.139,-1.0478,-0.9624,-0.8749,-0.7249,-0.4228,-0.4097,-0.4297,-0.3473,-0.6673,-0.9497,-0.9375,-1.1808,-1.4121,-1.515,-1.6208,-1.7144,-1.7968,-1.7985,-1.7945,-1.7982,-1.6594,-1.5644,-1.5634,-1.5698,-1.6676,-1.892,-1.9021,-1.9368,-2.0143,-1.9668,-1.9313,-1.9209,-1.975,-2.0163,-2.0464,-2.2151,-2.2966,-2.3013,-2.3714,-2.3999,1.1166,1.0018,0.8625,0.7158,0.6323,0.5539,0.4418,0.478,0.5625,0.6706,0.7183,0.7848,0.9482,0.9672,0.9453,0.892,0.823,0.709,0.0,0.2905,0.0607,-0.125,-0.2877,-0.3581,-0.2822,-0.2001,-0.0545,0.1824,0.3632,0.578,0.8435,0.8168,0.8285,0.9018,0.6997,0.5005,0.311,0.2659,0.1572,-0.0088,0.0975,0.0931,-0.0178,-0.0698,-0.2238,-0.4625,-0.6081,-0.928,-1.3516,-1.473,-1.7355,-2.0617,-2.0926,-1.9155,-1.6175,-1.4365,-1.3545,-1.2613,-0.7865,-0.785,-0.9321,-0.5873,-0.5023,-0.5841,-0.8584,-1.0404,-1.1603,-1.2015,-1.2066,-1.2083,-1.269,-1.2372,-1.1695,-1.0915,-0.9875,-0.8409,-0.6061,-0.5784,-0.5775,-0.5056,-0.7347,-0.9351,-0.8981,-1.0505,-1.2427,-1.439,-1.5624,-1.684,-1.8305,-1.8472,-1.8776,-1.9611,-1.8092,-1.6792,-1.6237,-1.6431,-1.6877,-1.7592,-1.7766,-1.813,-1.8801,-1.8485,-1.8407,-1.8642,-1.9506,-2.0119,-2.0442,-2.2291,-2.3232,-2.3324,-2.3782,-2.3938]}]]